[[{"header":{"parameterUnit":"m.s-1","parameterCategory":1,"la1":30.6,"la2":29.2853,"lo1":-89.7004,"lo2":-87.6739,"dy":0.0162,"dx":0.0183,"nx":112,"ny":82,"refTime":"2023-10-18T18:00:00:Z","depth":0,"parameterNumber":2,"parameterNumberName":"U-component_of_WINDS"},"data":[0.0,0.0,0.0,0.0,0.0,0.0,0.0,0.0,0.0,0.0,0.0,0.0,0.0,0.0,0.0,0.0,0.0,0.0,0.0,0.0,0.0,0.0,0.0,0.0,0.0,0.0,0.0,0.0,0.0,0.0,0.0,0.0,0.0,0.0,0.0,0.0,0.0,0.0,0.0,0.0,0.0,0.0,0.0,0.0,0.0,0.0,0.0,0.0,0.0,0.0,0.0,0.0,0.0,0.0,0.0,0.0,0.0,0.0,0.0,0.0,0.0,0.0,0.0,0.0,0.0,0.0,0.0,0.0,0.0,0.0,0.0,0.0,0.0,0.0,0.0,0.0,0.0,0.0,0.0,0.0,0.0,0.0,0.0,0.0,0.0,0.0,0.0,0.0,0.0,0.0,0.0,-4.4238,-4.7482,-4.9294,-4.8564,-4.845,-4.624,-4.1139,0.0,0.0,0.0,0.0,0.0,0.0,0.0,0.0,0.0,0.0,0.0,0.0,0.0,0.0,0.0,0.0,0.0,0.0,0.0,0.0,0.0,0.0,0.0,0.0,0.0,0.0,0.0,0.0,0.0,0.0,0.0,0.0,0.0,0.0,0.0,0.0,0.0,0.0,0.0,0.0,0.0,0.0,0.0,0.0,0.0,0.0,0.0,0.0,0.0,0.0,0.0,0.0,0.0,0.0,0.0,0.0,0.0,0.0,0.0,0.0,0.0,0.0,0.0,0.0,0.0,0.0,0.0,0.0,0.0,0.0,0.0,0.0,0.0,0.0,0.0,0.0,0.0,0.0,0.0,0.0,0.0,0.0,0.0,0.0,0.0,0.0,0.0,0.0,0.0,0.0,0.0,0.0,0.0,0.0,0.0,0.0,0.0,0.0,0.0,0.0,0.0,0.0,0.0,0.0,-4.2969,-4.6621,-4.802,-4.8642,-4.8506,-4.7127,-4.448,-4.0249,0.0,0.0,0.0,0.0,0.0,0.0,0.0,0.0,0.0,0.0,0.0,0.0,0.0,0.0,0.0,0.0,0.0,0.0,0.0,0.0,0.0,0.0,0.0,0.0,0.0,0.0,0.0,0.0,0.0,0.0,0.0,0.0,0.0,0.0,0.0,0.0,0.0,0.0,0.0,0.0,0.0,0.0,0.0,0.0,0.0,0.0,0.0,0.0,0.0,0.0,0.0,0.0,0.0,0.0,0.0,0.0,0.0,0.0,0.0,0.0,0.0,0.0,0.0,0.0,0.0,0.0,0.0,0.0,0.0,0.0,0.0,0.0,0.0,0.0,0.0,0.0,0.0,0.0,0.0,0.0,0.0,0.0,0.0,0.0,0.0,0.0,0.0,0.0,0.0,0.0,0.0,0.0,0.0,0.0,0.0,0.0,0.0,0.0,0.0,0.0,0.0,0.0,0.0,-4.1386,-4.3144,-4.6523,-4.7006,-4.7086,-4.7086,-4.5898,-4.3611,-3.9981,-3.8446,0.0,0.0,0.0,0.0,0.0,0.0,0.0,0.0,0.0,0.0,0.0,0.0,0.0,0.0,0.0,0.0,0.0,0.0,0.0,0.0,0.0,0.0,0.0,0.0,0.0,0.0,0.0,0.0,0.0,0.0,0.0,0.0,0.0,0.0,0.0,0.0,0.0,0.0,0.0,0.0,0.0,0.0,0.0,0.0,0.0,0.0,0.0,0.0,0.0,0.0,0.0,0.0,0.0,0.0,0.0,0.0,0.0,0.0,0.0,0.0,0.0,0.0,0.0,0.0,0.0,0.0,0.0,0.0,0.0,0.0,0.0,0.0,0.0,0.0,0.0,0.0,0.0,0.0,0.0,0.0,0.0,0.0,0.0,0.0,0.0,0.0,0.0,0.0,0.0,0.0,0.0,0.0,0.0,0.0,0.0,0.0,0.0,0.0,0.0,0.0,0.0,0.0,-4.2734,-4.3535,-4.574,-4.5571,-4.5306,-4.5279,-4.4192,-4.2167,-3.9031,-3.6752,0.0,0.0,0.0,0.0,0.0,0.0,0.0,0.0,0.0,0.0,0.0,0.0,0.0,0.0,0.0,0.0,0.0,0.0,0.0,0.0,0.0,0.0,0.0,0.0,0.0,0.0,0.0,0.0,0.0,0.0,0.0,0.0,0.0,0.0,0.0,0.0,0.0,0.0,0.0,0.0,0.0,0.0,0.0,0.0,0.0,0.0,0.0,0.0,0.0,0.0,0.0,0.0,0.0,0.0,0.0,0.0,0.0,0.0,0.0,0.0,0.0,0.0,0.0,0.0,0.0,0.0,0.0,0.0,0.0,0.0,0.0,0.0,0.0,0.0,0.0,0.0,0.0,0.0,0.0,0.0,0.0,0.0,0.0,0.0,0.0,0.0,0.0,0.0,0.0,0.0,0.0,0.0,0.0,0.0,0.0,0.0,0.0,0.0,0.0,0.0,0.0,0.0,-4.2146,-4.3963,-4.4894,-4.4137,-4.352,-4.3393,-4.1522,-3.9163,-3.6442,-3.4345,0.0,0.0,0.0,0.0,0.0,0.0,0.0,0.0,0.0,0.0,0.0,0.0,0.0,0.0,0.0,0.0,0.0,0.0,0.0,0.0,0.0,0.0,0.0,0.0,0.0,0.0,0.0,0.0,0.0,0.0,0.0,0.0,0.0,0.0,0.0,0.0,0.0,0.0,0.0,0.0,0.0,0.0,0.0,0.0,0.0,0.0,0.0,0.0,0.0,0.0,0.0,0.0,0.0,0.0,0.0,0.0,0.0,0.0,0.0,0.0,0.0,0.0,0.0,0.0,0.0,0.0,0.0,0.0,0.0,0.0,0.0,0.0,0.0,0.0,0.0,0.0,0.0,0.0,0.0,0.0,0.0,0.0,0.0,0.0,0.0,0.0,0.0,0.0,0.0,0.0,0.0,0.0,0.0,0.0,0.0,0.0,0.0,0.0,0.0,0.0,0.0,0.0,-4.0765,-4.2343,0.0,-4.3288,-4.2826,-4.1734,-4.1579,-3.9963,-3.6251,0.0,0.0,0.0,0.0,0.0,0.0,0.0,0.0,0.0,0.0,0.0,0.0,0.0,0.0,0.0,0.0,0.0,0.0,0.0,0.0,0.0,0.0,0.0,0.0,0.0,0.0,0.0,0.0,0.0,0.0,0.0,0.0,0.0,0.0,0.0,0.0,0.0,0.0,0.0,0.0,0.0,0.0,0.0,0.0,0.0,0.0,0.0,0.0,0.0,0.0,0.0,0.0,0.0,0.0,0.0,0.0,0.0,0.0,0.0,0.0,0.0,0.0,0.0,0.0,0.0,0.0,0.0,0.0,0.0,0.0,0.0,0.0,0.0,0.0,0.0,0.0,0.0,0.0,0.0,0.0,0.0,0.0,0.0,0.0,0.0,0.0,0.0,0.0,0.0,0.0,0.0,0.0,0.0,0.0,0.0,0.0,0.0,0.0,0.0,0.0,0.0,0.0,-3.7678,-3.952,-4.0905,0.0,-4.1908,-4.142,-3.9959,-4.0114,-3.8823,-3.5418,0.0,0.0,0.0,0.0,0.0,0.0,0.0,0.0,0.0,0.0,0.0,0.0,0.0,0.0,0.0,0.0,0.0,0.0,0.0,0.0,0.0,0.0,0.0,0.0,0.0,0.0,0.0,0.0,0.0,0.0,0.0,0.0,0.0,0.0,0.0,0.0,0.0,0.0,0.0,0.0,0.0,0.0,0.0,0.0,0.0,0.0,0.0,0.0,0.0,0.0,0.0,0.0,0.0,0.0,0.0,0.0,0.0,0.0,0.0,0.0,0.0,0.0,0.0,0.0,0.0,0.0,0.0,0.0,0.0,0.0,0.0,0.0,0.0,0.0,0.0,0.0,0.0,0.0,0.0,0.0,0.0,0.0,0.0,0.0,0.0,0.0,0.0,0.0,0.0,0.0,0.0,0.0,0.0,0.0,0.0,0.0,0.0,0.0,0.0,0.0,0.0,0.0,-3.6678,-3.852,-3.9934,-4.0585,-3.9893,-3.8999,-3.8041,-3.6469,-3.494,0.0,0.0,0.0,0.0,0.0,0.0,0.0,0.0,0.0,0.0,0.0,0.0,0.0,0.0,0.0,0.0,0.0,0.0,0.0,0.0,0.0,0.0,0.0,0.0,0.0,0.0,0.0,0.0,0.0,0.0,0.0,0.0,0.0,0.0,0.0,0.0,0.0,0.0,0.0,0.0,0.0,0.0,0.0,0.0,0.0,0.0,0.0,0.0,0.0,0.0,0.0,0.0,0.0,0.0,0.0,0.0,0.0,0.0,0.0,0.0,0.0,0.0,0.0,0.0,0.0,0.0,0.0,0.0,0.0,0.0,0.0,0.0,0.0,0.0,0.0,0.0,0.0,0.0,0.0,0.0,0.0,0.0,0.0,0.0,0.0,0.0,0.0,0.0,0.0,0.0,0.0,0.0,0.0,0.0,0.0,0.0,0.0,0.0,0.0,0.0,0.0,0.0,0.0,-3.5087,-3.7238,-3.8544,-3.8073,-3.8259,-3.7828,-3.6353,-3.6873,-3.5917,-3.2769,0.0,0.0,0.0,0.0,0.0,0.0,0.0,0.0,0.0,0.0,0.0,0.0,0.0,0.0,0.0,0.0,0.0,0.0,0.0,0.0,0.0,0.0,0.0,0.0,0.0,0.0,0.0,0.0,0.0,0.0,0.0,0.0,0.0,0.0,0.0,0.0,0.0,0.0,0.0,0.0,0.0,0.0,0.0,0.0,0.0,0.0,0.0,0.0,0.0,0.0,0.0,0.0,0.0,0.0,0.0,0.0,0.0,0.0,0.0,0.0,0.0,0.0,0.0,0.0,0.0,0.0,0.0,0.0,0.0,0.0,0.0,0.0,0.0,0.0,0.0,0.0,0.0,0.0,0.0,0.0,0.0,0.0,0.0,0.0,0.0,0.0,0.0,0.0,0.0,0.0,0.0,0.0,0.0,0.0,0.0,0.0,0.0,0.0,0.0,0.0,0.0,0.0,-3.4302,-3.6319,-3.7502,-3.688,-3.7211,-3.6949,-3.5622,-3.643,-3.5661,-3.2571,0.0,0.0,0.0,0.0,0.0,0.0,0.0,0.0,0.0,0.0,0.0,0.0,0.0,0.0,0.0,0.0,0.0,0.0,0.0,0.0,0.0,0.0,0.0,0.0,0.0,0.0,0.0,0.0,0.0,0.0,0.0,0.0,0.0,0.0,0.0,0.0,0.0,0.0,0.0,0.0,0.0,0.0,0.0,0.0,0.0,0.0,0.0,0.0,0.0,0.0,0.0,0.0,0.0,0.0,0.0,0.0,0.0,0.0,0.0,0.0,0.0,0.0,0.0,0.0,0.0,0.0,0.0,0.0,0.0,0.0,0.0,0.0,0.0,0.0,0.0,0.0,0.0,0.0,0.0,0.0,0.0,0.0,0.0,0.0,0.0,0.0,0.0,0.0,0.0,0.0,0.0,0.0,0.0,0.0,0.0,0.0,0.0,0.0,0.0,0.0,0.0,0.0,-3.3994,-3.5659,-3.6725,-3.6598,-3.6603,-3.6295,-3.5565,-3.5493,-3.4669,-3.273,0.0,0.0,0.0,0.0,0.0,0.0,0.0,0.0,0.0,0.0,0.0,0.0,0.0,0.0,0.0,0.0,0.0,0.0,0.0,0.0,0.0,0.0,0.0,0.0,0.0,0.0,0.0,0.0,0.0,0.0,0.0,0.0,0.0,0.0,0.0,0.0,0.0,0.0,0.0,0.0,0.0,0.0,0.0,0.0,0.0,0.0,0.0,0.0,0.0,0.0,0.0,0.0,0.0,0.0,0.0,0.0,0.0,0.0,0.0,0.0,-4.3335,0.0,0.0,0.0,0.0,0.0,0.0,0.0,0.0,0.0,0.0,0.0,0.0,0.0,0.0,0.0,0.0,0.0,0.0,0.0,0.0,0.0,0.0,0.0,0.0,0.0,0.0,0.0,0.0,0.0,0.0,0.0,0.0,0.0,0.0,0.0,0.0,0.0,0.0,0.0,0.0,0.0,-3.3166,-3.477,-3.5847,-3.5751,-3.5757,-3.5699,-3.5512,-3.5493,-3.4669,-3.273,0.0,0.0,0.0,0.0,0.0,0.0,0.0,0.0,0.0,0.0,0.0,0.0,0.0,0.0,0.0,0.0,0.0,0.0,0.0,0.0,0.0,0.0,0.0,0.0,0.0,0.0,0.0,0.0,0.0,0.0,0.0,0.0,0.0,0.0,0.0,0.0,0.0,0.0,0.0,0.0,0.0,0.0,0.0,0.0,0.0,0.0,0.0,0.0,0.0,0.0,0.0,0.0,0.0,0.0,0.0,0.0,0.0,0.0,0.0,0.0,0.0,-4.4724,0.0,0.0,0.0,0.0,0.0,0.0,0.0,0.0,0.0,0.0,0.0,0.0,0.0,0.0,0.0,0.0,0.0,0.0,0.0,0.0,0.0,0.0,0.0,0.0,0.0,0.0,0.0,0.0,0.0,0.0,0.0,0.0,0.0,0.0,0.0,0.0,0.0,0.0,0.0,0.0,-3.3481,-3.4352,-3.4916,-3.4885,-3.4507,-3.443,-3.4834,-3.4872,-3.4274,-3.2828,-3.2534,0.0,0.0,0.0,0.0,0.0,0.0,0.0,0.0,0.0,0.0,0.0,0.0,0.0,0.0,0.0,0.0,0.0,0.0,0.0,0.0,0.0,0.0,0.0,0.0,0.0,0.0,0.0,0.0,0.0,0.0,0.0,0.0,0.0,0.0,0.0,0.0,0.0,0.0,0.0,0.0,0.0,0.0,0.0,0.0,0.0,0.0,0.0,0.0,0.0,0.0,0.0,0.0,0.0,-5.1875,-5.1953,-5.2285,-5.1621,-5.123,-5.1035,-5.02,-4.8557,-4.6446,0.0,0.0,0.0,0.0,0.0,0.0,0.0,0.0,0.0,0.0,0.0,0.0,0.0,0.0,0.0,0.0,0.0,0.0,0.0,0.0,0.0,0.0,0.0,0.0,0.0,-4.2374,-4.2667,0.0,0.0,0.0,0.0,0.0,0.0,0.0,0.0,0.0,0.0,0.0,0.0,-3.3692,-3.3898,-3.3987,-3.3981,-3.3333,-3.3179,-3.391,-3.3968,-3.3603,-3.2756,-3.247,-3.1536,0.0,0.0,0.0,0.0,0.0,0.0,0.0,0.0,0.0,0.0,0.0,0.0,0.0,0.0,0.0,0.0,0.0,0.0,0.0,0.0,0.0,0.0,0.0,0.0,0.0,0.0,0.0,0.0,0.0,0.0,0.0,0.0,-4.5371,-4.5605,0.0,0.0,0.0,0.0,0.0,0.0,0.0,0.0,0.0,0.0,0.0,0.0,0.0,0.0,-5.2012,-5.3633,-5.457,-5.4805,-5.6973,-5.7285,-5.5918,-5.5801,-5.5332,-5.4629,-5.4492,0.0,-4.8269,-4.7447,0.0,0.0,0.0,0.0,0.0,0.0,0.0,0.0,0.0,0.0,0.0,0.0,0.0,0.0,0.0,0.0,0.0,0.0,0.0,0.0,0.0,0.0,-4.4874,-4.4008,-4.4547,-4.4932,0.0,-4.0415,-3.7411,-3.6306,0.0,0.0,0.0,0.0,0.0,0.0,0.0,0.0,-3.2115,-3.269,-3.3147,-3.3077,-3.2968,-3.2949,-3.3064,-3.3064,-3.2718,-3.191,-3.2468,-3.1862,-2.9789,-2.9979,0.0,0.0,0.0,0.0,0.0,0.0,0.0,0.0,0.0,0.0,0.0,0.0,0.0,0.0,0.0,0.0,0.0,0.0,0.0,0.0,0.0,0.0,0.0,0.0,0.0,0.0,0.0,0.0,0.0,-4.4082,-4.6855,-4.6367,-4.7168,-4.7031,0.0,0.0,0.0,0.0,0.0,0.0,0.0,0.0,0.0,-5.1597,-5.2967,-5.4306,-5.5605,-5.6875,-5.7715,-5.8164,-5.8379,-5.832,-5.8027,-5.7051,-5.6387,-5.5996,-5.5508,-5.3925,-5.1574,-5.0147,-4.8521,-4.6794,0.0,0.0,0.0,0.0,-4.5161,-4.473,-4.4761,-4.4791,0.0,0.0,0.0,0.0,0.0,0.0,0.0,0.0,0.0,0.0,0.0,0.0,0.0,-4.4393,-4.4586,-4.4658,-4.3844,-4.1461,-3.937,0.0,-3.7957,-3.6459,-3.4098,0.0,0.0,0.0,0.0,0.0,-3.1863,-3.1723,-3.146,-3.0935,-3.0877,-3.1079,-3.1564,-3.2009,-3.2132,-3.1785,-3.1813,-3.1181,-2.9751,-2.9245,-2.8456,0.0,0.0,0.0,0.0,0.0,0.0,0.0,0.0,0.0,0.0,0.0,0.0,0.0,0.0,0.0,0.0,0.0,0.0,0.0,0.0,0.0,0.0,0.0,0.0,0.0,0.0,0.0,0.0,-4.6113,-4.873,-4.7419,-4.9157,-4.9369,0.0,0.0,0.0,0.0,0.0,0.0,-5.0557,-5.1664,-5.3105,-5.4987,-5.6542,-5.7796,-5.8803,-5.9469,-5.9977,-6.0328,-5.912,-5.8515,-5.8434,-5.7187,-5.6367,-5.5898,-5.5254,-5.4609,-5.3867,-5.206,-5.0432,-4.8922,-4.7326,-4.6293,-4.5845,-4.6886,-4.685,-4.6346,-4.6666,-4.6771,-4.6422,-4.4399,0.0,-4.2701,-4.0585,0.0,0.0,0.0,0.0,-4.195,-4.2604,-4.3374,-4.3989,-4.3989,-4.383,-4.3543,-4.2995,-4.1451,-4.0229,0.0,-3.9665,-3.8052,-3.504,0.0,0.0,0.0,0.0,-3.1429,-3.0989,-3.0386,-2.973,-2.9065,-2.8987,-2.9343,-3.0199,-3.0824,-3.1241,-3.1447,-3.1289,-3.075,-2.9751,-2.8868,-2.7959,-2.7093,0.0,0.0,0.0,0.0,0.0,0.0,0.0,0.0,0.0,0.0,0.0,0.0,0.0,0.0,0.0,0.0,0.0,0.0,0.0,0.0,0.0,0.0,0.0,0.0,0.0,0.0,0.0,0.0,0.0,-5.0126,-5.2767,0.0,0.0,0.0,0.0,-4.9364,-5.0162,-5.1397,-5.3116,-5.4762,-5.65,-5.8387,-5.9332,-6.0312,-6.1314,-6.1353,-6.0983,-6.0207,-6.0249,-5.896,-5.6533,-5.6577,-5.5703,-5.4121,-5.4082,-5.4043,-5.3867,-5.2129,-5.0898,-5.0019,-4.8978,-4.8547,-4.8387,-4.7525,-4.7172,-4.7018,-4.615,-4.5874,-4.5808,-4.5555,-4.4393,-4.2912,-4.197,-4.1104,0.0,0.0,-4.0508,-4.1816,-4.1854,-4.2508,-4.3162,-4.3162,-4.2575,-4.2009,-4.1964,-4.0146,-3.8751,0.0,-3.8481,-3.6813,-3.4928,0.0,-3.3657,-3.1067,-3.0721,-3.0154,-2.8493,-2.8314,-2.8287,-2.8182,-2.8151,-2.8487,-2.931,-2.9401,-2.9758,-3.0527,-3.1313,-3.1141,-2.975,-2.9718,-2.9137,-2.7872,-2.6009,0.0,0.0,0.0,0.0,0.0,0.0,0.0,0.0,0.0,0.0,0.0,0.0,0.0,0.0,0.0,0.0,0.0,0.0,0.0,0.0,0.0,0.0,0.0,0.0,0.0,0.0,0.0,0.0,-5.1781,-5.4551,0.0,0.0,-5.2072,-5.2615,-5.2814,-5.4114,-5.5397,-5.6502,-5.7621,-5.8336,-5.8556,-5.9425,-5.9815,-5.9698,-5.9698,-5.9551,-5.922,-5.8187,-5.7205,-5.6238,-5.525,-5.4454,-5.3829,-5.3377,-5.2851,-5.2246,-5.1094,-5.1094,-5.1719,-5.0798,-4.9779,-4.8842,-4.9065,-4.8418,-4.7393,-4.6976,-4.6764,-4.6577,-4.5835,-4.447,-4.3047,-4.2739,-4.2027,-4.1277,-4.0989,-4.1739,-4.2643,-4.2643,-4.2874,-4.2816,-4.1681,-4.1277,-4.0692,-3.9083,-3.7715,-3.6723,-3.6513,-3.6014,-3.5234,-3.4039,-3.2925,-3.1692,-3.0179,-2.9502,-2.8722,-2.7544,-2.7414,-2.72,-2.6624,-2.7054,-2.7503,-2.7795,-2.8251,-2.8643,-2.8942,-2.8994,-2.8752,-2.8126,-2.7729,-2.6944,-2.5657,-2.4769,-2.4137,0.0,0.0,0.0,0.0,0.0,0.0,0.0,0.0,0.0,0.0,0.0,0.0,0.0,0.0,0.0,0.0,0.0,0.0,0.0,0.0,0.0,0.0,0.0,0.0,0.0,0.0,-5.4209,-5.2942,-5.601,-5.695,-5.3776,-5.4982,-5.5811,-5.5439,-5.6985,-5.793,-5.7857,-5.9184,-5.9485,-5.8452,-5.9263,-5.9351,-5.8642,-5.835,-5.8059,-5.7767,-5.6406,-5.5422,-5.4774,-5.3491,-5.2734,-5.2408,-5.1662,-5.1011,-5.0445,-4.996,-5.043,-5.1367,-5.0781,-4.9883,-4.8926,-4.9219,-4.8594,-4.7539,-4.7104,-4.6865,-4.6591,-4.5573,-4.4488,-4.3451,-4.2852,-4.2258,-4.1739,-4.145,-4.1777,-4.222,-4.222,-4.2027,-4.1527,-4.0373,-3.9521,-3.8526,-3.6911,-3.5285,-3.3997,-3.3515,-3.3652,-3.3574,-3.2715,-3.1387,-3.0176,-2.9297,-2.8418,-2.7656,-2.707,-2.6738,-2.6348,-2.5762,-2.6211,-2.668,-2.6973,-2.7705,-2.8116,-2.8096,-2.8087,-2.7803,-2.722,-2.6953,-2.6366,-2.5354,-2.4874,-2.45,-2.4222,0.0,0.0,0.0,0.0,0.0,0.0,0.0,0.0,0.0,0.0,0.0,0.0,0.0,0.0,0.0,0.0,0.0,0.0,0.0,0.0,0.0,0.0,0.0,-4.8786,-5.3189,-5.5723,-5.3813,-5.7301,-5.8779,-5.6092,-5.7376,-5.8011,-5.7126,-5.8569,-5.8781,-5.7126,-5.9377,-5.9954,-5.828,-5.8992,-5.9065,-5.8383,-5.7531,-5.6714,-5.5897,-5.5163,-5.3849,-5.2031,-5.1372,-5.0578,-4.9711,-4.9009,-4.8688,-4.8654,-4.8804,-4.8847,-4.8828,-4.8887,-4.8887,-4.8769,-4.791,-4.7578,-4.7421,-4.6401,-4.5969,-4.5715,-4.4773,-4.4453,-4.4086,-4.2337,-4.1777,-4.1585,-4.07,-4.045,-4.045,-4.0431,-3.9815,-3.92,-3.9181,-3.7334,-3.5563,-3.5543,-3.2991,-3.0726,-3.08,-3.1484,-3.1777,-3.0957,-3.0098,-2.9238,-2.8398,-2.7519,0.0,-2.6953,-2.6211,-2.5703,-2.5703,-2.5723,-2.6074,-2.6894,-2.7704,-2.8115,-2.8018,-2.8694,-2.848,-2.7179,-2.7568,-2.7585,-2.7127,-2.6417,-2.5795,-2.5316,0.0,0.0,0.0,0.0,0.0,0.0,0.0,0.0,0.0,0.0,0.0,0.0,0.0,0.0,0.0,0.0,0.0,0.0,0.0,0.0,0.0,0.0,-5.0874,-5.2194,-5.51,-5.7344,-5.7899,-5.9476,-5.9967,-5.8588,-5.9454,-5.9742,-5.8877,-5.9242,-5.905,-5.7992,-5.8607,-5.8204,-5.6472,-5.7242,-5.7016,-5.5615,-5.5364,-5.4805,-5.3957,-5.3124,-5.2159,-5.1065,-5.0347,-4.9537,-4.8715,-4.8593,-4.8195,-4.7618,-4.7752,-4.7439,-4.7012,-4.8377,-4.8516,-4.793,-4.7695,-4.7207,-4.6503,-4.5503,-4.5138,-4.4955,-4.4014,-4.3244,-4.2589,-4.2093,-4.1456,-4.0681,-3.9854,-3.9623,-3.9469,-3.8854,-3.8046,-3.7276,-3.668,-3.5657,-3.4299,-3.2409,-3.1383,-3.0487,-2.9258,-2.8691,-2.8555,-2.8945,-2.8281,-2.7637,-2.7383,-2.6621,0.0,-2.6055,-2.5859,-2.5703,-2.5703,-2.6269,-2.6484,-2.6094,-2.6788,-2.6952,-2.6252,-2.6353,-2.6188,-2.5634,-2.5725,-2.5517,-2.4897,-2.4972,-2.5243,0.0,0.0,0.0,0.0,0.0,0.0,0.0,0.0,0.0,0.0,0.0,0.0,0.0,0.0,0.0,0.0,0.0,0.0,0.0,0.0,0.0,0.0,-4.9429,-5.229,-5.4382,-5.62,-5.7765,-5.8954,-5.9774,-6.0069,-5.955,-6.0281,-6.03,-5.9088,-5.9319,-5.8838,-5.73,-5.7896,-5.7511,-5.5761,-5.6184,-5.5818,-5.4511,-5.378,-5.3164,-5.2664,-5.1798,-5.0952,-5.0125,-4.9326,-4.8504,0.0,-4.7474,-4.7076,-4.6639,-4.6794,-4.6557,0.0,0.0,0.0,0.0,0.0,-4.6504,-4.5664,-4.5089,-4.4633,-4.4179,-4.3239,-4.2568,-4.2033,-4.159,-4.0797,-3.9951,-3.9441,-3.9027,-3.8546,-3.768,-3.6837,-3.6023,-3.5193,-3.4187,-3.2902,-3.1037,-3.0183,-2.9372,-2.8027,-2.7051,0.0,-2.7129,-2.6797,-2.6582,-2.6953,-2.6269,-2.582,-2.6191,-2.5937,-2.5703,-2.5703,-2.6152,-2.625,-2.5742,-2.6435,0.0,0.0,0.0,-2.5859,-2.5551,-2.5457,0.0,0.0,0.0,-2.5796,-2.6061,0.0,0.0,0.0,-2.9502,-2.9947,0.0,0.0,0.0,0.0,0.0,0.0,0.0,0.0,0.0,0.0,0.0,0.0,0.0,0.0,0.0,0.0,-5.1218,-5.3217,-5.5562,-5.6551,-5.735,-5.8187,-5.8934,-5.9358,-5.9358,-6.0069,-5.9896,-5.8415,-5.8877,-5.8223,-5.5972,0.0,0.0,0.0,0.0,-5.5068,-5.4357,-5.2626,-5.1722,-5.1625,-5.0779,-4.9952,-4.9086,-4.8317,-4.7528,-4.6721,-4.6066,-4.5789,-4.5796,-4.5979,-4.6016,-4.5976,-4.6208,-4.623,-4.6152,-4.6152,-4.5605,-4.4844,-4.4746,0.0,0.0,-4.2483,-4.2174,-4.1954,-4.0898,-4.004,-3.9325,-3.8979,-3.831,-3.7488,-3.6526,-3.5714,-3.4949,-3.4079,-3.2701,-3.1339,-3.0442,-2.9081,-2.7813,-2.6991,-2.6211,-2.5703,-2.5703,-2.5703,-2.5957,-2.6738,-2.6191,-2.5977,-2.6758,-2.6172,-2.5703,-2.5703,0.0,0.0,-2.5703,-2.6436,-2.6537,-2.5659,-2.6256,-2.6521,-2.6207,-2.6015,-2.5895,-2.5895,-2.6582,-2.6748,-2.6295,-2.6843,-2.7132,-2.7245,-2.925,-3.0043,0.0,0.0,0.0,0.0,0.0,0.0,0.0,0.0,0.0,0.0,0.0,0.0,0.0,0.0,0.0,-5.0123,-5.1914,-5.3649,-5.5478,-5.5883,-5.6556,-5.8107,-5.8434,-5.8531,-5.8531,-5.8684,-5.8646,-5.8319,-5.778,-5.7261,-5.6761,-5.578,0.0,-5.5684,-5.4395,-5.3606,-5.3453,-5.1779,-5.0587,-4.9875,0.0,0.0,-4.7375,-4.7221,-4.6663,-4.5836,-4.5695,-4.5635,-4.5651,-4.579,-4.5529,-4.5137,-4.5974,-4.5879,-4.5254,-4.5254,-4.4707,-4.3848,-4.3144,-4.2793,-4.2519,-4.1679,-4.1336,-4.109,-4.0164,-3.9649,0.0,-3.6895,-3.6151,-3.5622,-3.4045,-3.3051,-3.2216,-3.1349,-3.0424,-2.9319,-2.7794,-2.7298,-2.6891,-2.6039,-2.5778,-2.5703,-2.5703,-2.5703,-2.5762,-2.5937,-2.5801,-2.5762,-2.5937,-2.5801,-2.5703,-2.5703,-2.6328,-2.6465,-2.5762,-2.6484,-2.6596,-2.5661,-2.5695,-2.5726,-2.5659,-2.5407,-2.5269,-2.5269,-2.5373,-2.5704,-2.6295,-2.6409,-2.6712,-2.7207,-2.7493,-2.7505,0.0,0.0,0.0,0.0,0.0,0.0,0.0,0.0,0.0,0.0,0.0,-4.4188,0.0,0.0,-4.902,-5.0706,-5.2235,-5.3491,-5.4337,-5.4818,-5.5568,-5.6857,-5.7376,-5.7646,-5.7646,-5.805,-5.8127,-5.7684,-5.6838,-5.6165,-5.5761,-5.453,-5.403,-5.4434,-5.3222,-5.2356,-5.1952,-5.1106,-5.0029,-4.8759,-4.8759,-4.8105,-4.6913,-4.6913,-4.6413,-4.5586,-4.5586,-4.5586,-4.562,-4.5783,-4.5449,-4.4864,-4.5427,-4.5117,-4.4355,-4.4355,-4.3808,-4.2988,-4.2558,-4.1855,-4.1074,-4.0684,-4.0212,-3.9713,-3.9204,-3.8371,-3.7316,-3.5979,-3.4921,-3.3814,-3.2102,-3.1391,-3.079,-2.9496,-2.8919,-2.8301,-2.7032,-2.6802,-2.6591,-2.573,-2.5603,-2.5658,-2.5658,-2.5683,-2.5703,-2.5703,-2.5703,-2.5703,-2.5703,-2.5703,-2.5703,-2.5703,-2.6094,-2.6172,-2.5742,-2.6094,-2.6152,-2.5679,-2.5595,-2.5551,-2.5551,-2.5382,-2.5267,-2.5258,-2.5216,-2.5348,-2.5659,-2.5659,-2.5725,-2.5839,-2.556,-2.5774,0.0,0.0,0.0,0.0,0.0,0.0,0.0,0.0,-4.3551,-4.3395,-4.4558,-4.593,-4.6949,-4.8121,-4.9442,-5.0971,-5.2116,-5.2888,-5.3061,-5.3757,-5.4491,-5.5145,-5.6107,-5.6742,-5.6742,-5.7376,-5.7492,-5.6799,-5.6088,-5.5338,-5.453,-5.3664,-5.3203,-5.3203,-5.2202,-5.1433,-5.0933,-5.0433,-4.949,-4.8105,-4.8471,-4.7952,-4.6644,-4.6644,-4.6259,-4.5586,-4.5586,-4.5586,-4.5601,-4.5653,-4.5227,-4.4534,-4.4508,-4.3867,-4.2988,-4.3144,-4.2656,-4.1894,-4.1719,-4.0781,-3.9648,-3.9648,-3.9062,-3.83,-3.8029,-3.6816,-3.545,-3.4999,-3.3699,-3.2064,-3.0544,-3.0074,-2.962,-2.8092,-2.7763,-2.7568,-2.6707,-2.6523,-2.6315,-2.5629,-2.552,-2.5573,-2.5601,-2.5637,-2.5683,-2.5703,-2.5703,-2.5703,-2.5703,-2.5703,-2.5703,-2.5703,-2.5703,-2.5703,-2.5703,-2.5703,-2.5703,-2.5703,-2.5658,-2.5629,-2.5629,-2.5547,-2.5457,-2.5355,-2.5337,-2.5178,-2.4854,-2.4815,-2.4633,-2.4282,-2.3853,-2.4357,-3.9701,-4.0404,-4.202,-4.3902,-4.3815,-4.3995,0.0,0.0,-4.5266,-4.6284,-4.7192,-4.7796,-4.766,-4.86,-4.9731,-5.0704,-5.1216,-5.1787,-5.2551,-5.3053,-5.3376,-5.3472,-5.4876,-5.5838,-5.5838,-5.5934,-5.5953,-5.5838,-5.5761,-5.5338,-5.453,-5.3664,-5.3203,-5.3203,-5.1664,-5.1125,-5.176,-4.9529,-4.8298,-4.8086,-4.6682,-4.5932,-4.574,-4.574,-4.5682,-4.5586,-4.5586,-4.5586,-4.5563,-4.5041,-4.4342,-4.351,-4.2917,-4.1719,-4.043,-4.1191,-4.0937,-4.0078,-3.9297,-3.8906,-3.875,-3.875,-3.8164,-3.7305,-3.6503,-3.5516,-3.4309,-3.274,-3.1525,-3.0467,-2.9506,-2.872,-2.796,-2.6987,-2.6757,-2.6535,-2.5659,-2.5514,-2.5524,-2.5427,-2.5477,-2.5539,-2.5595,-2.5605,-2.5634,-2.5683,-2.5703,-2.5703,-2.5703,-2.5703,-2.5703,-2.5703,-2.5703,-2.5703,-2.5703,-2.5703,-2.5703,-2.5703,-2.5683,-2.5683,-2.5683,-2.5564,-2.5418,-2.5239,-2.511,-2.4822,-2.4372,-2.4189,-2.3951,-2.3596,-2.2726,-2.2908,-4.2236,-4.2227,0.0,0.0,-4.4815,-4.5068,-4.6054,-4.6051,-4.5919,-4.6244,-4.7154,-4.7778,-4.7437,-4.8766,-5.0014,0.0,-5.073,-5.1201,-5.1764,-5.1988,-5.2015,-5.1759,-5.3222,-5.4241,-5.4241,-5.4241,-5.4241,-5.4241,-5.378,-5.3337,-5.301,-5.1722,-5.1221,-5.1722,-5.0087,-4.9356,-4.9702,-4.8625,-4.7605,-4.6644,-4.6451,-4.6086,-4.5586,-4.5586,-4.5316,-4.4836,-4.4836,-4.4586,-4.4138,-4.3911,-4.3355,-4.2572,-4.1855,-4.0894,-3.9941,-4.0312,-3.9883,-3.9082,-3.873,-3.7949,-3.709,-3.709,-3.6152,-3.4961,-3.4609,-3.3453,-3.2135,-3.1415,-3.0109,-2.8736,-2.7871,-2.739,-2.6928,-2.6063,-2.5851,-2.5726,-2.538,-2.5312,-2.5329,-2.5329,-2.5406,-2.5459,-2.5482,-2.5551,-2.5605,-2.5636,-2.5682,-2.5703,-2.5703,-2.5703,-2.5703,-2.5703,-2.5703,-2.5703,-2.5703,-2.5703,-2.5703,-2.5703,-2.5703,-2.5683,-2.5637,-2.5595,-2.542,-2.5144,-2.4933,-2.4601,-2.4118,-2.3603,-2.3222,-2.2959,-2.2122,-2.1809,-4.2903,0.0,0.0,-4.4316,-4.528,-4.5686,-4.5301,-4.5701,-4.6144,-4.6026,-4.6657,-4.712,-4.6801,-4.8162,0.0,-4.9284,-4.9842,-5.035,-5.0591,-5.0615,-5.0588,-5.0542,-5.1489,-5.226,-5.2491,-5.2722,-5.2837,-5.2837,-5.226,-5.1798,-5.1587,-5.0414,-4.9933,-5.0317,-4.8875,-4.8105,-4.8105,-4.7875,-4.7163,-4.5951,-4.6355,-4.6201,-4.5586,-4.5586,-4.5124,-4.4297,-4.4297,-4.3835,-4.3063,-4.2673,-4.2207,-4.1638,-4.0657,-3.983,-3.9141,-3.8906,-3.8574,-3.8164,-3.7695,-3.6699,-3.5605,-3.5331,-3.4257,-3.3027,-3.2733,-3.1571,-3.0331,-3.0058,-2.8815,-2.7412,-2.6765,-2.6428,-2.6082,-2.5437,-2.5303,-2.5303,-2.5303,-2.5303,-2.5303,-2.5303,-2.5348,-2.5376,-2.5398,-2.5488,-2.5554,-2.5564,-2.5607,-2.566,-2.5703,-2.5703,-2.5703,-2.5703,-2.5703,-2.5703,-2.5703,-2.5703,-2.5703,-2.5703,-2.5683,-2.5658,-2.5603,-2.5512,-2.5324,-2.5013,-2.4689,-2.4222,-2.3614,-2.2976,-2.2504,-2.2122,-2.1343,-2.0751,0.0,0.0,-4.2446,-4.4258,-4.5257,-4.591,-4.6348,-4.6104,-4.5942,-4.6377,-4.6215,-4.5975,-4.5938,-4.6617,-4.7186,-4.7186,-4.8194,-4.8967,-4.8967,-4.8928,-4.9196,-5.0021,-4.9752,-4.9856,0.0,-5.1491,-5.1952,-5.1952,-5.1914,-5.1568,-5.0779,-5.0683,-5.0279,-4.9471,-4.8567,-4.8105,-4.8105,-4.7336,-4.6913,-4.6855,-4.6028,-4.5624,-4.5586,-4.5586,-4.5124,-4.4297,-4.4297,-4.3835,-4.2986,-4.1422,-4.08,-4.0676,-3.9097,-3.8036,-3.7285,-3.6426,-3.6641,-3.7109,-3.5391,-3.4785,-3.4589,-3.3678,-3.2863,-3.205,-3.1077,-3.0195,-2.9357,-2.8442,-2.7485,-2.6721,-2.6612,-2.5967,-2.5322,-2.5303,-2.5303,-2.5303,-2.5303,-2.5303,-2.5303,-2.5303,-2.5313,-2.5312,-2.5391,-2.5394,-2.5428,-2.5484,-2.5493,-2.5554,-2.5683,-2.5703,-2.5703,-2.5703,-2.5703,-2.5703,-2.5703,-2.5703,-2.5703,-2.5703,-2.5636,-2.5603,-2.5601,-2.5291,-2.5013,-2.482,-2.4286,-2.3575,-2.265,-2.2293,-2.1736,-2.1023,-2.0097,-1.9641,0.0,0.0,-4.3569,-4.4573,-4.4937,-4.5063,-4.5262,-4.494,-4.4651,-4.4811,-4.3873,-4.3051,-4.3051,-4.4179,-4.5271,-4.5799,-4.7388,-4.8604,-4.8863,-4.8896,-4.8474,-4.7363,-4.8791,0.0,0.0,0.0,0.0,-5.024,-4.9721,-4.926,-4.899,-4.8471,-4.8298,-4.8529,-4.7163,-4.6721,-4.7298,-4.6451,-4.6028,-4.6028,-4.574,-4.5586,-4.5566,-4.4989,-4.4278,-4.3431,-4.2277,-4.1316,-4.0504,-3.9369,-3.8999,-3.9031,-3.7916,-3.7054,-3.6328,-3.5469,-3.4588,-3.384,-3.3799,-3.3356,-3.2701,-3.185,-3.1055,-3.024,-2.9316,-2.8457,-2.7708,-2.7381,-2.6601,-2.5836,-2.5815,-2.5542,-2.5303,-2.5303,-2.5303,-2.5303,-2.5303,-2.5303,-2.5303,-2.5303,-2.5303,-2.5254,-2.5147,-2.5168,-2.5183,-2.51,-2.5331,-2.5526,-2.5561,-2.5605,-2.5634,-2.5634,-2.5662,-2.5703,-2.5703,-2.5703,-2.5703,-2.5703,-2.5636,-2.557,-2.5543,-2.5248,-2.5018,-2.4807,-2.3785,-2.3064,-2.2599,-2.1142,-2.0289,-2.0043,-1.9059,-1.8207,0.0,-4.2488,-4.3539,-4.4534,-4.4521,-4.425,-4.4188,-4.3778,-4.3358,-4.3224,-4.1978,-4.0903,-4.0903,-4.2001,-4.2994,-4.3268,-4.5228,-4.6945,-4.7499,-4.7593,-4.741,-4.6955,-4.8397,0.0,0.0,0.0,0.0,-4.8914,-4.8413,-4.7914,-4.7472,-4.7088,-4.7069,-4.7452,-4.6261,-4.5874,-4.6432,-4.5874,-4.5586,-4.5586,-4.5586,-4.5432,-4.5124,-4.4566,-4.3508,-4.2104,-4.0989,-3.9873,-3.8757,-3.7892,-3.7467,-3.7253,-3.6428,-3.5646,-3.491,-3.4057,-3.2792,-3.1616,-3.2196,-3.1785,-3.087,-3.0004,-2.9401,-2.884,-2.7963,-2.7334,-2.6833,-2.6527,-2.5959,-2.5428,-2.5406,-2.5357,-2.5303,-2.5303,-2.5303,-2.5303,-2.5303,-2.5303,-2.5274,-2.5214,-2.5184,-2.5141,-2.4968,-2.4972,-2.4954,-2.4878,-2.5091,-2.5287,-2.5387,-2.5435,-2.5485,-2.5561,-2.5603,-2.5633,-2.5633,-2.5633,-2.5633,-2.5633,-2.5564,-2.5489,-2.5357,-2.512,-2.4848,-2.4516,-2.3379,-2.2521,-2.191,-2.036,-1.9426,-1.9059,-1.8196,-1.7313,-4.1293,-4.1964,-4.2396,-4.4003,-4.4017,-4.3534,-4.3146,-4.2614,-4.2142,-4.1777,-4.0471,-3.9394,0.0,0.0,-4.0481,-3.9828,-4.2149,-4.4281,-4.5084,-4.5239,-4.6169,0.0,0.0,0.0,0.0,0.0,0.0,-4.7991,0.0,-4.7433,-4.626,-4.6569,-4.6608,-4.6221,-4.5784,-4.5549,-4.551,-4.5528,-4.5528,-4.551,-4.5528,-4.5086,-4.4261,-4.4162,-4.2777,-4.0489,-4.0354,-3.9392,-3.7853,-3.6949,-3.6158,-3.5466,-3.4719,-3.3894,-3.3042,-3.2221,-3.1276,-3.0401,-3.0533,-3.003,-2.9171,-2.824,-2.7964,-2.7873,-2.7001,-2.6775,-2.6667,-2.5832,-2.5554,-2.5493,-2.5415,-2.5346,-2.5303,-2.5303,-2.5303,-2.5303,-2.5303,-2.5274,-2.5224,-2.5022,-2.4986,-2.4937,-2.4818,-2.4775,-2.476,-2.476,-2.4741,-2.4841,-2.5131,-2.5178,-2.5253,-2.5454,-2.5484,-2.5469,-2.5435,-2.5474,-2.5469,-2.543,-2.5396,-2.5294,-2.5072,-2.4873,-2.45,-2.395,-2.3006,-2.1883,-2.0671,-1.9867,-1.8985,-1.8066,-1.7463,-1.687,-4.0714,-4.157,-4.212,-4.1778,-4.2006,-4.2139,-4.1483,-4.1221,-4.094,-4.0304,-3.8179,-3.6484,0.0,0.0,0.0,-3.9783,-4.3191,0.0,-4.5241,-4.6134,0.0,0.0,0.0,-4.8576,-4.8183,-4.8039,0.0,0.0,-4.6182,-4.5355,-4.5054,-4.5128,-4.5128,-4.5054,-4.4919,-4.4661,-4.4266,-4.4516,-4.4516,-4.4266,-4.4497,-4.4382,-4.3865,-4.2213,-4.1104,-4.0392,-3.8488,-3.743,-3.693,-3.543,-3.4762,-3.4555,-3.3759,-3.2951,-3.2135,-3.132,-3.0024,-2.8547,-2.7945,-2.7973,-2.8144,-2.7248,-2.7003,-2.6909,-2.6076,-2.5878,-2.5902,-2.5723,-2.5595,-2.5508,-2.5488,-2.5383,-2.5303,-2.5303,-2.5303,-2.5264,-2.5111,-2.5088,-2.5041,-2.4883,-2.4741,-2.462,-2.4575,-2.4444,-2.4266,-2.4022,-2.3984,-2.4191,-2.4828,-2.4893,-2.4985,-2.5183,-2.5251,-2.5084,-2.4637,-2.5162,-2.5182,-2.4426,-2.4888,-2.4994,-2.4594,-2.4335,-2.3876,-2.3191,-2.1864,-2.0844,-2.0153,-1.8645,-1.776,-1.7463,-1.6476,-1.5708,-4.0318,-4.0799,-4.0978,-4.0379,-4.0323,-4.0147,-3.9124,-3.8796,-3.8461,-3.7568,-3.574,0.0,0.0,0.0,0.0,0.0,0.0,0.0,-4.4313,-4.5517,-4.6266,0.0,-4.7296,0.0,-4.7474,-4.702,-4.6514,0.0,-4.5453,-4.4904,-4.4364,-4.4124,-4.3962,-4.3801,-4.3604,-4.3359,-4.3073,-4.3247,-4.3247,-4.3073,-4.3247,-4.2926,-4.2141,-4.09,-3.9794,-3.8757,0.0,-3.6507,-3.6084,-3.4757,-3.4012,-3.3611,-3.2832,-3.1775,-3.0618,-3.0198,-2.8912,-2.7314,-2.6831,-2.6708,-2.6678,-2.6197,-2.6044,-2.6017,-2.5613,-2.5535,-2.559,-2.5662,-2.5603,-2.5493,-2.5493,-2.5406,-2.5303,-2.5303,-2.5303,-2.5234,-2.5034,-2.501,-2.4892,-2.4514,-2.4282,-2.4099,-2.3946,-2.3842,-2.3692,-2.3522,-2.3477,-2.3638,-2.4044,-2.4165,-2.4301,-2.4525,-2.4695,-2.4681,-2.4332,-2.4904,-2.5009,-2.4399,-2.4678,-2.458,-2.3944,-2.3652,-2.3038,-2.1939,-2.0919,-1.9953,-1.911,-1.7891,-1.7188,-1.6909,-1.6027,-1.5276,-3.9824,-3.9575,-3.9111,-3.9151,-3.8853,-3.8183,-3.6737,-3.637,-3.5931,-3.4627,0.0,0.0,-3.3284,0.0,-3.5571,-3.5876,0.0,-4.1492,-4.3091,-4.4332,-4.5569,-4.6931,-4.6935,-4.6888,-4.6929,-4.5517,-4.4619,-4.4709,-4.5195,-4.4983,-4.3844,-4.3399,-4.2977,-4.2608,-4.2104,-4.1857,-4.1857,-4.1906,-4.1906,-4.1857,-4.1812,-4.1135,-3.9963,-3.9699,-3.8531,-3.6637,0.0,0.0,-3.5257,-3.4276,-3.341,-3.2673,-3.1921,-3.0588,-2.9085,-2.9052,-2.8,-2.6582,-2.6467,-2.5928,-2.5303,-2.5303,-2.5303,-2.5312,-2.5453,-2.5484,-2.5535,-2.5658,-2.5605,-2.5493,-2.5493,-2.5406,-2.5303,-2.5303,-2.5303,-2.5243,-2.501,-2.4905,-2.4657,-2.4082,-2.3785,-2.3544,-2.3236,-2.3189,-2.3165,-2.3052,-2.3093,-2.3093,-2.3003,-2.3262,-2.3539,-2.3746,-2.4026,-2.4184,-2.4122,-2.4563,-2.4737,-2.4475,-2.441,-2.3986,-2.3106,-2.2782,-2.1966,-2.0591,-2.0002,-1.9074,-1.7798,-1.73,-1.6769,-1.625,-1.5644,-1.5141,-3.8496,-3.7557,-3.6405,-3.6839,-3.7349,-3.7419,-3.6285,-3.6485,0.0,0.0,0.0,-3.3017,-3.308,-3.3953,0.0,-3.7195,0.0,0.0,0.0,0.0,-4.5439,0.0,0.0,0.0,0.0,0.0,0.0,0.0,0.0,0.0,-4.2658,-4.2521,-4.2134,-4.1411,-4.0884,-4.0616,-4.0616,-4.0929,-4.0929,-4.0597,-4.0277,-3.9811,-3.9214,-3.7677,-3.6742,-3.6298,-3.5129,0.0,-3.4314,-3.2776,-3.2045,-3.1814,-3.0972,-3.0009,-2.9017,-2.8364,-2.7468,-2.6505,-2.5793,-2.5418,-2.5303,-2.5303,-2.5303,-2.5313,-2.5391,-2.5459,-2.5526,-2.5598,-2.5559,-2.5493,-2.5493,-2.5406,-2.5303,-2.5303,-2.5303,-2.5203,-2.4896,-2.4368,-2.3886,-2.3762,-2.3504,-2.3259,-2.3212,-2.3189,-2.3003,-2.238,-2.2556,-2.2574,-2.196,-2.2669,-2.3325,-2.3518,-2.3601,-2.3545,-2.3238,-2.3707,-2.3603,-2.2644,-2.2968,-2.2794,-2.1832,-2.1345,-2.0671,-1.9808,-1.8846,-1.781,-1.6663,-1.6133,-1.5576,-1.5017,-1.4365,-1.4329,-3.6685,-3.581,-3.4991,-3.5641,-3.6383,-3.6465,-3.4727,0.0,0.0,0.0,0.0,-3.2631,-3.2402,0.0,0.0,0.0,0.0,0.0,0.0,0.0,0.0,0.0,0.0,0.0,0.0,0.0,0.0,0.0,0.0,0.0,-4.2304,-4.1515,-4.0689,-3.9882,-3.9202,-3.9032,-3.9457,-3.8831,-3.8608,-3.8839,-3.8218,-3.769,-3.7161,-3.5807,-3.5057,-3.4736,-3.3623,0.0,-3.3269,-3.201,-3.1316,-3.0948,-3.0063,-2.8948,-2.7755,-2.7371,-2.6678,-2.587,-2.5437,-2.5303,-2.5313,-2.5339,-2.5321,-2.5322,-2.5415,-2.5463,-2.5511,-2.5611,-2.5574,-2.5493,-2.5493,-2.5406,-2.5274,-2.5163,-2.5005,-2.4776,-2.4449,-2.4024,-2.3606,-2.3253,-2.3045,-2.2915,-2.2747,-2.2721,-2.2616,-2.2254,-2.2164,-2.1989,-2.1642,-2.1886,-2.2255,-2.2838,-2.2999,-2.2929,-2.2558,-2.3002,-2.2932,-2.2052,-2.1945,-2.1569,-2.0751,-2.0082,-1.9292,-1.8401,-1.7892,-1.7272,-1.6429,-1.5896,-1.5454,-1.5141,-1.4236,-1.4143,-3.5,-3.4492,-3.4251,-3.5232,-3.6041,-3.6014,-3.3775,-3.4478,0.0,0.0,-3.1652,-3.2338,-3.2122,0.0,0.0,0.0,0.0,0.0,0.0,0.0,0.0,0.0,0.0,0.0,0.0,0.0,0.0,0.0,0.0,0.0,-4.1497,-4.0157,-3.9019,-3.8212,-3.7569,-3.7533,-3.8175,-3.6927,-3.6523,-3.6945,-3.6138,-3.5431,-3.4847,-3.4046,-3.3462,-3.3014,-3.226,0.0,0.0,-3.1382,-3.068,-3.0044,-2.9371,-2.8082,-2.6601,-2.6601,-2.6063,-2.5312,-2.5331,-2.533,-2.5346,-2.5406,-2.5387,-2.5329,-2.5451,-2.5503,-2.5547,-2.5658,-2.5588,-2.5493,-2.5493,-2.5406,-2.5253,-2.5046,-2.4685,-2.4318,-2.4063,-2.3726,-2.3346,-2.2797,-2.2574,-2.2422,-2.2321,-2.2209,-2.2106,-2.202,-2.1764,-2.1521,-2.1352,-2.1118,-2.1213,-2.1794,-2.2057,-2.2101,-2.1995,-2.2095,-2.1949,-2.1504,-2.0882,-2.0257,-1.9606,-1.8883,-1.8129,-1.7312,-1.7188,-1.6769,-1.6107,-1.5644,-1.5276,-1.5005,-1.405,-1.4014,-3.4023,-3.3775,-3.4104,-3.5654,-3.6641,-3.6749,-3.4948,0.0,0.0,0.0,-3.2053,-3.2537,-3.3003,-3.225,-3.2353,0.0,0.0,0.0,0.0,0.0,0.0,0.0,0.0,0.0,0.0,0.0,0.0,0.0,0.0,0.0,0.0,-3.8193,-3.7331,-3.6541,-3.645,-3.645,-3.6523,-3.6376,-3.5936,-3.521,-3.4412,-3.3632,-3.2849,-3.2279,-3.1989,-3.192,-3.1337,0.0,0.0,-3.049,-2.9748,-2.9198,-2.9121,-2.8082,-2.6601,-2.6601,-2.61,-2.5398,-2.5391,-2.5428,-2.5473,-2.5498,-2.5453,-2.5401,-2.5488,-2.5547,-2.5598,-2.5603,-2.556,-2.5493,-2.5493,-2.5406,-2.5253,-2.5046,-2.4504,-2.4044,-2.4007,-2.337,-2.2772,-2.2721,-2.2158,-2.1836,-2.2237,-2.1957,-2.1538,-2.115,-2.1399,-2.1321,-2.0501,-2.0748,-2.083,-2.0456,-2.0424,-2.0751,-2.1497,-2.0413,-1.9866,-2.0153,-1.9426,-1.8786,-1.8285,-1.7733,-1.7381,-1.7312,-1.6837,-1.6008,-1.488,-1.4789,-1.4201,-1.3162,-1.3017,-1.361,-3.3047,-3.3794,-3.4617,-3.582,-3.6274,-3.6185,-3.5116,0.0,0.0,-3.2768,-3.3064,-3.3616,-3.3125,-3.2703,-3.2672,0.0,0.0,0.0,0.0,0.0,0.0,0.0,0.0,0.0,0.0,0.0,0.0,0.0,0.0,0.0,0.0,-3.6266,-3.6194,-3.5884,-3.511,-3.5092,-3.5866,-3.4202,-3.364,-3.4266,-3.2776,-3.1991,-3.1843,-3.1162,-3.0845,-3.0808,-3.0105,0.0,0.0,-2.912,-2.8398,-2.7431,-2.755,-2.6871,-2.5832,-2.5832,-2.5637,-2.5406,-2.5398,-2.5441,-2.5517,-2.5551,-2.5547,-2.5535,-2.5554,-2.557,-2.5605,-2.5658,-2.5572,-2.5493,-2.5493,-2.5252,-2.4949,-2.4752,-2.4245,-2.3764,-2.3559,-2.3082,-2.266,-2.2473,-2.2215,-2.2077,-2.2282,-2.1899,-2.1552,-2.1399,-2.1039,-2.0585,-1.9974,-1.9814,-1.9534,-1.8979,-1.9672,-2.0107,-1.9871,-1.9343,-1.8994,-1.8846,-1.8257,-1.78,-1.7626,-1.7118,-1.6655,-1.6275,-1.6083,-1.5555,-1.4698,-1.4329,-1.392,-1.342,-1.3065,-1.3573,-3.2641,-3.4199,-3.5753,-3.6452,-3.6435,-3.6037,0.0,0.0,-3.4932,-3.2905,-3.3467,-3.4111,-3.3405,-3.3138,-3.2996,0.0,0.0,0.0,0.0,0.0,0.0,0.0,0.0,0.0,0.0,0.0,0.0,0.0,0.0,0.0,0.0,-3.4232,-3.4443,-3.4357,-3.3692,-3.3568,-3.4047,-3.2282,-3.1727,-3.2402,-3.1018,-3.0405,-3.0508,-2.968,-2.9381,-2.9457,0.0,0.0,0.0,-2.7952,-2.735,-2.632,-2.6529,-2.6082,-2.5293,-2.5312,-2.5379,-2.5428,-2.5453,-2.5489,-2.5564,-2.5597,-2.5602,-2.5602,-2.5585,-2.5584,-2.5603,-2.5663,-2.5567,-2.5477,-2.5447,-2.5128,-2.476,-2.4623,-2.4061,-2.35,-2.3236,-2.2865,-2.2527,-2.2349,-2.218,-2.2106,-2.2106,-2.1735,-2.1321,-2.1038,-2.0485,-1.9869,-1.9244,-1.8864,-1.8458,-1.7907,-1.8598,-1.8854,-1.8384,-1.8218,-1.7958,-1.7639,-1.7258,-1.698,-1.6786,-1.6441,-1.5964,-1.5365,-1.532,-1.505,-1.4422,-1.4003,-1.3732,-1.3505,-1.3113,-1.3573,-3.2822,-3.4997,-3.7529,-3.7809,-3.7497,-3.6713,0.0,0.0,-3.4932,-3.2905,-3.2991,-3.3559,-3.4097,-3.334,-3.2967,-3.4091,-3.4529,0.0,0.0,0.0,0.0,0.0,0.0,0.0,0.0,0.0,0.0,0.0,0.0,0.0,0.0,-3.2092,-3.1742,-3.1434,-3.2128,-3.1841,-3.0361,-3.104,-3.065,-2.9154,-2.9136,-2.8869,-2.8402,-2.7608,-2.7434,0.0,0.0,0.0,0.0,-2.7142,-2.6854,-2.632,-2.6529,-2.6082,-2.5303,-2.5368,-2.5447,-2.5517,-2.5567,-2.5637,-2.5683,-2.5611,-2.5603,-2.5595,-2.5511,-2.5551,-2.5603,-2.5603,-2.5493,-2.5391,-2.5322,-2.5037,-2.4804,-2.4804,-2.3988,-2.3189,-2.3189,-2.2738,-2.231,-2.231,-2.1928,-2.1628,-2.1628,-2.1275,-2.0682,-1.9748,-1.9606,-1.9244,-1.8249,-1.8106,-1.7907,-1.7394,-1.6773,-1.6663,-1.7179,-1.6799,-1.6484,-1.6434,-1.6484,-1.6238,-1.5632,-1.5632,-1.532,-1.4698,-1.4698,-1.4422,-1.3815,-1.3815,-1.3505,-1.2929,-1.2881,-1.3573,-3.2353,-3.4064,-3.5616,-3.5484,-3.4967,-3.4298,-3.3532,0.0,-3.3551,-3.2889,-3.3572,-3.4235,-3.4101,-3.3709,-3.3696,-3.4505,-3.4659,0.0,0.0,0.0,0.0,0.0,0.0,0.0,0.0,0.0,0.0,0.0,0.0,0.0,0.0,-3.1045,-3.0743,-3.0922,-3.0888,-3.0507,-2.9837,-2.8743,-2.8244,-2.8337,-2.7003,-2.6517,-2.682,-2.6567,0.0,0.0,0.0,0.0,0.0,-2.6251,-2.5952,-2.5294,-2.5603,-2.5572,-2.5368,-2.5398,-2.5463,-2.5567,-2.5598,-2.5637,-2.5683,-2.5611,-2.5601,-2.5595,-2.5531,-2.5503,-2.5511,-2.5482,-2.5434,-2.5348,-2.5146,-2.4962,-2.476,-2.4623,-2.3888,-2.3189,-2.3189,-2.2738,-2.231,-2.231,-2.1928,-2.1475,-2.11,-2.0505,-1.9818,-1.9141,-1.8783,-1.8313,-1.7626,-1.7544,-1.7203,-1.6232,-1.5971,-1.5915,-1.6077,-1.5576,-1.5242,-1.5219,-1.5242,-1.5377,-1.5588,-1.5588,-1.5499,-1.532,-1.532,-1.5005,-1.4422,-1.4003,-1.3505,-1.2929,-1.3752,-1.434,0.0,-3.3128,-3.4213,-3.4131,-3.3474,0.0,0.0,0.0,-3.2417,-3.2313,-3.3308,-3.4083,-3.3709,-3.3728,-3.4026,-3.4749,-3.478,0.0,0.0,0.0,0.0,0.0,0.0,0.0,0.0,0.0,0.0,0.0,0.0,0.0,0.0,0.0,-2.9952,-2.9626,-2.9683,-2.9153,-2.8113,-2.7181,-2.6681,-2.6656,-2.5455,-2.5185,-2.5722,-2.5517,0.0,0.0,0.0,0.0,0.0,-2.5375,-2.5261,-2.4832,-2.516,-2.5348,-2.5394,-2.5428,-2.5517,-2.5603,-2.5633,-2.5643,-2.5658,-2.5573,-2.5535,-2.5488,-2.5434,-2.5441,-2.5453,-2.5368,-2.5363,-2.5309,-2.505,-2.4904,-2.4746,-2.4561,-2.3828,-2.3189,-2.3189,-2.2738,-2.2254,-2.2077,-2.1642,-2.1084,-2.0457,-1.9758,-1.9067,-1.8349,-1.7999,-1.7585,-1.7076,-1.6799,-1.6446,-1.5996,-1.5543,-1.5365,-1.5588,-1.5276,-1.5062,-1.5062,-1.5242,-1.5332,-1.5276,-1.5499,-1.5398,-1.4949,-1.5141,-1.5062,-1.4698,-1.4097,-1.36,-1.3238,-1.4247,-1.4698,0.0,0.0,0.0,0.0,0.0,0.0,0.0,0.0,0.0,-3.1508,-3.2501,-3.3347,-3.3202,-3.3524,-3.4082,-3.4935,-3.4878,0.0,0.0,0.0,0.0,0.0,0.0,0.0,0.0,0.0,0.0,0.0,0.0,0.0,0.0,0.0,-2.9245,-2.7671,-2.8366,-2.774,-2.5625,-2.6184,-2.5778,-2.4438,-2.4388,-2.4577,-2.4955,-2.4444,0.0,0.0,0.0,0.0,0.0,-2.4639,-2.4804,-2.4832,-2.516,-2.5348,-2.5401,-2.5488,-2.5551,-2.5627,-2.5683,-2.5659,-2.5595,-2.5526,-2.5374,-2.5226,-2.5284,-2.5348,-2.5387,-2.5322,-2.5284,-2.5243,-2.5046,-2.4891,-2.4731,-2.451,-2.3826,-2.3189,-2.3141,-2.2669,-2.2106,-2.1582,-2.1084,-2.0442,-1.9626,-1.9067,-1.8373,-1.7381,-1.7229,-1.7076,-1.6552,-1.6008,-1.5864,-1.638,-1.5421,-1.5005,-1.5543,-1.5543,-1.5543,-1.5543,-1.6051,-1.5876,-1.4789,-1.532,-1.5084,-1.4003,-1.456,-1.4789,-1.4744,-1.419,-1.3909,-1.3862,-1.4468,-1.4789,-2.8726,0.0,-3.088,-3.0622,-3.077,0.0,0.0,0.0,0.0,0.0,0.0,0.0,0.0,-3.4301,-3.4284,-3.5752,0.0,0.0,0.0,0.0,0.0,0.0,0.0,0.0,0.0,0.0,0.0,0.0,0.0,0.0,0.0,0.0,-2.7637,-2.6167,-2.6302,-2.615,-2.5609,-2.4644,-2.3985,-2.3646,-2.3088,-2.3103,-2.364,-2.3512,0.0,0.0,0.0,0.0,-2.4228,-2.4639,-2.4804,-2.4832,-2.516,-2.536,-2.5488,-2.5484,-2.5567,-2.5683,-2.5683,-2.5659,-2.557,-2.5451,-2.4954,-2.4505,-2.512,-2.5303,-2.5322,-2.5293,-2.5192,-2.5046,-2.501,-2.4795,-2.4491,-2.4173,-2.3645,-2.3052,-2.2487,-2.2046,-2.1505,-2.0686,-2.0187,-1.9561,-1.8536,-1.7958,-1.745,-1.6795,-1.668,-1.6637,-1.6522,-1.638,-1.6194,-1.5864,-1.5543,-1.5454,-1.5588,-1.5186,-1.4926,-1.4926,-1.5017,-1.5197,-1.5365,-1.5543,-1.5676,-1.5876,-1.6008,-1.5832,-1.541,-1.5276,-1.496,-1.4514,-1.5096,-1.562,-2.7828,-2.9147,-3.0231,-3.0206,-3.0944,-3.1722,0.0,0.0,0.0,0.0,0.0,0.0,0.0,0.0,0.0,0.0,0.0,0.0,0.0,0.0,0.0,0.0,0.0,0.0,0.0,0.0,0.0,0.0,0.0,0.0,0.0,0.0,-2.7097,-2.5659,-2.527,-2.482,-2.426,-2.3691,-2.3119,-2.2571,-2.2394,-2.2544,-2.2972,-2.2972,-2.3236,0.0,0.0,0.0,-2.3998,-2.4458,-2.4716,-2.4832,-2.5072,-2.5297,-2.5493,-2.5493,-2.5573,-2.5703,-2.5703,-2.5634,-2.5461,-2.4967,-2.4741,-2.4736,-2.5168,-2.5243,-2.5163,-2.5163,-2.482,-2.4505,-2.4709,-2.4516,-2.4192,-2.3926,-2.3257,-2.2583,-2.2207,-2.1483,-2.0734,-2.0066,-1.933,-1.8603,-1.7813,-1.7244,-1.6837,-1.6552,-1.6522,-1.6522,-1.6522,-1.6238,-1.617,-1.6361,-1.6145,-1.6176,-1.6718,-1.6451,-1.6151,-1.5915,-1.5872,-1.5928,-1.5971,-1.5996,-1.6194,-1.6466,-1.6522,-1.6337,-1.6008,-1.5732,-1.541,-1.5096,-1.5454,-1.5884,-2.7861,-2.9597,-3.1064,-3.0851,-3.1968,-3.3096,0.0,0.0,0.0,0.0,0.0,0.0,0.0,0.0,0.0,0.0,0.0,0.0,0.0,0.0,0.0,0.0,0.0,0.0,0.0,0.0,0.0,0.0,0.0,0.0,0.0,0.0,0.0,-2.549,-2.4712,-2.3734,-2.2549,-2.3013,-2.271,-2.1718,-2.2106,-2.248,-2.2772,-2.2772,-2.2996,0.0,0.0,0.0,-2.3798,-2.4302,-2.4607,-2.4799,-2.4949,-2.5196,-2.5498,-2.5508,-2.557,-2.5683,-2.5663,-2.5503,-2.5196,-2.4516,-2.4562,-2.4937,-2.5033,-2.4854,-2.4636,-2.4721,-2.4334,-2.3992,-2.4321,-2.4192,-2.389,-2.3613,-2.2813,-2.2068,-2.1955,-2.1021,-2.0051,-1.9483,-1.8679,-1.7958,-1.7422,-1.6993,-1.6752,-1.6752,-1.668,-1.6637,-1.671,-1.6256,-1.6275,-1.7299,-1.6941,-1.7053,-1.8013,-1.8106,-1.7907,-1.7463,-1.7353,-1.705,-1.6446,-1.6497,-1.6522,-1.6522,-1.6522,-1.6522,-1.6522,-1.6008,-1.5732,-1.5732,-1.5732,-1.6058,-2.9593,-3.2326,-3.4145,-3.1057,-3.2017,-3.3578,0.0,0.0,0.0,0.0,0.0,0.0,0.0,0.0,0.0,0.0,0.0,0.0,0.0,0.0,0.0,0.0,0.0,0.0,0.0,0.0,0.0,0.0,0.0,0.0,0.0,0.0,-2.5558,-2.4709,-2.3934,-2.2996,-2.1793,-2.2228,-2.2383,-2.218,-2.2282,-2.2598,-2.3117,-2.3117,-2.3459,0.0,0.0,-2.4113,-2.4133,-2.4392,-2.4607,-2.4799,-2.4949,-2.5178,-2.5415,-2.5488,-2.5551,-2.5616,-2.5556,-2.5063,-2.454,-2.499,-2.4235,-2.3294,-2.3858,-2.3476,-2.2985,-2.3427,-2.3974,-2.434,-2.4137,-2.3926,-2.3592,-2.2996,-2.2478,-2.1927,-2.1305,-2.0699,-1.9889,-1.8584,-1.8559,-1.8444,-1.7463,-1.7626,-1.7867,-1.7867,-1.7463,-1.7353,-1.7787,-1.7381,-1.7299,-1.7907,-1.7894,-1.7894,-1.8106,-1.8106,-1.8066,-1.7987,-1.7544,-1.7063,-1.6497,-1.6509,-1.6522,-1.6522,-1.6522,-1.6522,-1.6522,-1.6423,-1.638,-1.638,-1.638,-1.6896,-2.9537,-3.2117,-3.4202,-3.3324,-3.5115,-3.704,0.0,0.0,0.0,0.0,0.0,0.0,0.0,0.0,0.0,0.0,0.0,0.0,0.0,0.0,0.0,0.0,0.0,0.0,0.0,0.0,0.0,0.0,0.0,0.0,0.0,0.0,-2.4661,-2.3917,-2.3579,-2.2933,-2.2003,-2.218,-2.2163,-2.1928,-2.218,-2.2624,-2.3189,-2.3021,-2.33,-2.3917,0.0,-2.3917,-2.3937,-2.4229,-2.4444,-2.4654,-2.4842,-2.5031,-2.5247,-2.5474,-2.5601,-2.5584,-2.5035,-2.489,-2.4929,-2.472,-2.412,-2.3544,-2.3741,-2.3446,-2.3043,-2.3015,-2.3286,-2.3584,-2.3779,-2.349,-2.3045,-2.2504,-2.1927,-2.135,-2.0748,-2.0058,-1.9346,-1.865,-1.8496,-1.8302,-1.7827,-1.7947,-1.8106,-1.8106,-1.7907,-1.7827,-1.8066,-1.7867,-1.7947,-1.8458,-1.82,-1.813,-1.8507,-1.8186,-1.7915,-1.7679,-1.7422,-1.7076,-1.6522,-1.6522,-1.6522,-1.6522,-1.6522,-1.6522,-1.6522,-1.6522,-1.6522,-1.6522,-1.6522,-1.6909,-2.9726,-3.188,-3.408,-3.5647,0.0,0.0,0.0,0.0,0.0,0.0,0.0,0.0,0.0,0.0,0.0,0.0,0.0,0.0,0.0,0.0,0.0,0.0,0.0,0.0,0.0,0.0,0.0,0.0,0.0,0.0,0.0,0.0,-2.3968,-2.341,-2.3224,-2.2897,-2.2388,-2.2321,-2.2106,-2.1764,-2.2186,-2.2686,-2.3189,-2.3021,-2.3277,-2.3816,-2.3816,-2.3816,-2.3837,-2.4134,-2.4393,-2.4591,-2.4771,-2.4989,-2.5224,-2.5488,-2.5633,-2.5585,-2.4833,-2.4987,-2.5371,-2.4623,-2.4217,-2.3986,-2.3801,-2.3587,-2.3334,-2.2849,-2.2773,-2.2928,-2.3365,-2.3093,-2.2574,-2.2113,-2.1549,-2.0991,-2.0416,-1.9743,-1.9177,-1.893,-1.865,-1.8419,-1.8302,-1.838,-1.8419,-1.8302,-1.8302,-1.8263,-1.8145,-1.8106,-1.8263,-1.865,-1.8134,-1.7833,-1.8087,-1.7609,-1.7166,-1.6718,-1.698,-1.6909,-1.6522,-1.6522,-1.6522,-1.6522,-1.6522,-1.6522,-1.6522,-1.6522,-1.6522,-1.6522,-1.6522,-1.6795,-3.1373,-3.3375,-3.5274,-3.6953,-3.7533,0.0,-3.8615,-3.812,0.0,0.0,0.0,0.0,0.0,0.0,0.0,0.0,0.0,0.0,0.0,0.0,0.0,0.0,0.0,0.0,0.0,0.0,0.0,0.0,0.0,0.0,0.0,0.0,0.0,-2.3393,-2.275,-2.2477,-2.2686,-2.2426,-2.2282,-2.2237,-2.2537,-2.2848,-2.3212,-2.35,-2.3816,-2.417,-2.417,-2.417,-2.419,-2.4393,-2.4591,-2.4804,-2.4924,-2.5187,-2.5479,-2.5493,-2.5595,-2.5663,-2.5473,-2.5454,-2.5468,-2.5271,-2.4568,-2.3786,-2.3581,-2.3393,-2.3114,-2.2641,-2.2837,-2.31,-2.2855,-2.2746,-2.2538,-2.1803,-2.1582,-2.1321,-2.0467,-2.0246,-1.9919,-1.9066,-1.9281,-1.9442,-1.893,-1.9244,-1.9406,-1.893,-1.8855,-1.865,-1.8185,-1.8106,-1.8106,-1.8145,-1.7612,-1.6824,-1.583,-1.5719,-1.5437,-1.4915,-1.592,-1.6552,-1.6522,-1.6522,-1.6522,-1.6522,-1.6522,-1.6522,-1.6522,-1.6522,-1.6522,-1.6522,-1.6522,-1.6795,-3.0103,-3.2898,-3.5527,-3.6157,-3.7308,0.0,0.0,0.0,0.0,0.0,0.0,0.0,0.0,0.0,0.0,0.0,0.0,0.0,0.0,0.0,0.0,0.0,0.0,0.0,0.0,0.0,0.0,0.0,0.0,0.0,0.0,0.0,0.0,-2.2733,-2.2462,-2.2426,-2.2695,-2.2599,-2.2669,-2.2857,-2.2764,-2.2996,-2.3522,-2.3649,-2.3896,-2.4209,-2.4321,-2.4393,-2.441,-2.4591,-2.4731,-2.4799,-2.4949,-2.5206,-2.5493,-2.5493,-2.5573,-2.5683,-2.5551,-2.5493,-2.5488,-2.5329,-2.4626,-2.3762,-2.3555,-2.3364,-2.3063,-2.238,-2.2673,-2.3117,-2.2797,-2.259,-2.2326,-2.1748,-2.1582,-2.143,-2.0846,-2.0516,-2.0212,-1.9849,-1.9717,-1.953,-1.9006,-1.908,-1.9006,-1.8496,-1.8419,-1.8341,-1.8145,-1.8106,-1.7973,-1.7572,-1.6338,-1.505,-1.391,-1.4172,-1.4288,-1.41,-1.4903,-1.5567,-1.5908,-1.5599,-1.5555,-1.5908,-1.5952,-1.5952,-1.5952,-1.6337,-1.6522,-1.6522,-1.6522,-1.6795,-2.9868,-3.2398,-3.481,0.0,0.0,0.0,0.0,0.0,0.0,0.0,0.0,0.0,0.0,0.0,0.0,0.0,0.0,0.0,0.0,0.0,0.0,0.0,0.0,0.0,0.0,0.0,0.0,0.0,0.0,0.0,0.0,0.0,0.0,0.0,-2.231,-2.2426,-2.2695,-2.2695,-2.28,-2.299,-2.2764,-2.3005,-2.3692,-2.3816,-2.4018,-2.4303,-2.4426,-2.4545,-2.4607,-2.4785,-2.4896,-2.4981,-2.5053,-2.526,-2.5493,-2.5493,-2.5573,-2.5683,-2.5551,-2.5493,-2.5488,-2.5329,-2.4798,-2.4155,-2.3971,-2.3757,-2.3469,-2.274,-2.2868,-2.3117,-2.2797,-2.25,-2.218,-2.1718,-2.1718,-2.1658,-2.1134,-2.0764,-2.0483,-2.0348,-1.9844,-1.9332,-1.8968,-1.8598,-1.8235,-1.7894,-1.784,-1.776,-1.7626,-1.7747,-1.7477,-1.6511,-1.5147,-1.388,-1.2925,-1.3201,-1.3453,-1.3453,-1.3862,-1.456,-1.5543,-1.5186,-1.5186,-1.5588,-1.5588,-1.5588,-1.5588,-1.6398,-1.6752,-1.6752,-1.6909,-1.7188,-3.1248,-3.2109,-3.3101,0.0,0.0,0.0,0.0,0.0,0.0,0.0,0.0,0.0,0.0,0.0,0.0,0.0,0.0,0.0,0.0,0.0,0.0,0.0,0.0,0.0,0.0,0.0,0.0,0.0,0.0,0.0,0.0,0.0,0.0,0.0,-2.231,-2.2426,-2.2695,-2.2695,-2.2634,-2.2499,-2.2499,-2.2896,-2.3696,-2.4018,-2.4303,-2.4458,-2.4493,-2.4588,-2.4799,-2.4937,-2.5111,-2.5303,-2.5303,-2.5376,-2.5489,-2.5489,-2.5573,-2.5683,-2.5551,-2.5493,-2.5488,-2.5329,-2.5163,-2.4974,-2.4842,-2.4654,-2.4391,-2.386,-2.3459,-2.3117,-2.2797,-2.25,-2.218,-2.1718,-2.1957,-2.2049,-2.1197,-2.1007,-2.0862,-2.0382,-1.9528,-1.8893,-1.8893,-1.7972,-1.7233,-1.7258,-1.7259,-1.704,-1.6552,-1.6951,-1.6604,-1.4869,-1.4143,-1.3552,-1.292,-1.2881,-1.2881,-1.2881,-1.2881,-1.3695,-1.5543,-1.5588,-1.5588,-1.5588,-1.5588,-1.5588,-1.5576,-1.6744,-1.7312,-1.7312,-1.7867,-1.8106,-3.0455,-3.2527,0.0,0.0,0.0,0.0,0.0,0.0,0.0,0.0,0.0,0.0,0.0,0.0,0.0,0.0,0.0,0.0,0.0,0.0,0.0,0.0,0.0,0.0,0.0,0.0,0.0,0.0,0.0,0.0,0.0,0.0,0.0,0.0,-2.231,-2.2426,-2.2695,-2.2373,-2.2309,-2.2499,-2.2171,-2.2136,-2.2356,-2.2483,-2.2536,-2.2604,-2.2854,-2.3314,-2.3944,-2.4847,-2.5253,-2.5303,-2.5303,-2.5346,-2.5441,-2.5473,-2.5554,-2.5619,-2.559,-2.5543,-2.5498,-2.5406,-2.5146,-2.4855,-2.4818,-2.4559,-2.421,-2.3798,-2.3628,-2.3459,-2.3141,-2.2815,-2.251,-2.2175,-2.2209,-2.2225,-2.1991,-2.1415,-2.0846,-2.0338,-1.9498,-1.865,-1.7907,-1.749,-1.7133,-1.6795,-1.6697,-1.6655,-1.6522,-1.6269,-1.5794,-1.5002,-1.3814,-1.2905,-1.2373,-1.2205,-1.2129,-1.2129,-1.3016,-1.3956,-1.4926,-1.4154,-1.4107,-1.4971,-1.4971,-1.4971,-1.4971,-1.6532,-1.7312,-1.7312,-1.7867,-1.8302,-3.1662,0.0,0.0,0.0,0.0,0.0,0.0,0.0,0.0,0.0,0.0,0.0,0.0,0.0,0.0,0.0,0.0,0.0,0.0,0.0,0.0,0.0,0.0,0.0,0.0,0.0,0.0,0.0,0.0,0.0,0.0,0.0,0.0,0.0,-2.231,-2.2388,-2.2537,-2.2066,-2.1829,-2.181,-2.1388,-2.1038,-2.0829,-2.1509,-2.1869,-2.2024,-2.2351,-2.2761,-2.3279,-2.4024,-2.4312,-2.4312,-2.4312,-2.4566,-2.4923,-2.5001,-2.504,-2.5082,-2.5071,-2.5047,-2.4968,-2.4911,-2.4869,-2.4883,-2.4818,-2.4559,-2.4247,-2.3978,-2.3795,-2.361,-2.33,-2.2947,-2.266,-2.25,-2.2388,-2.2254,-2.2061,-2.1321,-2.0536,-2.0066,-1.903,-1.8066,-1.7435,-1.6925,-1.66,-1.6509,-1.668,-1.6879,-1.7118,-1.6403,-1.5806,-1.5575,-1.4383,-1.3424,-1.3155,-1.3007,-1.2966,-1.2966,-1.37,-1.4503,-1.5353,-1.4236,-1.4061,-1.5062,-1.5264,-1.5398,-1.5398,-1.7094,-1.8052,-1.8221,-1.8559,-1.8977,-3.3886,0.0,0.0,0.0,0.0,0.0,0.0,0.0,0.0,0.0,0.0,0.0,0.0,0.0,0.0,0.0,0.0,0.0,0.0,0.0,0.0,0.0,0.0,0.0,0.0,0.0,0.0,0.0,0.0,0.0,0.0,0.0,0.0,0.0,-2.231,-2.231,-2.231,-2.185,-2.133,0.0,-2.0404,-1.988,-1.9329,-2.0884,-2.177,-2.2111,-2.2508,-2.2669,-2.2677,-2.2774,-2.2793,-2.2793,-2.2793,-2.3331,-2.4083,-2.4151,-2.4183,-2.42,-2.4273,-2.4268,-2.4204,-2.4199,-2.4543,-2.4949,-2.4814,-2.4623,-2.4426,-2.4266,-2.3976,-2.3671,-2.3346,-2.2996,-2.2721,-2.2652,-2.2446,-2.2106,-2.1642,-2.0799,-2.0001,-1.9555,-1.8285,-1.7271,-1.7229,-1.6403,-1.594,-1.6552,-1.7076,-1.7544,-1.8027,-1.7177,-1.6549,-1.6549,-1.5564,-1.4915,-1.4915,-1.4869,-1.4869,-1.4869,-1.4892,-1.5407,-1.6481,-1.5386,-1.5096,-1.5752,-1.628,-1.6494,-1.6464,-1.8168,-1.9236,-1.9606,-1.9752,-2.0,0.0,0.0,0.0,0.0,0.0,0.0,0.0,0.0,0.0,0.0,0.0,0.0,0.0,0.0,0.0,0.0,0.0,0.0,0.0,0.0,0.0,0.0,0.0,0.0,0.0,0.0,0.0,0.0,0.0,0.0,0.0,0.0,0.0,-2.231,-2.231,-2.231,-2.231,-2.2034,-2.1441,0.0,-2.0443,-1.9949,-1.9104,-1.9767,-2.0232,-2.0534,-2.1281,-2.1675,-2.1831,-2.2524,-2.2793,-2.2793,-2.2793,-2.2926,-2.311,-2.3231,-2.3279,-2.338,-2.412,-2.4291,-2.4282,-2.4794,-2.4917,-2.4814,-2.4623,-2.4409,-2.4266,-2.4209,-2.4151,-2.4016,-2.3671,-2.3346,-2.2954,-2.2371,-2.196,-2.1612,-2.1083,-2.0307,-1.9468,-1.8513,-1.7773,-1.7146,-1.6752,-1.6824,-1.7133,-1.7666,-1.7867,-1.7987,-1.8106,-1.7894,-1.772,-1.772,-1.7109,-1.6667,-1.6667,-1.6206,-1.5979,-1.5979,-1.6262,-1.6751,-1.745,-1.6083,-1.5823,-1.6847,-1.7276,-1.7344,-1.7014,-1.8957,-1.9823,-1.9621,-2.0382,-2.0565,0.0,0.0,0.0,0.0,0.0,0.0,0.0,0.0,0.0,0.0,0.0,0.0,0.0,0.0,0.0,0.0,0.0,0.0,0.0,0.0,0.0,0.0,0.0,0.0,0.0,0.0,0.0,0.0,0.0,0.0,0.0,-2.2919,-2.231,-2.231,-2.231,-2.231,-2.231,-2.1464,-2.0888,-2.0563,-1.9914,-1.9514,-1.9387,-1.9599,-1.9821,-2.0031,-2.0584,-2.0849,-2.0966,-2.1427,-2.16,-2.16,-2.16,-2.1831,-2.2183,-2.2333,-2.2375,-2.2508,-2.3457,-2.3717,-2.3733,-2.4439,-2.4732,-2.4775,-2.467,-2.4445,-2.4116,-2.3731,-2.3639,-2.3435,-2.2584,-2.2224,-2.2042,-2.1727,-2.1433,-2.1022,-2.0374,-1.9495,-1.8603,-1.7813,-1.7244,-1.6909,-1.6879,-1.7353,-1.7933,-1.8684,-1.8636,-1.875,-1.9411,-1.9082,-1.8896,-1.909,-1.8569,-1.8236,-1.8236,-1.7963,-1.7765,-1.7765,-1.7688,-1.8003,-1.8899,-1.8218,-1.7977,-1.8236,-1.8722,-1.8833,-1.8631,-1.9951,-2.0553,-2.0569,-2.0634,-2.0649,0.0,0.0,0.0,0.0,0.0,0.0,0.0,0.0,0.0,0.0,0.0,0.0,0.0,0.0,0.0,0.0,0.0,0.0,0.0,0.0,0.0,0.0,0.0,0.0,0.0,0.0,0.0,0.0,0.0,0.0,-2.3393,-2.2739,-2.2349,-2.231,-2.2388,-2.2405,-2.231,-2.1046,-2.0511,-2.0701,-1.9328,-1.9077,-1.979,-1.979,-1.989,-2.0069,-2.0233,-2.0312,-2.0312,-2.0312,-2.0312,-2.0312,-2.0312,-2.0704,-2.1301,-2.1425,-2.1488,-2.1627,-2.2555,-2.2838,-2.2911,-2.3772,-2.4319,-2.4643,-2.4747,-2.4452,-2.3916,-2.3235,-2.2941,-2.2502,-2.1233,-2.0976,-2.1105,-2.1096,-2.096,-2.0606,-1.9858,-1.8829,-1.7918,-1.749,-1.7076,-1.6925,-1.7397,-1.797,-1.8655,-1.9527,-1.9417,-1.9692,-2.0862,-2.0369,-2.0032,-2.0322,-2.0011,-1.9794,-1.9756,-1.9756,-1.9756,-1.9756,-1.923,-1.9368,-2.0391,-2.0618,-2.0454,-1.9909,-2.0242,-2.0423,-2.0356,-2.0927,-2.1323,-2.1491,-2.083,-2.0649,0.0,0.0,0.0,0.0,0.0,0.0,0.0,0.0,0.0,0.0,0.0,0.0,0.0,0.0,0.0,0.0,0.0,0.0,0.0,0.0,0.0,0.0,0.0,0.0,0.0,0.0,0.0,0.0,0.0,0.0,-2.3359,-2.2922,-2.2537,-2.231,-2.2798,-2.2824,-2.231,-2.2212,-2.16,-2.0443,-1.9425,-1.9256,-1.979,-1.979,-1.9981,-2.0249,-2.0285,-2.0312,-2.0312,-2.0312,-2.0312,-2.0312,-2.0312,-2.0364,-2.0481,-2.0541,-2.061,-2.0783,-2.1674,-2.1929,-2.209,-2.3474,-2.3936,-2.4043,-2.462,-2.4151,-2.3401,-2.3289,-2.2637,-2.1789,-2.109,-2.1361,-2.1622,-2.0782,-2.0689,-2.067,-2.0239,-1.9053,-1.8052,-1.8027,-1.7947,-1.7951,-1.8209,-1.8897,-1.9481,-1.9798,-2.0336,-2.0781,-2.0959,-2.1148,-2.1147,-2.0943,-2.1294,-2.1466,-2.1236,-2.1222,-2.1222,-2.1222,-2.1079,-2.1111,-2.1397,-2.1823,-2.2003,-2.1911,-2.1565,-2.1243,-2.091,-2.1721,-2.1751,-2.1086,-2.1337,-2.107,0.0,0.0,0.0,0.0,0.0,0.0,0.0,0.0,0.0,0.0,0.0,0.0,0.0,0.0,0.0,0.0,0.0,0.0,0.0,0.0,0.0,0.0,0.0,0.0,0.0,0.0,0.0,0.0,0.0,-2.2446,-2.2767,-2.2735,-2.2634,-2.2527,-2.2965,-2.3063,-2.2798,-2.202,-2.0924,-1.9613,-1.9307,-1.939,-1.979,-1.979,-1.9991,-2.0312,-2.0312,-2.0312,-2.0292,-2.0294,-2.0295,-2.0295,-2.0346,-2.0366,-2.0357,-2.0432,-2.0449,-2.0565,-2.1438,-2.171,-2.1828,-2.294,-2.3179,-2.3126,-2.3417,-2.306,-2.2486,-2.2036,-2.1491,-2.0984,-2.0604,-2.0299,-2.0275,-2.096,-2.0533,-2.0192,-2.0829,-1.9672,-1.8478,-1.8478,-1.8745,-1.9031,-1.9345,-1.995,-2.049,-2.0792,-2.0925,-2.1228,-2.1869,-2.1881,-2.195,-2.2201,-2.2461,-2.2496,-2.2201,-2.2163,-2.2096,-2.1953,-2.1907,-2.1924,-2.2003,-2.172,-2.1674,-2.1899,-2.1957,-2.1764,-2.1337,-2.1735,-2.1598,-2.0991,-2.091,-2.0667,0.0,0.0,0.0,0.0,0.0,0.0,0.0,0.0,0.0,0.0,0.0,0.0,0.0,0.0,0.0,0.0,0.0,0.0,0.0,0.0,0.0,0.0,0.0,0.0,0.0,0.0,0.0,0.0,0.0,-2.2321,-2.2415,-2.2678,-2.2822,-2.2822,-2.3236,-2.3369,-2.3189,-2.1754,-2.0346,-1.9086,-1.9292,-1.9532,-1.979,-1.9836,-2.0021,-2.0292,-2.0296,-2.0311,-2.0299,-2.0326,-2.0341,-2.0327,-2.0374,-2.0418,-2.0432,-2.048,-2.0465,-2.0523,-2.1153,-2.1337,-2.1398,-2.2211,-2.2384,-2.2284,-2.2524,-2.2217,-2.169,-2.1059,-2.0734,-2.048,-2.001,-1.9739,-1.9879,-2.1016,-2.0739,-2.0401,-2.1091,-2.0239,-1.933,-1.917,-1.9576,-2.0035,-2.0253,-2.0751,-2.1241,-2.1553,-2.1493,-2.174,-2.2574,-2.2504,-2.253,-2.294,-2.3111,-2.3069,-2.2721,-2.2695,-2.2556,-2.226,-2.213,-2.2044,-2.1974,-2.1262,-2.1077,-2.143,-2.1781,-2.1811,-2.143,-2.143,-2.126,-2.0877,-2.0499,-2.0246,0.0,0.0,0.0,0.0,0.0,0.0,0.0,0.0,0.0,0.0,0.0,0.0,0.0,0.0,0.0,0.0,0.0,0.0,0.0,0.0,0.0,0.0,0.0,0.0,0.0,0.0,0.0,0.0,0.0,-2.2398,-2.2686,-2.2996,-2.3165,-2.3165,-2.3816,-2.3837,-2.3212,-2.1903,-2.0608,-1.9289,-1.9485,-1.9656,-1.9802,-1.9943,-2.0106,-2.0292,-2.0308,-2.0301,-2.0307,-2.0361,-2.0387,-2.0406,-2.0406,-2.0438,-2.0506,-2.0508,-2.0507,-2.0486,-2.0467,-2.043,-2.0508,-2.1305,-2.1554,-2.1707,-2.2534,-2.2106,-2.1295,-2.1133,-2.0926,-2.0522,-1.9373,-2.0678,-2.1992,-2.0761,-2.152,-2.2099,-2.059,-2.0602,-2.0732,-2.0221,-2.0569,-2.083,-2.0544,-2.1092,-2.157,-2.1592,-2.2194,-2.2626,-2.2695,-2.2972,-2.294,-2.2388,-2.2857,-2.3069,-2.2721,-2.2695,-2.2521,-2.2124,-2.1674,-2.1348,-2.1086,-2.0783,-2.0751,-2.1023,-2.1071,-2.1071,-2.1023,-2.1023,-2.0893,-2.0621,-2.041,-2.0089,0.0,0.0,0.0,0.0,0.0,0.0,0.0,0.0,0.0,0.0,0.0,0.0,0.0,0.0,0.0,0.0,0.0,0.0,0.0,0.0,0.0,0.0,0.0,0.0,0.0,0.0,0.0,0.0,0.0,0.0,-2.2695,-2.3021,-2.33,-2.3522,-2.3958,-2.36,-2.2312,-2.128,-2.0273,-1.9305,-1.9499,-1.9669,-1.9802,-1.9943,-2.0115,-2.0292,-2.0296,-2.0307,-2.0319,-2.0422,-2.0453,-2.0475,-2.0511,-2.0526,-2.0506,-2.0506,-2.0443,-2.0361,-2.0337,-2.032,-2.0357,-2.0646,-2.0735,-2.0792,-2.11,-2.0851,-2.044,-2.0301,-2.0514,-2.066,-2.0104,-2.0354,-2.0661,-2.0237,-2.1318,-2.2281,-2.1685,-2.1275,-2.1023,-2.1101,-2.1243,-2.1456,-2.1607,-2.2023,-2.2255,-2.2078,-2.2427,-2.2695,-2.2695,-2.2797,-2.2873,-2.2883,-2.3063,-2.3069,-2.2721,-2.2451,-2.2152,-2.1786,-2.0781,-2.0269,-2.0471,-1.9706,-1.9569,-2.0097,-2.04,-2.0698,-2.0991,-2.0815,-2.0686,-2.0588,-2.0508,-2.0195,0.0,0.0,0.0,0.0,0.0,0.0,0.0,0.0,0.0,0.0,0.0,0.0,0.0,0.0,0.0,0.0,0.0,0.0,0.0,0.0,0.0,0.0,0.0,0.0,0.0,0.0,0.0,0.0,0.0,0.0,-2.3021,-2.3253,-2.3522,-2.3876,-2.4094,-2.3419,-2.1821,-2.1283,-2.0468,-1.9394,-1.9625,-1.9786,-1.9869,-2.0031,-2.0169,-2.03,-2.032,-2.0327,-2.0337,-2.0447,-2.0513,-2.054,-2.0566,-2.054,-2.0506,-2.0477,-2.0406,-2.0307,-2.0307,-2.0295,-2.0312,-2.0312,-2.0312,-2.0312,-2.0312,-2.0161,-1.9964,-1.9836,-2.0482,-2.1087,-2.0623,-2.0517,-2.0604,-2.0855,-2.163,-2.231,-2.231,-2.1857,-2.1524,-2.1764,-2.1823,-2.1928,-2.2254,-2.2436,-2.2537,-2.2436,-2.2573,-2.2695,-2.2695,-2.2695,-2.2678,-2.2678,-2.2797,-2.273,-2.2309,-2.2202,-2.1804,-2.0959,-2.0011,-1.9582,-1.9773,-1.9066,-1.9,-1.9607,-1.9936,-2.0395,-2.1014,-2.0719,-2.0512,-2.0321,-2.0687,-2.067,0.0,0.0,0.0,0.0,0.0,0.0,0.0,0.0,0.0,0.0,0.0,0.0,0.0,0.0,0.0,0.0,0.0,0.0,0.0,0.0,0.0,0.0,0.0,0.0,0.0,0.0,0.0,0.0,0.0,-2.3346,-2.3671,-2.3692,-2.3858,-2.419,-2.4171,-2.34,-2.1858,-2.1914,-2.1187,-1.9633,-1.9869,-1.9993,-2.0012,-2.0205,-2.0292,-2.0308,-2.0376,-2.0391,-2.0414,-2.0477,-2.054,-2.0586,-2.0536,-2.0506,-2.0482,-2.0425,-2.0366,-2.0307,-2.0307,-2.0288,-2.0312,-2.0312,-2.0312,-2.0304,-2.0285,-2.0152,-1.9964,-1.9824,-2.0843,-2.1739,-2.0754,-2.1216,-2.2078,-2.2503,-2.2422,-2.2276,-2.231,-2.231,-2.231,-2.231,-2.231,-2.231,-2.231,-2.231,-2.2415,-2.266,-2.2695,-2.2669,-2.2669,-2.2626,-2.2361,-2.1642,-2.1957,-2.1982,-2.1424,-2.1891,-2.1453,-1.9591,-1.9472,-1.9269,-1.8907,-1.8893,-1.9134,-1.9672,-1.9725,-2.0146,-2.0961,-2.0712,-2.0305,-1.9782,-2.0911,-2.1485,-2.8876,0.0,0.0,0.0,0.0,0.0,0.0,0.0,0.0,0.0,0.0,0.0,0.0,0.0,0.0,0.0,0.0,0.0,0.0,0.0,0.0,0.0,0.0,0.0,0.0,0.0,0.0,0.0,-2.3021,-2.3236,-2.3346,-2.3795,-2.4094,-2.4208,-2.3639,-2.3125,-2.2666,-2.1652,-2.0923,-2.0471,-2.0153,-1.9993,-2.0022,-2.0207,-2.0296,-2.0302,-2.0376,-2.0429,-2.0477,-2.0541,-2.0547,-2.0536,-2.051,-2.0438,-2.0347,-2.0327,-2.0314,-2.0292,-2.0292,-2.0296,-2.0312,-2.0312,-2.0312,-2.0277,-2.0124,-2.0041,-1.9944,-1.9713,-2.0369,-2.0967,-2.0192,-2.0417,-2.0841,-2.0755,-2.1138,-2.1651,-2.2192,-2.231,-2.231,-2.231,-2.231,-2.231,-2.231,-2.2463,-2.2537,-2.2426,-2.2313,-2.2197,-2.1931,-2.1315,-2.0799,-2.062,-2.0376,-2.0351,-2.064,-2.0421,-2.0053,-1.945,-1.8613,-1.8271,-1.868,-1.8793,-1.8848,-1.8886,-2.0257,-2.0635,-2.0063,-1.998,-2.0508,-2.1585,-2.1893,-2.2076,0.0,0.0,0.0,0.0,0.0,0.0,-2.7805,-2.7946,0.0,0.0,0.0,0.0,0.0,0.0,0.0,0.0,0.0,0.0,0.0,0.0,0.0,0.0,0.0,0.0,0.0,0.0,0.0,-2.2764,-2.3021,-2.3259,-2.3392,-2.3917,-2.419,-2.419,-2.3749,-2.3345,-2.2997,-2.1934,-2.1209,-2.088,-2.0371,-2.0131,-2.0134,-2.0624,-2.0659,-2.0381,-2.0791,-2.0804,-2.051,-2.0565,-2.0585,-2.0539,-2.048,-2.0418,-2.0346,-2.0302,-2.0299,-2.0312,-2.0312,-2.0312,-2.0312,-2.0312,-2.0312,-2.0249,-2.0069,-1.9954,-1.988,-1.9656,-2.0285,-2.0858,-2.0256,-2.0493,-2.0739,-2.0128,-2.0245,-2.0602,-2.1038,-2.1233,-2.152,-2.2186,-2.231,-2.231,-2.231,-2.2281,-2.2175,-2.2015,-2.179,-2.1486,-2.1085,-2.0555,-1.9955,-1.9269,-1.9319,-1.9411,-1.9447,-1.9459,-1.9085,-1.8261,-1.7935,-1.7923,-1.8177,-1.8521,-1.8986,-1.9588,-2.0331,-2.0988,-2.1576,-2.1036,-2.1302,-2.2285,-2.194,-2.186,0.0,0.0,0.0,0.0,0.0,0.0,-2.842,-2.8373,-2.8103,0.0,0.0,0.0,0.0,0.0,0.0,0.0,0.0,0.0,0.0,0.0,0.0,0.0,0.0,0.0,0.0,-2.3755,-2.3552,-2.2764,-2.3021,-2.3346,-2.3692,-2.4016,-2.419,-2.419,-2.419,-2.3859,-2.3144,-2.251,-2.1832,-2.1124,-2.0575,-2.0299,-2.0332,-2.1105,-2.109,-2.046,-2.1301,-2.1235,-2.0513,-2.0585,-2.0605,-2.0585,-2.0467,-2.0469,-2.0502,-2.0372,-2.0358,-2.0427,-2.0331,-2.0312,-2.0312,-2.0312,-2.0285,-2.0233,-2.0041,-1.989,-1.975,-1.9582,-2.029,-2.099,-2.0393,-2.0772,-2.1049,-2.0094,-1.962,-1.9409,-1.9475,-1.9695,-2.0286,-2.168,-2.2062,-2.2152,-2.2152,-2.1744,-2.1423,-2.1428,-2.0974,-2.0459,-1.9989,-1.9802,-1.9125,-1.7699,-1.8394,-1.8669,-1.7963,-1.8642,-1.8337,-1.6599,-1.7626,-1.8124,-1.7861,-1.831,-1.926,-2.0831,-2.0299,-2.1292,-2.3999,-2.2652,-2.207,-2.2136,-2.1239,-2.1045,0.0,0.0,0.0,0.0,0.0,0.0,-2.8471,-2.8149,-2.7775,0.0,0.0,0.0,0.0,0.0,0.0,0.0,0.0,0.0,0.0,0.0,0.0,0.0,0.0,0.0,0.0,-2.4216,-2.3552,-2.2764,-2.3021,-2.3346,-2.3692,-2.4016,-2.419,-2.419,-2.419,-2.4116,-2.3969,-2.279,-2.212,-2.1945,-2.0833,-2.0299,-2.0313,-2.0527,-2.0577,-2.0482,-2.0737,-2.0741,-2.0585,-2.0586,-2.0565,-2.0513,-2.0484,-2.0846,-2.1274,-2.0566,-2.0706,-2.1177,-2.0523,-2.0312,-2.0312,-2.0312,-2.0197,-2.0022,-1.988,-1.975,-1.9582,-1.9214,-1.956,-1.9805,-1.8899,-1.9035,-1.9379,-1.9171,-1.8851,-1.8788,-1.9376,-1.9344,-1.9292,-1.9581,-2.0527,-2.126,-2.126,-2.0713,-2.035,-2.0443,-1.9262,-1.8323,-1.8257,-1.7169,-1.6283,-1.5967,-1.6058,-1.6305,-1.6785,-1.6948,-1.6915,-1.6525,-1.8342,-1.9352,-1.9313,-1.8579,-1.8738,-1.9924,-2.1141,-2.207,-2.2668,-2.0998,-2.0572,-2.1222,-2.0242,-2.0042,0.0,0.0,0.0,-2.9085,0.0,0.0,0.0,-2.826,-2.8237,0.0,0.0,0.0,0.0,0.0,0.0,0.0,0.0,0.0,0.0,0.0,0.0,0.0,0.0,0.0,0.0,-2.2688,-2.2362,-2.2164,-2.2805,-2.3259,-2.3437,-2.3917,-2.419,-2.419,-2.419,-2.4247,-2.4339,-2.2911,-2.2248,-2.2331,-2.0957,-2.0299,-2.0332,-2.1264,-2.1257,-2.0549,-2.1443,-2.1367,-2.0605,-2.0605,-2.0585,-2.058,-2.0982,-2.1351,-2.1598,-2.1125,-2.1171,-2.1389,-2.0581,-2.0312,-2.0312,-2.0312,-2.0161,-1.9964,-1.9836,-1.9572,-1.923,-1.8896,-1.9133,-1.9272,-1.8267,-1.845,-1.8785,-1.8232,-1.784,-1.7659,-1.7856,-1.7713,-1.7562,-1.7562,-1.8216,-1.8951,-1.9578,-1.9077,-1.8588,-1.8631,-1.7755,-1.6834,-1.6296,-1.5508,-1.4778,-1.4163,-1.4433,-1.4686,-1.4688,-1.5823,-1.6976,-1.8004,-1.912,-1.9719,-1.9716,-1.9179,-1.9573,-2.0971,-2.1007,-2.1006,-2.1002,-1.9049,-1.8594,-1.9546,-1.9587,-1.9677,0.0,0.0,0.0,0.0,0.0,-2.881,0.0,0.0,0.0,-2.7779,0.0,0.0,0.0,0.0,0.0,0.0,0.0,0.0,0.0,0.0,0.0,0.0,0.0,0.0,0.0,-2.1279,-2.1295,-2.1568,-2.2588,-2.3186,-2.3206,-2.3774,-2.4113,-2.419,-2.419,-2.4303,-2.4495,-2.297,-2.23,-2.2479,-2.1166,-2.0453,-2.0352,-2.2008,-2.1922,-2.0588,-2.1991,-2.1855,-2.0605,-2.0605,-2.0586,-2.0643,-2.1297,-2.1617,-2.1662,-2.1432,-2.141,-2.1389,-2.0581,-2.0277,-2.0241,-2.0241,-2.006,-1.982,-1.9688,-1.9313,-1.8878,-1.8585,-1.8787,-1.8883,-1.8014,-1.8251,-1.8451,-1.7524,-1.7052,-1.6712,-1.6367,-1.6159,-1.6042,-1.5912,-1.6022,-1.659,-1.7956,-1.7391,-1.6882,-1.7176,-1.6461,-1.5522,-1.4383,-1.3949,-1.344,-1.257,-1.3273,-1.3549,-1.295,-1.5128,-1.7402,-1.9566,-1.9695,-1.9694,-1.969,-1.9687,-2.0165,-2.1139,-1.9798,-1.9067,-1.9093,-1.6873,-1.6476,-1.7811,-1.8892,-1.9225,0.0,0.0,0.0,0.0,-2.8994,0.0,0.0,0.0,-2.7761,-2.7137,0.0,0.0,0.0,0.0,0.0,0.0,0.0,0.0,0.0,0.0,0.0,0.0,0.0,0.0,0.0,0.0,-2.1794,-2.1601,-2.2547,-2.3138,-2.32,-2.3544,-2.3896,-2.419,-2.419,-2.4303,-2.4495,-2.297,-2.23,-2.2498,-2.1722,-2.0993,-2.0332,-2.1371,-2.1347,-2.051,-2.0779,-2.0781,-2.0605,-2.0605,-2.0564,-2.0511,-2.0607,-2.109,-2.1599,-2.0762,-2.0894,-2.1389,-2.0581,-2.0169,-2.0031,-2.0031,-1.9698,-1.9276,-1.9132,-1.8878,-1.8585,-1.833,-1.8281,-1.8228,-1.7895,-1.7862,-1.7828,-1.7384,-1.7052,-1.6712,-1.6367,-1.6144,-1.5834,-1.532,-1.5062,-1.5456,-1.7146,-1.6466,-1.6096,-1.7369,-1.5668,-1.3925,-1.302,-1.1916,-1.1344,-1.1604,-1.2452,-1.3002,-1.2906,-1.5109,-1.741,-1.9552,-1.9708,-1.972,-1.969,-1.9687,-1.8897,-1.7176,-1.6976,-1.6852,-1.6874,-1.4451,-1.4461,-1.6692,-1.7774,-1.7709,0.0,0.0,0.0,0.0,0.0,0.0,0.0,0.0,-2.8287,0.0,0.0,0.0,0.0,0.0,0.0,0.0,0.0,0.0,0.0,0.0,0.0,0.0,0.0,0.0,0.0,0.0,0.0,0.0,0.0,-2.314,-2.32,-2.3522,-2.3837,-2.419,-2.4321,-2.4461,-2.467,-2.3655,-2.2981,-2.2671,-2.2382,-2.1567,-2.0352,-2.1764,-2.1672,-2.0461,-2.106,-2.1033,-2.0605,-2.0605,-2.0563,-2.0506,-2.0467,-2.0932,-2.1588,-2.1202,-2.1193,-2.1273,-2.043,-2.0022,-1.9839,-1.9613,-1.9383,-1.9154,-1.886,-1.8566,-1.8351,-1.8229,-1.81,-1.7949,-1.7833,-1.7658,-1.7432,-1.7076,-1.704,-1.6915,-1.6278,-1.59,-1.5529,-1.4982,-1.4324,-1.4082,-1.4838,-1.4524,-1.4362,-1.496,-1.4117,-1.3282,-1.2939,-1.1652,-1.0589,-0.9969,-1.0279,-1.1732,-1.4722,-1.5911,-1.7397,-1.9574,-1.9693,-1.9706,-1.9702,-1.9697,-1.9277,-1.8366,-1.7136,-1.6506,-1.6509,-1.5463,-1.5508,-1.6477,-1.5538,-1.5568,-2.8906,0.0,0.0,0.0,0.0,0.0,0.0,0.0,0.0,0.0,0.0,0.0,0.0,0.0,0.0,0.0,0.0,0.0,0.0,0.0,0.0,0.0,0.0,0.0,0.0,0.0,0.0,0.0,-2.2312,-2.3076,-2.3038,-2.3374,-2.3777,-2.4266,-2.4409,-2.4623,-2.4855,-2.4157,-2.3577,-2.3148,-2.2908,-2.2043,-2.0677,-2.1965,-2.1743,-2.0409,-2.1135,-2.1103,-2.0565,-2.0586,-2.0542,-2.0472,-2.0425,-2.072,-2.115,-2.1164,-2.1073,-2.0842,-2.0172,-1.9817,-1.9569,-1.9246,-1.9043,-1.8875,-1.8586,-1.8429,-1.8392,-1.8392,-1.841,-1.8397,-1.8397,-1.815,-1.7789,-1.7454,-1.7371,-1.7167,-1.6413,-1.5977,-1.5562,-1.5025,-1.4305,-1.3742,-1.3548,-1.3323,-1.3202,-1.3258,-1.3158,-1.2748,-1.194,-1.1554,-1.0706,-0.8997,-0.9491,-1.1686,-1.6154,-1.7029,-1.8232,-2.0273,-2.0409,-2.0414,-2.042,-1.9955,-1.9682,-1.9693,-1.8186,-1.7397,-1.7395,-1.7395,-1.7392,-1.7331,-1.5,-1.4844,0.0,0.0,0.0,-2.8026,0.0,0.0,0.0,0.0,-2.7429,0.0,0.0,0.0,0.0,0.0,0.0,0.0,0.0,0.0,0.0,0.0,0.0,0.0,0.0,0.0,0.0,0.0,0.0,-2.1363,-2.2355,-2.29,-2.2635,-2.301,-2.3617,-2.4459,-2.4495,-2.4666,-2.4998,-2.4198,-2.3894,-2.4052,-2.3206,-2.2331,-2.1466,-2.1584,-2.1139,-2.0305,-2.0477,-2.0527,-2.0511,-2.0565,-2.0515,-2.0391,-2.041,-2.025,-2.0041,-2.0041,-2.006,-2.0031,-1.9847,-1.9543,-1.9201,-1.9049,-1.866,-1.8229,-1.8208,-1.8533,-1.8883,-1.8883,-1.9384,-1.9934,-1.9934,-1.9617,-1.9252,-1.8901,-1.8161,-1.7385,-1.6963,-1.6541,-1.6114,-1.5563,-1.5394,-1.5042,-1.4121,-1.3548,-1.3247,-1.3368,-1.3263,-1.2168,-0.9305,-1.1195,-1.1805,-0.9082,-1.1183,-1.3782,-1.6305,-1.8394,-2.0358,-2.2102,-2.2231,-2.2215,-2.2231,-2.0591,-1.9713,-1.971,-1.9645,-1.9596,-1.9606,-1.9606,-1.9617,-1.9538,-1.7408,-1.6454,0.0,0.0,-2.8704,-2.7457,0.0,0.0,0.0,0.0,0.0,0.0,0.0,0.0,0.0,0.0,0.0,0.0,0.0,0.0,0.0,0.0,0.0,0.0,0.0,0.0,0.0,0.0,0.0,-2.1327,-2.1944,-2.2393,0.0,-2.2968,-2.3599,-2.4459,-2.4623,-2.4814,-2.501,-2.4854,-2.4562,-2.411,-2.3802,-2.2932,-2.1564,-2.1591,-2.1172,-2.0435,-2.048,-2.0536,-2.0565,-2.0544,-2.048,-2.0383,-2.0261,-2.0119,-1.9993,-1.9993,-1.989,-1.9713,-1.9532,-1.9172,-1.8914,-1.9579,-1.9557,-1.9354,-1.9888,-2.016,-2.0241,-2.0033,-1.9945,-1.9866,-1.9641,-1.8876,-1.81,-1.7991,-1.7592,-1.7096,-1.6593,-1.6464,-1.6231,-1.5555,-1.5,-1.4381,-1.3482,-1.3244,-1.3195,-1.3155,-1.3037,-1.2632,-1.1625,-1.2327,-1.2551,-1.1603,-1.3784,-1.6198,-1.8444,-2.0358,-2.168,-2.2269,-2.2302,-2.2315,-2.2316,-2.172,-2.1421,-2.1439,-2.1407,-2.1408,-2.1423,-2.1423,-2.1428,-2.1418,-2.1549,-2.1133,-2.713,-2.7373,0.0,-2.6267,-2.6494,0.0,-2.5868,0.0,0.0,0.0,0.0,0.0,0.0,0.0,0.0,0.0,0.0,0.0,0.0,-2.6763,0.0,0.0,0.0,0.0,0.0,0.0,-2.201,-2.1363,-2.1819,-2.2134,0.0,0.0,-2.3436,-2.4403,-2.4682,-2.4917,-2.5147,-2.5264,-2.5095,-2.4594,-2.4312,-2.3605,-2.2549,-2.1923,-2.136,-2.088,-2.0594,-2.0643,-2.0932,-2.0601,-2.0795,-2.1221,-2.0417,-2.0229,-2.0361,-1.9993,-1.9695,-1.9438,-1.9146,-1.911,-1.927,-1.9864,-2.0148,-2.0332,-2.085,-2.1188,-2.1316,-2.0976,-2.0796,-2.0598,-2.0268,-1.9341,-1.848,-1.848,-1.8121,-1.764,-1.7295,-1.7048,-1.6757,-1.6258,-1.5598,-1.4735,-1.3586,-1.3236,-1.2874,-1.2161,-1.2543,-1.2897,-1.2908,-1.2905,-1.3248,-1.4093,-1.6242,-1.8446,-2.045,-2.1665,-2.2285,-2.2304,-2.2298,-2.2293,-2.2304,-2.2304,-2.2308,-2.2298,-2.2298,-2.2295,-2.2292,-2.2743,-2.2989,-2.2999,-2.3827,-2.3902]},{"header":{"parameterUnit":"m.s-1","parameterCategory":1,"la1":30.6,"la2":29.2853,"lo1":-89.7004,"lo2":-87.6739,"dy":0.0162,"dx":0.0183,"nx":112,"ny":82,"refTime":"2023-10-18T18:00:00:Z","depth":0,"parameterNumber":3,"parameterNumberName":"V-component_of_WINDS"},"data":[0.0,0.0,0.0,0.0,0.0,0.0,0.0,0.0,0.0,0.0,0.0,0.0,0.0,0.0,0.0,0.0,0.0,0.0,0.0,0.0,0.0,0.0,0.0,0.0,0.0,0.0,0.0,0.0,0.0,0.0,0.0,0.0,0.0,0.0,0.0,0.0,0.0,0.0,0.0,0.0,0.0,0.0,0.0,0.0,0.0,0.0,0.0,0.0,0.0,0.0,0.0,0.0,0.0,0.0,0.0,0.0,0.0,0.0,0.0,0.0,0.0,0.0,0.0,0.0,0.0,0.0,0.0,0.0,0.0,0.0,0.0,0.0,0.0,0.0,0.0,0.0,0.0,0.0,0.0,0.0,0.0,0.0,0.0,0.0,0.0,0.0,0.0,0.0,0.0,0.0,0.0,0.0,-0.2696,-0.4421,-0.4249,-0.8325,-1.0782,-1.0353,0.0,0.0,0.0,0.0,0.0,0.0,0.0,0.0,0.0,0.0,0.0,0.0,0.0,0.0,0.0,0.0,0.0,0.0,0.0,0.0,0.0,0.0,0.0,0.0,0.0,0.0,0.0,0.0,0.0,0.0,0.0,0.0,0.0,0.0,0.0,0.0,0.0,0.0,0.0,0.0,0.0,0.0,0.0,0.0,0.0,0.0,0.0,0.0,0.0,0.0,0.0,0.0,0.0,0.0,0.0,0.0,0.0,0.0,0.0,0.0,0.0,0.0,0.0,0.0,0.0,0.0,0.0,0.0,0.0,0.0,0.0,0.0,0.0,0.0,0.0,0.0,0.0,0.0,0.0,0.0,0.0,0.0,0.0,0.0,0.0,0.0,0.0,0.0,0.0,0.0,0.0,0.0,0.0,0.0,0.0,0.0,0.0,0.0,0.0,0.0,0.0,0.0,0.0,0.0,0.0,0.0,-0.2517,-0.4256,-0.4244,-0.8947,-1.14,-1.0129,0.0,0.0,0.0,0.0,0.0,0.0,0.0,0.0,0.0,0.0,0.0,0.0,0.0,0.0,0.0,0.0,0.0,0.0,0.0,0.0,0.0,0.0,0.0,0.0,0.0,0.0,0.0,0.0,0.0,0.0,0.0,0.0,0.0,0.0,0.0,0.0,0.0,0.0,0.0,0.0,0.0,0.0,0.0,0.0,0.0,0.0,0.0,0.0,0.0,0.0,0.0,0.0,0.0,0.0,0.0,0.0,0.0,0.0,0.0,0.0,0.0,0.0,0.0,0.0,0.0,0.0,0.0,0.0,0.0,0.0,0.0,0.0,0.0,0.0,0.0,0.0,0.0,0.0,0.0,0.0,0.0,0.0,0.0,0.0,0.0,0.0,0.0,0.0,0.0,0.0,0.0,0.0,0.0,0.0,0.0,0.0,0.0,0.0,0.0,0.0,0.0,0.0,0.0,-0.0271,0.0,0.0,-0.2463,-0.4119,-0.4119,-0.9026,-1.1482,-1.0154,-1.1662,0.0,0.0,0.0,0.0,0.0,0.0,0.0,0.0,0.0,0.0,0.0,0.0,0.0,0.0,0.0,0.0,0.0,0.0,0.0,0.0,0.0,0.0,0.0,0.0,0.0,0.0,0.0,0.0,0.0,0.0,0.0,0.0,0.0,0.0,0.0,0.0,0.0,0.0,0.0,0.0,0.0,0.0,0.0,0.0,0.0,0.0,0.0,0.0,0.0,0.0,0.0,0.0,0.0,0.0,0.0,0.0,0.0,0.0,0.0,0.0,0.0,0.0,0.0,0.0,0.0,0.0,0.0,0.0,0.0,0.0,0.0,0.0,0.0,0.0,0.0,0.0,0.0,0.0,0.0,0.0,0.0,0.0,0.0,0.0,0.0,0.0,0.0,0.0,0.0,0.0,0.0,0.0,0.0,0.0,0.0,0.0,0.0,0.0,0.0,0.0,0.0,0.0,-0.0093,-0.0095,-0.0399,-0.2588,-0.4063,-0.436,-0.859,-1.0905,-1.0003,-1.1588,0.0,0.0,0.0,0.0,0.0,0.0,0.0,0.0,0.0,0.0,0.0,0.0,0.0,0.0,0.0,0.0,0.0,0.0,0.0,0.0,0.0,0.0,0.0,0.0,0.0,0.0,0.0,0.0,0.0,0.0,0.0,0.0,0.0,0.0,0.0,0.0,0.0,0.0,0.0,0.0,0.0,0.0,0.0,0.0,0.0,0.0,0.0,0.0,0.0,0.0,0.0,0.0,0.0,0.0,0.0,0.0,0.0,0.0,0.0,0.0,0.0,0.0,0.0,0.0,0.0,0.0,0.0,0.0,0.0,0.0,0.0,0.0,0.0,0.0,0.0,0.0,0.0,0.0,0.0,0.0,0.0,0.0,0.0,0.0,0.0,0.0,0.0,0.0,0.0,0.0,0.0,0.0,0.0,0.0,0.0,0.0,0.0,0.0,0.0,0.0,0.0,0.0,-0.046,-0.0384,-0.1568,-0.299,-0.4286,-0.5424,-0.7789,-0.9222,-0.917,-1.0173,0.0,0.0,0.0,0.0,0.0,0.0,0.0,0.0,0.0,0.0,0.0,0.0,0.0,0.0,0.0,0.0,0.0,0.0,0.0,0.0,0.0,0.0,0.0,0.0,0.0,0.0,0.0,0.0,0.0,0.0,0.0,0.0,0.0,0.0,0.0,0.0,0.0,0.0,0.0,0.0,0.0,0.0,0.0,0.0,0.0,0.0,0.0,0.0,0.0,0.0,0.0,0.0,0.0,0.0,0.0,0.0,0.0,0.0,0.0,0.0,0.0,0.0,0.0,0.0,0.0,0.0,0.0,0.0,0.0,0.0,0.0,0.0,0.0,0.0,0.0,0.0,0.0,0.0,0.0,0.0,0.0,0.0,0.0,0.0,0.0,0.0,0.0,0.0,0.0,0.0,0.0,0.0,0.0,0.0,0.0,0.0,0.0,0.0,0.0,0.0,0.0,0.0,-0.1156,-0.1294,0.0,-0.3597,-0.5069,-0.5309,-0.78,-0.9318,-0.9207,0.0,0.0,0.0,0.0,0.0,0.0,0.0,0.0,0.0,0.0,0.0,0.0,0.0,0.0,0.0,0.0,0.0,0.0,0.0,0.0,0.0,0.0,0.0,0.0,0.0,0.0,0.0,0.0,0.0,0.0,0.0,0.0,0.0,0.0,0.0,0.0,0.0,0.0,0.0,0.0,0.0,0.0,0.0,0.0,0.0,0.0,0.0,0.0,0.0,0.0,0.0,0.0,0.0,0.0,0.0,0.0,0.0,0.0,0.0,0.0,0.0,0.0,0.0,0.0,0.0,0.0,0.0,0.0,0.0,0.0,0.0,0.0,0.0,0.0,0.0,0.0,0.0,0.0,0.0,0.0,0.0,0.0,0.0,0.0,0.0,0.0,0.0,0.0,0.0,0.0,0.0,0.0,0.0,0.0,0.0,0.0,0.0,0.0,0.0,0.0,0.0,0.0,-0.2387,-0.1985,-0.2054,0.0,-0.4312,-0.5453,-0.5616,-0.7344,-0.8696,-0.9077,0.0,0.0,0.0,0.0,0.0,0.0,0.0,0.0,0.0,0.0,0.0,0.0,0.0,0.0,0.0,0.0,0.0,0.0,0.0,0.0,0.0,0.0,0.0,0.0,0.0,0.0,0.0,0.0,0.0,0.0,0.0,0.0,0.0,0.0,0.0,0.0,0.0,0.0,0.0,0.0,0.0,0.0,0.0,0.0,0.0,0.0,0.0,0.0,0.0,0.0,0.0,0.0,0.0,0.0,0.0,0.0,0.0,0.0,0.0,0.0,0.0,0.0,0.0,0.0,0.0,0.0,0.0,0.0,0.0,0.0,0.0,0.0,0.0,0.0,0.0,0.0,0.0,0.0,0.0,0.0,0.0,0.0,0.0,0.0,0.0,0.0,0.0,0.0,0.0,0.0,0.0,0.0,0.0,0.0,0.0,0.0,0.0,0.0,0.0,0.0,0.0,0.0,-0.4341,-0.2947,-0.2617,-0.4893,-0.5075,-0.5568,-0.6622,-0.643,-0.695,0.0,0.0,0.0,0.0,0.0,0.0,0.0,0.0,0.0,0.0,0.0,0.0,0.0,0.0,0.0,0.0,0.0,0.0,0.0,0.0,0.0,0.0,0.0,0.0,0.0,0.0,0.0,0.0,0.0,0.0,0.0,0.0,0.0,0.0,0.0,0.0,0.0,0.0,0.0,0.0,0.0,0.0,0.0,0.0,0.0,0.0,0.0,0.0,0.0,0.0,0.0,0.0,0.0,0.0,0.0,0.0,0.0,0.0,0.0,0.0,0.0,0.0,0.0,0.0,0.0,0.0,0.0,0.0,0.0,0.0,0.0,0.0,0.0,0.0,0.0,0.0,0.0,0.0,0.0,0.0,0.0,0.0,0.0,0.0,0.0,0.0,0.0,0.0,0.0,0.0,0.0,0.0,0.0,0.0,0.0,0.0,0.0,0.0,0.0,0.0,0.0,0.0,0.0,-0.4153,-0.3504,-0.3372,-0.4675,-0.5633,-0.6245,-0.641,-0.6502,-0.7144,-0.8398,0.0,0.0,0.0,0.0,0.0,0.0,0.0,0.0,0.0,0.0,0.0,0.0,0.0,0.0,0.0,0.0,0.0,0.0,0.0,0.0,0.0,0.0,0.0,0.0,0.0,0.0,0.0,0.0,0.0,0.0,0.0,0.0,0.0,0.0,0.0,0.0,0.0,0.0,0.0,0.0,0.0,0.0,0.0,0.0,0.0,0.0,0.0,0.0,0.0,0.0,0.0,0.0,0.0,0.0,0.0,0.0,0.0,0.0,0.0,0.0,0.0,0.0,0.0,0.0,0.0,0.0,0.0,0.0,0.0,0.0,0.0,0.0,0.0,0.0,0.0,0.0,0.0,0.0,0.0,0.0,0.0,0.0,0.0,0.0,0.0,0.0,0.0,0.0,0.0,0.0,0.0,0.0,0.0,0.0,0.0,0.0,0.0,0.0,0.0,0.0,0.0,0.0,-0.4745,-0.4379,-0.4356,-0.5347,-0.6144,-0.6515,-0.6281,-0.6424,-0.6932,-0.7819,0.0,0.0,0.0,0.0,0.0,0.0,0.0,0.0,0.0,0.0,0.0,0.0,0.0,0.0,0.0,0.0,0.0,0.0,0.0,0.0,0.0,0.0,0.0,0.0,0.0,0.0,0.0,0.0,0.0,0.0,0.0,0.0,0.0,0.0,0.0,0.0,0.0,0.0,0.0,0.0,0.0,0.0,0.0,0.0,0.0,0.0,0.0,0.0,0.0,0.0,0.0,0.0,0.0,0.0,0.0,0.0,0.0,0.0,0.0,0.0,0.0,0.0,0.0,0.0,0.0,0.0,0.0,0.0,0.0,0.0,0.0,0.0,0.0,0.0,0.0,0.0,0.0,0.0,0.0,0.0,0.0,0.0,0.0,0.0,0.0,0.0,0.0,0.0,0.0,0.0,0.0,0.0,0.0,0.0,0.0,0.0,0.0,0.0,0.0,0.0,0.0,0.0,-0.5841,-0.5329,-0.5325,-0.6371,-0.6454,-0.64,-0.6271,-0.6338,-0.6504,-0.7032,0.0,0.0,0.0,0.0,0.0,0.0,0.0,0.0,0.0,0.0,0.0,0.0,0.0,0.0,0.0,0.0,0.0,0.0,0.0,0.0,0.0,0.0,0.0,0.0,0.0,0.0,0.0,0.0,0.0,0.0,0.0,0.0,0.0,0.0,0.0,0.0,0.0,0.0,0.0,0.0,0.0,0.0,0.0,0.0,0.0,0.0,0.0,0.0,0.0,0.0,0.0,0.0,0.0,0.0,0.0,0.0,0.0,0.0,0.0,0.0,-0.4746,0.0,0.0,0.0,0.0,0.0,0.0,0.0,0.0,0.0,0.0,0.0,0.0,0.0,0.0,0.0,0.0,0.0,0.0,0.0,0.0,0.0,0.0,0.0,0.0,0.0,0.0,0.0,0.0,0.0,0.0,0.0,0.0,0.0,0.0,0.0,0.0,0.0,0.0,0.0,0.0,0.0,-0.5699,-0.5196,-0.5118,-0.6224,-0.6305,-0.6295,-0.6342,-0.6338,-0.6504,-0.7032,0.0,0.0,0.0,0.0,0.0,0.0,0.0,0.0,0.0,0.0,0.0,0.0,0.0,0.0,0.0,0.0,0.0,0.0,0.0,0.0,0.0,0.0,0.0,0.0,0.0,0.0,0.0,0.0,0.0,0.0,0.0,0.0,0.0,0.0,0.0,0.0,0.0,0.0,0.0,0.0,0.0,0.0,0.0,0.0,0.0,0.0,0.0,0.0,0.0,0.0,0.0,0.0,0.0,0.0,0.0,0.0,0.0,0.0,0.0,0.0,0.0,-0.4208,0.0,0.0,0.0,0.0,0.0,0.0,0.0,0.0,0.0,0.0,0.0,0.0,0.0,0.0,0.0,0.0,0.0,0.0,0.0,0.0,0.0,0.0,0.0,0.0,0.0,0.0,0.0,0.0,0.0,0.0,0.0,0.0,0.0,0.0,0.0,0.0,0.0,0.0,0.0,0.0,-0.5828,-0.5595,-0.553,-0.6073,-0.6084,-0.6071,-0.6142,-0.6149,-0.6275,-0.6456,-0.7287,0.0,0.0,0.0,0.0,0.0,0.0,0.0,0.0,0.0,0.0,0.0,0.0,0.0,0.0,0.0,0.0,0.0,0.0,0.0,0.0,0.0,0.0,0.0,0.0,0.0,0.0,0.0,0.0,0.0,0.0,0.0,0.0,0.0,0.0,0.0,0.0,0.0,0.0,0.0,0.0,0.0,0.0,0.0,0.0,0.0,0.0,0.0,0.0,0.0,0.0,0.0,0.0,0.0,0.0,0.0,0.0,0.0,0.0,-0.0111,-0.1205,-0.2332,-0.3553,0.0,0.0,0.0,0.0,0.0,0.0,0.0,0.0,0.0,0.0,0.0,0.0,0.0,0.0,0.0,0.0,0.0,0.0,0.0,0.0,0.0,0.0,0.0,0.0,0.0,-0.7472,-0.7716,0.0,0.0,0.0,0.0,0.0,0.0,0.0,0.0,0.0,0.0,0.0,0.0,-0.5865,-0.5825,-0.5764,-0.5915,-0.5878,-0.585,-0.5979,-0.5989,-0.5925,-0.5776,-0.7124,-0.7936,0.0,0.0,0.0,0.0,0.0,0.0,0.0,0.0,0.0,0.0,0.0,0.0,0.0,0.0,0.0,0.0,0.0,0.0,0.0,0.0,0.0,0.0,0.0,0.0,0.0,0.0,0.0,0.0,0.0,0.0,0.0,0.0,0.0,0.0,0.0,0.0,0.0,0.0,0.0,0.0,0.0,0.0,0.0,0.0,0.0,0.0,0.0,0.0,0.0,0.0,0.0,0.0,0.0,0.0,0.0,0.0,0.0,0.0,-0.0238,0.0,-0.2213,-0.3526,0.0,0.0,0.0,0.0,0.0,0.0,0.0,0.0,0.0,0.0,0.0,0.0,0.0,0.0,0.0,0.0,0.0,0.0,0.0,0.0,0.0,0.0,-0.7913,-0.776,-0.7855,-0.7923,0.0,-0.7217,-0.6597,-0.6565,0.0,0.0,0.0,0.0,0.0,0.0,0.0,0.0,-0.559,-0.5104,-0.4954,-0.5758,-0.5813,-0.581,-0.583,-0.583,-0.5769,-0.5627,-0.5944,-0.67,-0.7982,-0.9094,0.0,0.0,0.0,0.0,0.0,0.0,0.0,0.0,0.0,0.0,0.0,0.0,0.0,0.0,0.0,0.0,0.0,0.0,0.0,0.0,0.0,0.0,0.0,0.0,0.0,0.0,0.0,0.0,0.0,0.0,0.0,0.0,0.0,0.0,0.0,0.0,0.0,0.0,0.0,0.0,0.0,0.0,0.0,0.1576,0.1503,0.1066,0.0,0.0,0.0,0.0,0.0,0.0,0.0,0.0,0.0,0.0,0.0,-0.0353,-0.09,-0.2189,-0.2649,-0.276,0.0,0.0,0.0,0.0,-0.5445,-0.5591,-0.639,-0.6594,0.0,0.0,0.0,0.0,0.0,0.0,0.0,0.0,0.0,0.0,0.0,0.0,0.0,-0.7828,-0.7862,-0.7674,-0.6846,-0.5735,-0.5009,0.0,-0.4661,-0.3832,-0.4036,0.0,0.0,0.0,0.0,0.0,-0.4124,-0.3825,-0.3724,-0.4141,-0.4134,-0.4092,-0.4155,-0.4641,-0.4874,-0.4821,-0.6256,-0.7414,-0.7972,-1.0213,-1.1787,0.0,0.0,0.0,0.0,0.0,0.0,0.0,0.0,0.0,0.0,0.0,0.0,0.0,0.0,0.0,0.0,0.0,0.0,0.0,0.0,0.0,0.0,0.0,0.0,0.0,0.0,0.0,0.0,0.0,0.0106,0.0517,0.0536,0.0754,0.0,0.0,0.0,0.0,0.0,0.0,0.5537,0.5658,0.4997,0.3484,0.3334,0.2523,0.077,0.0649,0.0654,0.0658,0.0258,0.0255,0.0637,0.025,0.0,0.0,0.0,0.0,-0.0118,-0.1022,-0.1321,-0.1495,-0.2687,-0.3237,-0.3206,-0.369,-0.3893,-0.4055,-0.5523,-0.595,-0.6215,-0.733,0.0,-0.7529,-0.7156,0.0,0.0,0.0,0.0,-0.7397,-0.7512,-0.7648,-0.7756,-0.7756,-0.7531,-0.6994,-0.6043,-0.454,-0.3608,0.0,-0.3557,-0.2661,-0.2604,0.0,0.0,0.0,0.0,-0.2681,-0.2984,-0.2725,-0.2601,-0.2799,-0.2791,-0.2761,-0.2841,-0.3444,-0.3905,-0.414,-0.6082,-0.7453,-0.7972,-1.0793,-1.2448,-1.2562,0.0,0.0,0.0,0.0,0.0,0.0,0.0,0.0,0.0,0.0,0.0,0.0,0.0,0.0,0.0,0.0,0.0,0.0,0.0,0.0,0.0,0.0,0.0,0.0,0.0,0.0,0.0,0.0,0.0,0.175,0.2189,0.0,0.0,0.0,0.0,0.6609,0.6827,0.6881,0.6993,0.721,0.6687,0.5365,0.5321,0.435,0.2543,0.2545,0.2529,0.2366,0.0789,0.0772,0.2345,0.0741,0.0,0.0,0.0,0.0,0.0,-0.0114,-0.0111,-0.0218,-0.1603,-0.212,-0.2218,-0.3532,-0.4023,-0.4217,-0.5564,-0.6039,-0.6234,-0.7521,-0.7828,-0.7567,-0.74,-0.7248,0.0,0.0,-0.7143,-0.7373,-0.738,-0.7495,-0.7611,-0.7611,-0.6743,-0.5904,-0.5804,-0.3866,-0.2116,0.0,-0.1092,-0.0482,-0.1525,0.0,-0.1911,-0.2786,-0.2216,-0.191,-0.2618,-0.1918,-0.173,-0.259,-0.2711,-0.268,-0.2693,-0.2766,-0.3128,-0.3951,-0.4261,-0.5491,-0.7902,-0.9728,-1.1404,-1.2923,-1.4715,0.0,0.0,0.0,0.0,0.0,0.0,0.0,0.0,0.0,0.0,0.0,0.0,0.0,0.0,0.0,0.0,0.0,0.0,0.0,0.0,0.0,0.0,0.0,0.0,0.0,0.0,0.0,0.0,0.2374,0.3575,0.0,0.0,0.5129,0.5762,0.7188,0.7485,0.8032,0.9075,0.9255,0.8588,0.6931,0.6902,0.6023,0.4174,0.4174,0.4034,0.4011,0.3304,0.3374,0.3809,0.2171,0.1426,0.141,0.0466,0.0,0.0,0.0,0.0,0.0,-0.0554,-0.076,-0.0746,-0.1285,-0.1374,-0.1655,-0.2976,-0.3989,-0.5101,-0.726,-0.7841,-0.759,-0.7536,-0.7411,-0.7278,-0.7227,-0.736,-0.7519,-0.7519,-0.756,-0.755,-0.735,-0.6445,-0.5447,-0.4453,-0.2968,-0.1603,-0.0876,-0.0314,-0.0154,-0.052,-0.0575,-0.0692,-0.0988,-0.0773,-0.0689,-0.0902,-0.0658,-0.0594,-0.093,-0.0945,-0.096,-0.0971,-0.1976,-0.2695,-0.3042,-0.4592,-0.6111,-0.7471,-0.9211,-1.0682,-1.1896,-1.3032,-1.436,0.0,0.0,0.0,0.0,0.0,0.0,0.0,0.0,0.0,0.0,0.0,0.0,0.0,0.0,0.0,0.0,0.0,0.0,0.0,0.0,0.0,0.0,0.0,0.0,0.0,0.0,0.3078,0.4167,0.5393,0.6363,0.6603,0.6873,0.7472,0.8285,0.8644,0.9175,1.0202,1.0436,0.9954,0.8605,0.8593,0.7814,0.5776,0.5747,0.5718,0.569,0.4935,0.4971,0.5395,0.3623,0.2879,0.2747,0.1353,0.0668,0.066,0.0218,0.0,0.0,0.0,0.0,0.0,0.0,0.0,-0.0207,-0.1542,-0.2866,-0.4384,-0.6506,-0.7146,-0.7076,-0.746,-0.7451,-0.736,-0.7309,-0.7366,-0.7444,-0.7444,-0.7411,-0.7322,-0.7119,-0.6171,-0.4987,-0.3635,-0.2467,-0.1336,-0.0219,0.0,0.0,0.0,0.0,0.0,0.0,0.0,0.0,0.0,0.0,0.0,0.0,0.0,0.0,0.0,-0.127,-0.2213,-0.2458,-0.4323,-0.5973,-0.723,-0.8757,-1.0121,-1.1289,-1.2267,-1.3164,-1.3984,0.0,0.0,0.0,0.0,0.0,0.0,0.0,0.0,0.0,0.0,0.0,0.0,0.0,0.0,0.0,0.0,0.0,0.0,0.0,0.0,0.0,0.0,0.0,0.245,0.2787,0.3897,0.7085,0.7671,0.8392,0.9638,1.0117,1.0229,1.0073,1.0327,1.0365,1.0073,1.047,1.0571,1.0276,1.0402,0.9619,0.7686,0.7574,0.7341,0.7111,0.5433,0.5422,0.685,0.506,0.4314,0.4131,0.2676,0.2019,0.1912,0.0639,0.0107,0.0107,0.0,0.0,0.0,0.0,0.0,-0.0207,-0.1519,-0.2812,-0.41,-0.5398,-0.5754,-0.6,-0.699,-0.7366,-0.7333,-0.7177,-0.7132,-0.7132,-0.7129,-0.7021,-0.6912,-0.6909,-0.5746,-0.4445,-0.3579,-0.2235,-0.1006,-0.0134,0.0,0.0,0.0,0.0,0.0,0.0,0.0,0.0,0.0,0.0,0.0,0.0,0.0,0.0,0.0,-0.0786,-0.1658,-0.2451,-0.3333,-0.483,-0.7156,-0.8297,-0.9633,-1.1167,-1.253,-1.2651,-1.147,0.0,0.0,0.0,0.0,0.0,0.0,0.0,0.0,0.0,0.0,0.0,0.0,0.0,0.0,0.0,0.0,0.0,0.0,0.0,0.0,0.0,0.0,0.3223,0.2735,0.3853,0.5395,0.7623,0.9021,1.0035,1.0331,1.0483,1.0534,1.0382,1.0446,1.0412,1.0226,1.0334,1.0263,0.9958,1.0093,0.9797,0.9057,0.9017,0.8926,0.8787,0.8177,0.8028,0.8317,0.6628,0.5863,0.5658,0.4145,0.3476,0.333,0.1981,0.1449,0.1334,0.0422,0.0,0.0,0.0,0.0,-0.0203,-0.149,-0.2267,-0.275,-0.4044,-0.5023,-0.5701,-0.6009,-0.6566,-0.7173,-0.7027,-0.6987,-0.6959,-0.6851,-0.6709,-0.6573,-0.6468,-0.4932,-0.3454,-0.3121,-0.1645,-0.0266,-0.0064,0.0,0.0,0.0,0.0,0.0,0.0,0.0,0.0,0.0,0.0,0.0,0.0,0.0,0.0,0.0,-0.0701,-0.1471,-0.2239,-0.3003,-0.4206,-0.5918,-0.6295,-0.7377,-0.937,-1.06,-1.1107,0.0,0.0,0.0,0.0,0.0,0.0,0.0,0.0,0.0,0.0,0.0,0.0,0.0,0.0,0.0,0.0,0.0,0.0,0.0,0.0,0.0,0.0,0.4868,0.469,0.4758,0.5659,0.6965,0.8811,1.0003,1.0592,1.05,1.0629,1.0633,1.0419,1.046,1.0375,1.0103,1.0209,1.0141,0.9832,0.9907,0.9842,0.9612,0.9483,0.9374,0.9286,0.9133,0.8984,0.8838,0.7813,0.7249,0.0,0.5514,0.4844,0.4696,0.276,0.2033,0.0,0.0,0.0,0.0,0.0,0.0,-0.01,-0.0885,-0.1169,-0.135,-0.2645,-0.3537,-0.4233,-0.5199,-0.5824,-0.6328,-0.6777,-0.6881,-0.6797,-0.6644,-0.6247,-0.5786,-0.5653,-0.4273,-0.2879,-0.2443,-0.1384,-0.0449,-0.0061,0.0,0.0,0.0,0.0,0.0,0.0,0.0,0.0,0.0,0.0,0.0,0.0,0.0,0.0,0.0,-0.075,0.0,0.0,0.0,-0.3634,-0.5198,-0.5819,0.0,0.0,0.0,-0.9009,-0.8594,0.0,0.0,0.0,-1.0884,-1.1421,0.0,0.0,0.0,0.0,0.0,0.0,0.0,0.0,0.0,0.0,0.0,0.0,0.0,0.0,0.0,0.0,0.5949,0.5828,0.7562,0.7822,0.8443,1.0129,1.0392,1.0466,1.0466,1.0592,1.0561,1.03,1.0382,1.0266,0.9869,0.0,0.0,0.0,0.0,0.971,0.9585,0.9279,0.912,0.9103,0.8954,0.8808,0.8655,0.852,0.8381,0.8238,0.6782,0.6232,0.6029,0.3518,0.2311,0.1907,0.0504,0.0,0.0,0.0,0.0,0.0,0.0,0.0,0.0,-0.1205,-0.1657,-0.2199,-0.4389,-0.5005,-0.5352,-0.6348,-0.6669,-0.661,-0.6441,-0.5736,-0.4912,-0.479,-0.387,-0.2811,-0.1995,-0.1524,-0.1032,-0.0294,-0.0057,0.0,0.0,0.0,0.0,0.0,0.0,0.0,0.0,0.0,0.0,0.0,0.0,0.0,0.0,-0.0692,-0.1159,-0.112,-0.1951,-0.308,-0.4562,-0.6006,-0.6818,-0.6818,-0.7123,-0.6793,-0.5829,-0.6817,-0.7333,-0.7364,-0.8873,-1.0052,0.0,0.0,0.0,0.0,0.0,0.0,0.0,0.0,0.0,0.0,0.0,0.0,0.0,0.0,0.0,0.8388,0.8455,0.8737,0.9284,0.9352,0.9591,1.0246,1.0304,1.0321,1.0321,1.0348,1.0341,1.0283,1.0188,1.0097,1.0008,0.9836,0.0,0.9819,0.9591,0.9452,0.9425,0.913,0.892,0.8794,0.0,0.0,0.8353,0.8326,0.8228,0.8082,0.7749,0.7637,0.7537,0.5927,0.3983,0.1872,0.0502,0.0,0.0,0.0,0.0,0.0,0.0,0.0,0.0,-0.0273,-0.0992,-0.1884,-0.2369,-0.373,0.0,-0.5103,-0.5726,-0.6281,-0.6003,-0.5679,-0.5463,-0.5316,-0.4411,-0.3535,-0.329,-0.2148,-0.1115,-0.0909,-0.0394,0.0,0.0,0.0,0.0,0.0,0.0,0.0,0.0,0.0,0.0,0.0,0.0,0.0,0.0,-0.0173,-0.0522,-0.1064,-0.1853,-0.2421,-0.2697,-0.4138,-0.4912,-0.4912,-0.5567,-0.5875,-0.5829,-0.6036,-0.6536,-0.7354,-0.834,-0.9203,0.0,0.0,0.0,0.0,0.0,0.0,0.0,0.0,0.0,0.0,0.0,0.9393,0.0,0.0,0.9751,1.0086,0.9681,0.9432,0.9581,0.9666,0.9798,1.0025,1.0117,1.0164,1.0164,1.0236,1.0249,1.0171,1.0022,0.9903,0.9832,0.9615,0.9527,0.9598,0.9384,0.9232,0.9161,0.9011,0.8821,0.8598,0.8598,0.8482,0.8272,0.8272,0.8184,0.8038,0.8038,0.8038,0.7839,0.5824,0.3776,0.1861,0.0496,0.0,0.0,0.0,0.0,0.0,0.0,0.0,0.0,0.0,-0.0439,-0.104,-0.1626,-0.2851,-0.4087,-0.4577,-0.5375,-0.5962,-0.5661,-0.5183,-0.4739,-0.454,-0.3743,-0.2975,-0.2901,-0.2227,-0.1626,-0.163,-0.1062,-0.056,-0.056,-0.0224,0.0,0.0,0.0,0.0,0.0,0.0,0.0,0.0,0.0,0.0,0.0,0.0,-0.0171,-0.0504,-0.1229,-0.1675,-0.1675,-0.2724,-0.3495,-0.3831,-0.422,-0.4812,-0.563,-0.563,-0.6295,-0.7531,-0.8305,-0.919,0.0,0.0,0.0,0.0,0.0,0.0,0.0,0.0,0.719,0.9819,1.0595,1.1239,1.291,1.2221,1.1414,1.165,1.0603,0.9802,0.9834,0.9721,0.9608,0.9724,0.9893,1.0005,1.0005,1.0117,1.0137,1.0015,0.989,0.9758,0.9615,0.9462,0.9381,0.9381,0.9205,0.9069,0.8981,0.8893,0.8726,0.8482,0.8547,0.8455,0.8225,0.8225,0.8157,0.8038,0.8038,0.8038,0.7836,0.5101,0.3361,0.2236,0.0583,0.0,0.0,0.0,0.0,0.0,0.0,0.0,0.0,0.0,0.0,-0.0167,-0.1162,-0.2091,-0.3102,-0.4065,-0.4961,-0.5654,-0.5386,-0.4763,-0.4097,-0.3886,-0.3225,-0.2654,-0.263,-0.2496,-0.2418,-0.2411,-0.184,-0.1284,-0.1118,-0.0615,-0.0168,0.0,0.0,0.0,0.0,0.0,0.0,0.0,0.0,0.0,0.0,0.0,0.0,0.0,-0.056,-0.0895,-0.0895,-0.173,-0.2563,-0.3282,-0.3561,-0.444,-0.591,-0.6072,-0.6773,-0.8125,-0.9037,-0.9841,-1.1197,-0.9143,-0.6749,-0.3263,-0.1052,0.0864,0.0,0.0,0.8901,1.1755,1.2535,1.3143,1.4458,1.3821,1.3093,1.3231,1.206,1.1126,1.129,1.0192,0.9412,0.9429,0.9676,0.9846,0.9846,0.9863,0.9866,0.9846,0.9832,0.9758,0.9615,0.9462,0.9381,0.9381,0.911,0.9015,0.9127,0.8733,0.8516,0.8479,0.8231,0.8099,0.8065,0.8065,0.8055,0.8038,0.8038,0.8038,0.7829,0.5132,0.3879,0.352,0.103,0.0,0.0,0.0,0.0,0.0,0.0,0.0,0.0,0.0,0.0,0.0,-0.0159,-0.1473,-0.2926,-0.2936,-0.415,-0.5372,-0.5203,-0.4935,-0.4742,-0.4637,-0.4478,-0.4381,-0.4294,-0.3699,-0.319,-0.3178,-0.2565,-0.1842,-0.1229,-0.1006,-0.0727,-0.0112,0.0,0.0,0.0,0.0,0.0,0.0,0.0,0.0,0.0,0.0,0.0,0.0,-0.0056,-0.0112,-0.0112,-0.1452,-0.2559,-0.3267,-0.4597,-0.5959,-0.7393,-0.8035,-0.8717,-0.9533,-1.1455,-1.1484,-0.7352,-0.4811,0.0,0.0,0.088,0.3646,0.4029,0.6882,1.0075,1.2067,1.341,1.4607,1.5987,1.5376,1.4696,0.0,1.3593,1.2292,1.1594,1.0932,1.0111,0.9243,0.9384,0.9564,0.9564,0.9564,0.9564,0.9564,0.9483,0.9405,0.9347,0.912,0.9032,0.912,0.8832,0.8703,0.8764,0.8574,0.8394,0.8225,0.8191,0.8126,0.8038,0.8038,0.7991,0.7906,0.7906,0.7862,0.7584,0.5684,0.4557,0.3725,0.1827,0.0625,0.0,0.0,0.0,0.0,0.0,0.0,0.0,0.0,0.0,0.0,0.0,-0.1241,-0.267,-0.261,-0.383,-0.5067,-0.4914,-0.483,-0.4748,-0.4596,-0.4558,-0.4594,-0.4532,-0.4236,-0.4012,-0.4012,-0.3345,-0.2732,-0.251,-0.1675,-0.1006,-0.0671,-0.028,0.0,0.0,0.0,0.0,0.0,0.0,0.0,0.0,0.0,0.0,0.0,0.0,-0.0168,-0.0615,-0.1229,-0.2336,-0.3926,-0.4903,-0.6362,-0.8246,-0.9357,-1.0218,-1.0889,-1.258,-1.304,-0.3,0.0,0.0,-0.0193,0.2869,0.5812,0.5262,0.8058,1.1185,1.2656,1.4265,1.5766,1.6919,1.6584,0.0,1.6251,1.5001,1.3727,1.2731,1.1802,1.0753,0.9596,0.9311,0.9215,0.9256,0.9296,0.9317,0.9317,0.9215,0.9133,0.9096,0.8889,0.8804,0.8872,0.8618,0.8482,0.8482,0.8442,0.8316,0.8102,0.8174,0.8147,0.8038,0.8038,0.7957,0.7811,0.7811,0.7729,0.7496,0.6092,0.4809,0.3643,0.2309,0.1043,0.0,0.0,0.0,0.0,0.0,0.0,0.0078,0.0308,0.0224,0.0072,0.0286,-0.0827,-0.2187,-0.2432,-0.3474,-0.4587,-0.4659,-0.466,-0.4599,-0.4543,-0.4519,-0.4519,-0.4519,-0.4519,-0.4519,-0.4519,-0.4015,-0.3566,-0.34,-0.2454,-0.1619,-0.1452,-0.095,-0.0448,-0.0056,0.0,0.0,0.0,0.0,0.0,0.0,0.0,0.0,0.0,-0.0168,-0.056,-0.1062,-0.1672,-0.2885,-0.4692,-0.5757,-0.7348,-0.9541,-1.0714,-1.1715,-1.258,-1.3861,-1.4665,0.0,0.0,0.2132,0.3483,0.4956,0.635,0.7756,1.0327,1.2741,1.4179,1.5576,1.662,1.672,1.6967,1.7174,1.7174,1.6125,1.5322,1.5322,1.2768,1.0907,1.0975,0.9671,0.8791,0.0,0.9079,0.9161,0.9161,0.9154,0.9093,0.8954,0.8937,0.8866,0.8723,0.8564,0.8482,0.8482,0.8347,0.8272,0.8262,0.8116,0.8045,0.8038,0.8038,0.7957,0.7811,0.7811,0.7729,0.7483,0.6006,0.4739,0.3648,0.222,0.0913,0.0,0.0,0.0,0.0,0.0,0.0,0.0151,0.0955,0.0717,0.014,0.1017,0.0066,-0.1474,-0.2301,-0.3071,-0.3815,-0.4513,-0.4579,-0.4522,-0.4519,-0.4519,-0.4519,-0.4519,-0.4519,-0.4519,-0.4519,-0.4463,-0.4236,-0.3456,-0.3287,-0.301,-0.2286,-0.2174,-0.1619,-0.0168,0.0,0.0,0.0,0.0,0.0,0.0,0.0,0.0,0.0,-0.0671,-0.1062,-0.1118,-0.3161,-0.4692,-0.5446,-0.7541,-0.9585,-1.1603,-1.2357,-1.3385,-1.4652,-1.5772,-1.6336,0.0,0.0,0.6026,0.6463,0.8227,0.9784,0.9414,1.1413,1.3545,1.4021,1.5536,1.6741,1.6741,1.718,1.7605,1.781,1.7248,1.6499,1.5524,1.4484,1.3329,1.2029,1.0928,0.0,0.0,0.0,0.0,0.8859,0.8767,0.8686,0.8638,0.8547,0.8516,0.8557,0.8316,0.8238,0.834,0.8191,0.8116,0.8116,0.8065,0.8038,0.8035,0.7933,0.7807,0.7658,0.7455,0.7285,0.7051,0.65,0.5134,0.3415,0.2901,0.1618,0.0,0.0,0.0302,0.0738,0.0811,0.1238,0.1857,0.2018,0.156,0.0924,0.1088,0.0062,-0.121,-0.1495,-0.2503,-0.3516,-0.3801,-0.416,-0.4519,-0.4519,-0.4519,-0.4519,-0.4519,-0.4519,-0.4519,-0.4519,-0.4519,-0.4567,-0.4718,-0.4381,-0.3932,-0.3695,-0.283,-0.2009,-0.1507,-0.1006,-0.0727,-0.0727,-0.028,0.0,0.0,0.0,0.0,0.0,-0.0671,-0.134,-0.1786,-0.3492,-0.4976,-0.6185,-0.8716,-1.0572,-1.1702,-1.406,-1.5428,-1.5872,-1.7011,-1.7892,0.0,0.8451,0.9254,0.9364,1.0997,1.248,1.2047,1.3593,1.5354,1.5839,1.6641,1.7257,1.7257,1.772,1.8029,1.8033,1.793,1.7435,1.6588,1.5579,1.4608,1.3464,1.2404,0.0,0.0,0.0,0.0,0.8735,0.8537,0.8664,0.912,0.8621,0.8511,0.9116,0.8365,0.8089,0.8187,0.8089,0.8038,0.8038,0.8038,0.8011,0.7957,0.7858,0.7672,0.7424,0.7227,0.7031,0.6834,0.6681,0.5516,0.3751,0.3347,0.2336,0.0914,0.0594,0.1145,0.2003,0.1406,0.1805,0.2565,0.2823,0.2314,0.1638,0.1588,0.0716,-0.041,-0.0926,-0.1986,-0.301,-0.3345,-0.3959,-0.4519,-0.4519,-0.4519,-0.4519,-0.4519,-0.4519,-0.457,-0.4787,-0.4838,-0.5058,-0.5764,-0.5479,-0.519,-0.5175,-0.4368,-0.3498,-0.2668,-0.2169,-0.1782,-0.1507,-0.1062,-0.0783,-0.0783,-0.0783,-0.0783,-0.0783,-0.1452,-0.223,-0.2945,-0.4429,-0.5851,-0.732,-0.9804,-1.1599,-1.2714,-1.5203,-1.6591,-1.7011,-1.7959,-1.8812,1.1452,1.1736,1.1857,1.2203,1.3143,1.4355,1.5597,1.6786,1.7888,1.9149,1.8764,1.8161,0.0,0.0,1.8555,1.8151,1.8218,1.8342,1.8444,1.6242,1.4779,0.0,0.0,0.0,0.0,0.0,0.0,0.8895,0.0,0.9113,1.0255,0.9158,0.906,1.0247,0.8899,0.8134,0.8127,0.8028,0.8028,0.8127,0.8028,0.795,0.7904,0.7787,0.7543,0.7139,0.7115,0.6946,0.6675,0.6515,0.5808,0.459,0.3573,0.2965,0.26,0.1689,0.2393,0.3531,0.1801,0.1705,0.2488,0.3342,0.3001,0.2316,0.2422,0.1814,0.0815,-0.062,-0.1619,-0.2399,-0.3121,-0.3901,-0.4519,-0.4519,-0.4519,-0.4519,-0.4519,-0.457,-0.4732,-0.5433,-0.5597,-0.5814,-0.6534,-0.6696,-0.675,-0.675,-0.6745,-0.5964,-0.3756,-0.3427,-0.3157,-0.2395,-0.2286,-0.2228,-0.2169,-0.2173,-0.2228,-0.2225,-0.295,-0.3724,-0.4477,-0.5914,-0.7374,-0.8776,-1.0789,-1.2762,-1.4541,-1.5874,-1.7094,-1.8145,-1.8727,-1.9236,1.392,1.513,1.6169,1.6879,1.7507,1.7995,1.8037,1.8245,1.8442,1.8474,1.8313,1.8091,0.0,0.0,0.0,1.9835,2.037,0.0,2.0498,1.9227,0.0,0.0,0.0,1.4735,1.4616,1.3435,0.0,0.0,1.1194,1.1203,1.1442,1.1147,1.1147,1.1442,1.1096,1.0414,0.9308,0.8351,0.8351,0.9308,0.8348,0.8326,0.9224,0.7919,0.7248,0.7122,0.6787,0.66,0.6512,0.6247,0.5506,0.4473,0.407,0.3391,0.267,0.2327,0.2825,0.3568,0.2999,0.3435,0.4206,0.4377,0.3915,0.3125,0.2453,0.1753,0.0905,0.0,-0.1229,-0.2232,-0.2454,-0.3511,-0.4519,-0.4519,-0.4519,-0.4625,-0.5109,-0.5218,-0.5437,-0.6204,-0.6745,-0.7176,-0.7396,-0.7883,-0.8415,-0.8922,-0.8967,-0.8212,-0.6018,-0.5291,-0.4631,-0.3932,-0.3324,-0.2747,-0.2101,-0.2146,-0.2369,-0.2837,-0.3664,-0.4689,-0.5905,-0.7382,-0.8808,-1.0144,-1.256,-1.4258,-1.5186,-1.7235,-1.8391,-1.8727,-1.9549,-2.0196,1.5578,1.6795,1.7924,1.8402,1.9125,1.9581,1.8871,1.8922,1.9071,1.8936,1.8309,0.0,0.0,0.0,0.0,0.0,0.0,0.0,2.1733,2.0265,1.9164,0.0,1.7331,0.0,1.6,1.4938,1.4332,0.0,1.2819,1.2242,1.2721,1.2133,1.1985,1.256,1.1888,1.1213,1.0341,0.9588,0.9588,1.0341,0.9588,0.932,0.9342,0.8321,0.7465,0.6834,0.0,0.6437,0.6363,0.6129,0.5615,0.5023,0.4395,0.4042,0.3692,0.3241,0.3486,0.4082,0.401,0.429,0.4704,0.4619,0.4358,0.3772,0.2579,0.1898,0.1341,0.028,-0.1062,-0.2174,-0.2174,-0.3345,-0.4519,-0.4519,-0.4519,-0.4677,-0.5378,-0.5487,-0.5919,-0.7261,-0.8125,-0.8712,-0.9013,-0.9392,-0.9814,-1.0167,-1.0269,-0.9791,-0.8574,-0.7793,-0.7083,-0.6343,-0.5645,-0.4965,-0.451,-0.3944,-0.3905,-0.4577,-0.5077,-0.6128,-0.778,-0.8961,-1.0439,-1.2349,-1.4043,-1.5449,-1.6539,-1.8127,-1.9006,-1.9281,-1.9969,-2.055,1.67,1.762,1.8446,1.836,1.916,1.9665,1.8718,1.8833,1.9206,1.9392,0.0,0.0,1.8831,0.0,2.0537,2.0713,0.0,2.2061,2.2671,2.079,1.946,1.98,1.8606,1.7531,1.7197,1.6792,1.6461,1.6273,1.4034,1.3111,1.4034,1.2753,1.2527,1.3537,1.2173,1.1314,1.1314,1.1131,1.1131,1.1314,1.1106,1.0447,0.9318,0.8983,0.8014,0.6708,0.0,0.0,0.6217,0.6044,0.5891,0.5688,0.47,0.464,0.4998,0.4212,0.4247,0.4687,0.4667,0.4572,0.4519,0.4519,0.4519,0.4236,0.2788,0.2286,0.1898,0.056,-0.1006,-0.2174,-0.2174,-0.3345,-0.4519,-0.4519,-0.4519,-0.4736,-0.5487,-0.5864,-0.6607,-0.8469,-0.9429,-1.0115,-1.0712,-1.0813,-1.0864,-1.1057,-1.1015,-1.1015,-1.1157,-1.0418,-0.957,-0.8878,-0.8273,-0.7799,-0.7606,-0.6582,-0.6225,-0.6903,-0.7057,-0.8026,-1.0047,-1.0806,-1.2301,-1.4688,-1.5417,-1.6581,-1.819,-1.8797,-1.9376,-1.9889,-2.0296,-2.0649,1.7543,1.8827,1.9972,1.9075,1.9236,1.9272,1.7697,1.7598,0.0,0.0,0.0,1.7279,1.7496,1.8917,0.0,2.1475,0.0,0.0,0.0,0.0,2.2408,0.0,0.0,0.0,0.0,0.0,0.0,0.0,0.0,0.0,1.5106,1.4849,1.4714,1.4766,1.3284,1.2514,1.2514,1.1447,1.1447,1.2509,1.117,1.0947,1.1616,0.922,0.7977,0.7715,0.659,0.0,0.6051,0.5779,0.565,0.561,0.5322,0.5157,0.5051,0.481,0.472,0.4674,0.4548,0.4539,0.4519,0.4519,0.4519,0.4349,0.3456,0.2732,0.2009,0.1174,-0.0613,-0.2174,-0.2174,-0.3345,-0.4519,-0.4519,-0.4519,-0.4842,-0.615,-0.78,-0.9169,-0.954,-1.0159,-1.0661,-1.0762,-1.0813,-1.1157,-1.2278,-1.1994,-1.2003,-1.313,-1.1738,-1.0324,-0.9621,-0.9416,-0.8803,-0.755,-0.7875,-0.8358,-0.8863,-0.9572,-1.0872,-1.2924,-1.3533,-1.4541,-1.604,-1.7044,-1.8124,-1.9339,-1.9834,-2.0299,-2.0764,-2.1197,-2.1244,1.7992,1.8641,1.9097,1.8752,1.7942,1.7004,1.5734,0.0,0.0,0.0,0.0,1.4871,1.6599,0.0,0.0,0.0,0.0,0.0,0.0,0.0,0.0,0.0,0.0,0.0,0.0,0.0,0.0,0.0,0.0,0.0,1.5398,1.511,1.481,1.4516,1.369,1.3345,1.349,1.2523,1.2451,1.3184,1.2326,1.1793,1.1717,1.0183,0.9066,0.8339,0.7608,0.0,0.6542,0.6367,0.5945,0.5457,0.5301,0.5104,0.4894,0.4826,0.4704,0.4562,0.4543,0.4519,0.4463,0.407,0.4181,0.4294,0.3121,0.2508,0.1952,0.0838,-0.0781,-0.2174,-0.2174,-0.3345,-0.457,-0.4948,-0.5601,-0.6465,-0.7475,-0.8803,-1.002,-1.072,-1.1116,-1.1425,-1.1841,-1.1891,-1.2089,-1.2783,-1.2861,-1.3082,-1.3721,-1.3215,-1.2464,-1.1449,-1.1032,-1.0631,-1.0221,-0.9942,-1.015,-1.1055,-1.173,-1.2832,-1.453,-1.5409,-1.6477,-1.7693,-1.8207,-1.8849,-1.9666,-2.0074,-2.0416,-2.0649,-2.1306,-2.1368,1.7737,1.7574,1.7358,1.7184,1.5953,1.4459,1.3219,1.1872,0.0,0.0,1.1992,1.2657,1.5494,0.0,0.0,0.0,0.0,0.0,0.0,0.0,0.0,0.0,0.0,0.0,0.0,0.0,0.0,0.0,0.0,0.0,1.5104,1.4616,1.4202,1.3908,1.3674,1.3661,1.3895,1.344,1.3293,1.3447,1.3153,1.246,1.1323,1.0816,0.9991,0.9001,0.8569,0.0,0.0,0.6886,0.6242,0.5298,0.5179,0.4952,0.4691,0.4691,0.4478,0.4236,0.4239,0.4125,0.3901,0.3345,0.3624,0.4012,0.2619,0.2063,0.173,0.056,-0.0949,-0.2174,-0.2174,-0.3345,-0.468,-0.5324,-0.673,-0.8078,-0.858,-0.9526,-1.0517,-1.1616,-1.2003,-1.2365,-1.2822,-1.3017,-1.3152,-1.3296,-1.36,-1.3909,-1.4133,-1.4514,-1.4376,-1.3552,-1.2928,-1.2696,-1.2956,-1.231,-1.2292,-1.3242,-1.3887,-1.4718,-1.5948,-1.7003,-1.7972,-1.8893,-1.9006,-1.9376,-1.998,-2.0296,-2.055,-2.0748,-2.143,-2.1477,1.5955,1.5839,1.5452,1.3776,1.3427,1.2833,1.0269,0.0,0.0,0.0,1.1115,1.2246,1.367,1.4528,1.578,0.0,0.0,0.0,0.0,0.0,0.0,0.0,0.0,0.0,0.0,0.0,0.0,0.0,0.0,0.0,0.0,1.3901,1.3587,1.33,1.3267,1.3267,1.3293,1.324,1.308,1.2903,1.2525,1.2158,1.1794,1.0566,0.9933,0.9759,0.869,0.0,0.0,0.6759,0.612,0.5148,0.5135,0.4952,0.4691,0.4691,0.4134,0.34,0.3456,0.301,0.2397,0.2343,0.2788,0.3231,0.2454,0.173,0.1174,0.1062,-0.0558,-0.2174,-0.2174,-0.3345,-0.468,-0.5324,-0.7084,-0.8633,-0.8678,-1.0222,-1.1665,-1.1765,-1.2793,-1.3447,-1.2968,-1.3324,-1.392,-1.4468,-1.4097,-1.4179,-1.5309,-1.5005,-1.4858,-1.5206,-1.5182,-1.4733,-1.3695,-1.4967,-1.5591,-1.5186,-1.6228,-1.7139,-1.7813,-1.8444,-1.8803,-1.8893,-1.9369,-2.0035,-2.0862,-2.0926,-2.1354,-2.2123,-2.2209,-2.1781,1.6838,1.63,1.5503,1.3393,1.2049,1.0633,0.8918,0.0,0.0,0.8322,0.9403,1.1004,1.3216,1.3882,1.5062,0.0,0.0,0.0,0.0,0.0,0.0,0.0,0.0,0.0,0.0,0.0,0.0,0.0,0.0,0.0,0.0,1.4194,1.4166,1.4045,1.4453,1.4446,1.4038,1.3992,1.3506,1.2472,1.2499,1.22,1.159,1.0882,1.0545,1.0533,0.9927,0.0,0.0,0.7531,0.6622,0.5456,0.5044,0.4738,0.4555,0.4555,0.4061,0.3345,0.34,0.2899,0.212,0.1675,0.173,0.1898,0.1619,0.134,0.1006,0.056,-0.0837,-0.2174,-0.2174,-0.3999,-0.5932,-0.6632,-0.8112,-0.9481,-0.9879,-1.0948,-1.1922,-1.2393,-1.289,-1.32,-1.2929,-1.342,-1.3862,-1.4097,-1.4595,-1.5163,-1.5959,-1.6188,-1.6464,-1.7014,-1.6145,-1.5568,-1.5806,-1.6448,-1.6879,-1.7044,-1.7785,-1.8352,-1.8574,-1.9095,-1.95,-1.9743,-1.9949,-2.0364,-2.0991,-2.1244,-2.1538,-2.1899,-2.218,-2.1827,1.6902,1.6038,1.4993,1.3088,1.1226,0.9488,0.0,0.0,0.6474,0.7144,0.8267,0.9862,1.2324,1.297,1.4091,0.0,0.0,0.0,0.0,0.0,0.0,0.0,0.0,0.0,0.0,0.0,0.0,0.0,0.0,0.0,0.0,1.4973,1.4976,1.4584,1.5177,1.5121,1.4364,1.4457,1.3877,1.26,1.2848,1.2439,1.1482,1.1245,1.0985,1.0722,0.0,0.0,0.0,0.7883,0.6883,0.5715,0.4977,0.4599,0.446,0.4236,0.368,0.301,0.2788,0.223,0.1452,0.067,0.0447,0.0391,0.0167,0.0279,0.0335,-0.0168,-0.1396,-0.2565,-0.2843,-0.4714,-0.675,-0.7235,-0.8758,-1.0218,-1.0712,-1.1525,-1.2295,-1.2774,-1.3065,-1.3152,-1.3152,-1.3647,-1.4179,-1.4527,-1.5297,-1.6089,-1.6802,-1.7286,-1.7747,-1.8302,-1.7343,-1.6977,-1.7598,-1.7825,-1.8115,-1.8507,-1.8916,-1.9192,-1.931,-1.9681,-2.007,-2.0483,-2.0516,-2.0715,-2.1181,-2.146,-2.1658,-2.1823,-2.2152,-2.1827,1.548,1.4318,1.3382,1.2194,1.1018,0.9837,0.0,0.0,0.6474,0.7144,0.8073,0.9228,1.0587,1.1398,1.249,1.4208,1.5554,0.0,0.0,0.0,0.0,0.0,0.0,0.0,0.0,0.0,0.0,0.0,0.0,0.0,0.0,1.6088,1.5913,1.4574,1.4981,1.4763,1.3916,1.431,1.413,1.3363,1.3355,1.2853,1.1764,1.1436,1.0876,0.0,0.0,0.0,0.0,0.7591,0.6695,0.5715,0.4977,0.4599,0.4405,0.3622,0.2843,0.212,0.1396,0.0615,-0.0112,-0.0838,-0.1062,-0.1229,-0.1952,-0.1675,-0.1062,-0.1062,-0.2174,-0.3456,-0.4294,-0.555,-0.6588,-0.6588,-0.8731,-1.0813,-1.0813,-1.19,-1.2881,-1.2881,-1.3372,-1.3779,-1.3779,-1.4283,-1.5096,-1.6207,-1.6378,-1.6802,-1.7933,-1.8106,-1.8302,-1.8817,-1.9295,-1.9339,-1.8829,-1.9325,-1.9645,-1.9585,-1.9645,-1.9874,-2.028,-2.028,-2.0516,-2.0991,-2.0991,-2.1181,-2.1582,-2.1582,-2.1823,-2.2282,-2.231,-2.1827,1.578,1.5255,1.4662,1.1701,1.0275,0.919,0.7741,0.0,0.5991,0.6244,0.7828,0.9494,1.0507,1.1525,1.2935,1.5273,1.607,0.0,0.0,0.0,0.0,0.0,0.0,0.0,0.0,0.0,0.0,0.0,0.0,0.0,0.0,1.6247,1.6606,1.5501,1.6251,1.6136,1.4876,1.5042,1.4391,1.2989,1.3025,1.2365,1.1041,1.0937,0.0,0.0,0.0,0.0,0.0,0.7652,0.6832,0.6248,0.5035,0.4222,0.3622,0.34,0.2508,0.1396,0.1174,0.0615,-0.0112,-0.0838,-0.1118,-0.1229,-0.1953,-0.2063,-0.1952,-0.251,-0.2954,-0.3619,-0.4831,-0.5878,-0.675,-0.7235,-0.911,-1.0813,-1.0813,-1.19,-1.2881,-1.2881,-1.3372,-1.3946,-1.4299,-1.5173,-1.612,-1.686,-1.7287,-1.784,-1.8574,-1.865,-1.8939,-1.9778,-1.9989,-2.0008,-1.9854,-2.0299,-2.0599,-2.0567,-2.0599,-2.0499,-2.0314,-2.0314,-2.0382,-2.0516,-2.0516,-2.0748,-2.1181,-2.146,-2.1823,-2.2282,-2.1691,-2.126,0.0,1.5097,1.4523,1.1919,1.0154,0.0,0.0,0.0,0.5789,0.6135,0.7843,0.9532,1.0386,1.1531,1.2891,1.4661,1.5759,0.0,0.0,0.0,0.0,0.0,0.0,0.0,0.0,0.0,0.0,0.0,0.0,0.0,0.0,0.0,1.6946,1.6002,1.6708,1.6494,1.5106,1.53,1.4713,1.329,1.3322,1.2694,1.1519,1.1161,0.0,0.0,0.0,0.0,0.0,0.7516,0.6769,0.648,0.5062,0.4015,0.3287,0.301,0.212,0.1062,0.0783,0.0224,-0.056,-0.1284,-0.1898,-0.2454,-0.2954,-0.2899,-0.2788,-0.3622,-0.379,-0.4009,-0.521,-0.6036,-0.6804,-0.7509,-0.9266,-1.0813,-1.0813,-1.19,-1.2978,-1.32,-1.3721,-1.4356,-1.5138,-1.6071,-1.6944,-1.7719,-1.8157,-1.8612,-1.9132,-1.9325,-1.96,-2.0019,-2.0348,-2.0483,-2.0314,-2.055,-2.0731,-2.0731,-2.0599,-2.0532,-2.055,-2.0382,-2.0434,-2.0765,-2.0649,-2.0731,-2.0991,-2.1399,-2.1764,-2.2032,-2.1323,-2.0991,0.0,0.0,0.0,0.0,0.0,0.0,0.0,0.0,0.0,0.6769,0.8103,0.9405,1.0309,1.1462,1.2405,1.2802,1.4805,0.0,0.0,0.0,0.0,0.0,0.0,0.0,0.0,0.0,0.0,0.0,0.0,0.0,0.0,0.0,1.6885,1.6056,1.6377,1.6016,1.4795,1.5117,1.4883,1.4038,1.4009,1.3553,1.2715,1.1856,0.0,0.0,0.0,0.0,0.0,0.7182,0.6588,0.648,0.5062,0.4015,0.3231,0.2454,0.1675,0.0951,0.0224,-0.0504,-0.1229,-0.2009,-0.3284,-0.4505,-0.4515,-0.4015,-0.3624,-0.4294,-0.4515,-0.4736,-0.5324,-0.6091,-0.6858,-0.761,-0.9325,-1.0813,-1.0914,-1.199,-1.3152,-1.3815,-1.4356,-1.5126,-1.6323,-1.6944,-1.7666,-1.8803,-1.8968,-1.9132,-1.9639,-2.0035,-2.0124,-1.9782,-2.0465,-2.0748,-2.0348,-2.0348,-2.0348,-2.0348,-2.0,-2.0139,-2.0926,-2.0516,-2.0667,-2.146,-2.1086,-2.0926,-2.0959,-2.1337,-2.1521,-2.1552,-2.115,-2.0926,1.5033,0.0,1.3668,1.2528,1.0821,0.0,0.0,0.0,0.0,0.0,0.0,0.0,0.0,1.1727,1.2478,1.3013,0.0,0.0,0.0,0.0,0.0,0.0,0.0,0.0,0.0,0.0,0.0,0.0,0.0,0.0,0.0,0.0,1.6037,1.5107,1.5186,1.5098,1.4785,1.4228,1.3848,1.3652,1.333,1.2544,1.1276,1.1089,0.0,0.0,0.0,0.0,0.8699,0.7182,0.6588,0.648,0.5062,0.3677,0.2454,0.2286,0.1396,0.0224,0.0056,-0.0504,-0.134,-0.2619,-0.3618,-0.4321,-0.4429,-0.4405,-0.4294,-0.446,-0.4897,-0.5324,-0.5487,-0.647,-0.7605,-0.8324,-0.9673,-1.1057,-1.2083,-1.2986,-1.3899,-1.4891,-1.556,-1.6341,-1.7437,-1.8115,-1.8712,-1.9406,-1.953,-1.9566,-1.969,-1.9782,-1.9909,-2.0124,-2.0348,-2.0416,-2.0314,-2.0616,-2.0829,-2.0829,-2.0764,-2.0632,-2.0483,-2.0348,-2.0246,-2.0139,-2.0035,-2.0174,-2.0449,-2.055,-2.0781,-2.1118,-2.0682,-2.0265,1.5505,1.4771,1.3777,1.2666,1.1263,1.0002,0.0,0.0,0.0,0.0,0.0,0.0,0.0,0.0,0.0,0.0,0.0,0.0,0.0,0.0,0.0,0.0,0.0,0.0,0.0,0.0,0.0,0.0,0.0,0.0,0.0,0.0,1.5723,1.4814,1.459,1.4547,1.4649,1.3886,1.355,1.3629,1.3125,1.2304,1.1266,1.1266,1.0712,0.0,0.0,0.0,0.9152,0.7711,0.6912,0.648,0.5386,0.3837,0.2174,0.2174,0.1284,0.0,0.0,-0.0727,-0.1836,-0.3232,-0.3974,-0.4362,-0.4494,-0.4736,-0.4948,-0.4948,-0.5163,-0.5601,-0.6333,-0.732,-0.833,-0.9065,-1.0477,-1.1944,-1.2628,-1.3752,-1.4858,-1.5748,-1.6583,-1.7424,-1.8285,-1.8902,-1.9369,-1.9639,-1.969,-1.969,-1.969,-1.9874,-1.9879,-1.9671,-1.9849,-1.9798,-1.9317,-1.9519,-1.9768,-2.0008,-2.0043,-2.0024,-1.9989,-2.0019,-1.9909,-1.9711,-1.969,-1.9818,-2.0035,-2.0227,-2.0449,-2.0682,-2.0416,-2.0058,1.5843,1.4918,1.3831,1.3096,1.1873,1.0833,0.0,0.0,0.0,0.0,0.0,0.0,0.0,0.0,0.0,0.0,0.0,0.0,0.0,0.0,0.0,0.0,0.0,0.0,0.0,0.0,0.0,0.0,0.0,0.0,0.0,0.0,0.0,1.4717,1.4268,1.412,1.4296,1.3691,1.3511,1.3637,1.3152,1.2461,1.1665,1.1665,1.1216,0.0,0.0,0.0,0.9555,0.8249,0.7289,0.6529,0.576,0.4216,0.2343,0.2232,0.134,0.0112,-0.0224,-0.1113,-0.2426,-0.3773,-0.4331,-0.4453,-0.4583,-0.5,-0.5462,-0.5707,-0.573,-0.5982,-0.7494,-0.833,-0.9051,-0.9902,-1.1499,-1.287,-1.3062,-1.438,-1.5736,-1.6494,-1.7342,-1.8115,-1.8765,-1.9207,-1.9442,-1.9442,-1.953,-1.9566,-1.9479,-1.9808,-1.9743,-1.8878,-1.9148,-1.9022,-1.8171,-1.8106,-1.8302,-1.8727,-1.8855,-1.9103,-1.96,-1.966,-1.969,-1.969,-1.969,-1.969,-1.969,-2.0035,-2.0227,-2.0227,-2.0227,-1.9919,1.4354,1.4308,1.4231,1.399,1.2936,1.1726,0.0,0.0,0.0,0.0,0.0,0.0,0.0,0.0,0.0,0.0,0.0,0.0,0.0,0.0,0.0,0.0,0.0,0.0,0.0,0.0,0.0,0.0,0.0,0.0,0.0,0.0,1.4756,1.4194,1.3818,1.3681,1.3884,1.329,1.2988,1.3065,1.2929,1.2206,1.0965,1.0965,1.0261,0.0,0.0,0.8956,0.8903,0.8043,0.7289,0.6529,0.576,0.4553,0.3121,0.2454,0.1675,0.0671,-0.1228,-0.1918,-0.2309,-0.3902,-0.4273,-0.4212,-0.48,-0.5097,-0.5412,-0.6662,-0.7158,-0.7499,-0.8311,-0.9065,-0.9953,-1.1216,-1.2141,-1.311,-1.4168,-1.5039,-1.6034,-1.7558,-1.7612,-1.7733,-1.8727,-1.8574,-1.8341,-1.8341,-1.8727,-1.8855,-1.8419,-1.8803,-1.8878,-1.8302,-1.8288,-1.8288,-1.8106,-1.8106,-1.8145,-1.8224,-1.865,-1.9118,-1.966,-1.9675,-1.969,-1.969,-1.969,-1.969,-1.969,-1.9747,-1.9782,-1.9782,-1.9782,-1.9266,1.4646,1.4299,1.3992,1.4317,1.3921,1.3299,0.0,0.0,0.0,0.0,0.0,0.0,0.0,0.0,0.0,0.0,0.0,0.0,0.0,0.0,0.0,0.0,0.0,0.0,0.0,0.0,0.0,0.0,0.0,0.0,0.0,0.0,1.4238,1.3809,1.3613,1.3441,1.3286,1.3065,1.3055,1.3372,1.3065,1.2157,1.0813,1.1166,1.0618,0.9361,0.0,0.9361,0.9309,0.858,0.7883,0.7128,0.6367,0.5206,0.3773,0.2173,0.1118,0.0279,-0.1476,-0.2123,-0.2346,-0.386,-0.4253,-0.4257,-0.4884,-0.5413,-0.6067,-0.7478,-0.7961,-0.8294,-0.9068,-1.0092,-1.1116,-1.2092,-1.311,-1.4064,-1.5005,-1.5884,-1.6744,-1.7544,-1.7706,-1.7907,-1.838,-1.8263,-1.8106,-1.8106,-1.8302,-1.838,-1.8145,-1.8341,-1.8263,-1.7747,-1.7423,-1.7355,-1.7639,-1.7409,-1.7605,-1.8468,-1.8765,-1.9132,-1.969,-1.969,-1.969,-1.969,-1.969,-1.969,-1.969,-1.969,-1.969,-1.969,-1.969,-1.9281,1.4659,1.4111,1.351,1.4222,0.0,0.0,0.0,0.0,0.0,0.0,0.0,0.0,0.0,0.0,0.0,0.0,0.0,0.0,0.0,0.0,0.0,0.0,0.0,0.0,0.0,0.0,0.0,0.0,0.0,0.0,0.0,0.0,1.3838,1.3516,1.3408,1.3153,1.2666,1.2822,1.3152,1.36,1.2939,1.1999,1.0813,1.1166,1.0669,0.9562,0.9562,0.9562,0.951,0.8844,0.8103,0.7343,0.6637,0.5311,0.3657,0.2006,0.0783,-0.0223,-0.1573,-0.2131,-0.2443,-0.3845,-0.4379,-0.4554,-0.5168,-0.599,-0.6912,-0.8204,-0.8799,-0.9205,-1.0038,-1.1015,-1.2003,-1.2831,-1.3794,-1.4698,-1.5454,-1.6275,-1.6967,-1.7271,-1.7544,-1.7787,-1.7907,-1.7827,-1.7787,-1.7907,-1.7907,-1.7947,-1.8066,-1.8106,-1.7947,-1.7544,-1.7209,-1.7297,-1.793,-1.7609,-1.7932,-1.9317,-1.9192,-1.9281,-1.969,-1.969,-1.969,-1.969,-1.969,-1.969,-1.969,-1.969,-1.969,-1.969,-1.969,-1.9406,1.3317,1.3063,1.3013,1.3541,1.3661,0.0,1.4055,1.3874,0.0,0.0,0.0,0.0,0.0,0.0,0.0,0.0,0.0,0.0,0.0,0.0,0.0,0.0,0.0,0.0,0.0,0.0,0.0,0.0,0.0,0.0,0.0,0.0,0.0,1.3506,1.3135,1.2588,1.1873,1.2559,1.2929,1.2968,1.2236,1.1516,1.0762,1.0218,0.9562,0.8857,0.8857,0.8857,0.8804,0.8103,0.7343,0.6588,0.5869,0.4271,0.2341,0.2174,0.1229,-0.0224,-0.167,-0.2171,-0.2452,-0.4003,-0.4831,-0.5328,-0.5934,-0.6708,-0.7678,-0.8976,-0.993,-1.0772,-1.1458,-1.1715,-1.211,-1.3426,-1.3815,-1.4179,-1.5353,-1.5676,-1.6058,-1.7092,-1.6909,-1.6752,-1.7271,-1.6951,-1.6795,-1.7271,-1.7353,-1.7544,-1.8027,-1.8106,-1.8106,-1.8066,-1.8398,-1.9016,-1.9901,-1.994,-2.0208,-2.0813,-2.0104,-1.9639,-1.969,-1.969,-1.969,-1.969,-1.969,-1.969,-1.969,-1.969,-1.969,-1.969,-1.969,-1.9406,1.4601,1.4219,1.3994,1.4152,1.4042,0.0,0.0,0.0,0.0,0.0,0.0,0.0,0.0,0.0,0.0,0.0,0.0,0.0,0.0,0.0,0.0,0.0,0.0,0.0,0.0,0.0,0.0,0.0,0.0,0.0,0.0,0.0,0.0,1.3125,1.2969,1.2559,1.1814,1.208,1.199,1.1584,1.1724,1.1216,1.0167,0.9917,0.9413,0.8752,0.8315,0.8103,0.8049,0.7343,0.6858,0.6529,0.576,0.4161,0.2174,0.2174,0.1284,-0.0224,-0.1675,-0.2174,-0.2454,-0.4012,-0.4843,-0.5431,-0.6037,-0.681,-0.7829,-0.9558,-1.0392,-1.0965,-1.1616,-1.2138,-1.2696,-1.3589,-1.3815,-1.405,-1.4869,-1.532,-1.572,-1.6145,-1.6398,-1.668,-1.7188,-1.7105,-1.7188,-1.7706,-1.7787,-1.7867,-1.8066,-1.8106,-1.821,-1.8517,-1.9385,-1.9791,-1.9322,-2.0334,-2.1083,-2.1303,-2.0797,-2.0379,-2.0089,-2.033,-2.0364,-2.0089,-2.0054,-2.0054,-2.0054,-1.9818,-1.969,-1.969,-1.969,-1.9406,1.5798,1.528,1.4866,0.0,0.0,0.0,0.0,0.0,0.0,0.0,0.0,0.0,0.0,0.0,0.0,0.0,0.0,0.0,0.0,0.0,0.0,0.0,0.0,0.0,0.0,0.0,0.0,0.0,0.0,0.0,0.0,0.0,0.0,0.0,1.2881,1.2559,1.1814,1.1814,1.1306,1.0356,1.0797,1.0605,0.9814,0.9562,0.9099,0.8427,0.7937,0.7563,0.7289,0.6583,0.615,0.5882,0.5382,0.3944,0.2174,0.2174,0.1284,-0.0224,-0.1675,-0.2174,-0.2454,-0.4012,-0.4877,-0.5466,-0.6144,-0.6925,-0.7909,-0.9711,-1.0482,-1.0965,-1.1616,-1.2344,-1.3065,-1.3637,-1.3637,-1.3732,-1.4525,-1.5017,-1.5365,-1.5543,-1.6213,-1.6879,-1.7229,-1.7572,-1.792,-1.8288,-1.8313,-1.8391,-1.8574,-1.8458,-1.866,-1.9417,-2.0377,-2.0675,-1.9902,-2.1023,-2.174,-2.174,-2.1552,-2.1086,-2.0348,-2.0616,-2.0616,-2.0314,-2.0314,-2.0314,-2.0314,-1.9717,-1.9442,-1.9442,-1.9281,-1.9006,1.6615,1.6009,1.5435,0.0,0.0,0.0,0.0,0.0,0.0,0.0,0.0,0.0,0.0,0.0,0.0,0.0,0.0,0.0,0.0,0.0,0.0,0.0,0.0,0.0,0.0,0.0,0.0,0.0,0.0,0.0,0.0,0.0,0.0,0.0,1.2881,1.2559,1.1814,1.1814,1.0978,0.9377,0.9377,0.9542,0.9755,0.9099,0.8368,0.7711,0.7664,0.7283,0.6529,0.5814,0.5109,0.4519,0.4519,0.3566,0.223,0.223,0.1284,-0.0224,-0.1675,-0.2174,-0.2454,-0.4012,-0.4948,-0.5651,-0.6367,-0.7128,-0.7984,-0.9399,-1.0261,-1.0965,-1.1616,-1.2344,-1.3065,-1.3637,-1.3324,-1.3248,-1.4433,-1.4709,-1.488,-1.5499,-1.6532,-1.7312,-1.7312,-1.8129,-1.8806,-1.8916,-1.8835,-1.9008,-1.9639,-1.9244,-1.9441,-2.0846,-2.1368,-2.1794,-2.2265,-2.231,-2.231,-2.231,-2.231,-2.1705,-2.0348,-2.0314,-2.0314,-2.0314,-2.0314,-2.0314,-2.0299,-1.9346,-1.8893,-1.8893,-1.8341,-1.8106,1.7406,1.7204,0.0,0.0,0.0,0.0,0.0,0.0,0.0,0.0,0.0,0.0,0.0,0.0,0.0,0.0,0.0,0.0,0.0,0.0,0.0,0.0,0.0,0.0,0.0,0.0,0.0,0.0,0.0,0.0,0.0,0.0,0.0,0.0,1.2881,1.2559,1.1814,1.1155,1.0343,0.9377,0.8678,0.8387,0.847,0.8239,0.8036,0.7783,0.6878,0.6411,0.6248,0.5225,0.468,0.4519,0.4519,0.3901,0.2899,0.2397,0.1619,0.0559,-0.0894,-0.1786,-0.2343,-0.3345,-0.4831,-0.6312,-0.6534,-0.745,-0.8633,-0.9555,-0.9969,-1.0261,-1.0914,-1.1625,-1.2286,-1.2997,-1.3017,-1.3027,-1.3344,-1.4107,-1.4869,-1.5395,-1.6506,-1.7544,-1.8302,-1.8674,-1.9029,-1.9406,-1.9464,-1.95,-1.969,-1.9823,-1.9856,-1.9729,-2.107,-2.1799,-2.1431,-2.2131,-2.2573,-2.2573,-2.2096,-2.1491,-2.0829,-2.1385,-2.1415,-2.0797,-2.0797,-2.0797,-2.0797,-1.9528,-1.8893,-1.8893,-1.8341,-1.7907,1.8557,0.0,0.0,0.0,0.0,0.0,0.0,0.0,0.0,0.0,0.0,0.0,0.0,0.0,0.0,0.0,0.0,0.0,0.0,0.0,0.0,0.0,0.0,0.0,0.0,0.0,0.0,0.0,0.0,0.0,0.0,0.0,0.0,0.0,1.2881,1.2666,1.2236,1.1243,1.0354,0.9597,0.8533,0.7866,0.753,0.7775,0.7637,0.705,0.578,0.5255,0.5267,0.4561,0.4287,0.4287,0.4287,0.3836,0.3115,0.2407,0.1696,0.0876,-0.0602,-0.1587,-0.2349,-0.3059,-0.4609,-0.6204,-0.6534,-0.745,-0.8527,-0.9204,-0.9614,-0.9961,-1.0618,-1.1316,-1.1922,-1.2344,-1.2666,-1.2978,-1.319,-1.4179,-1.5196,-1.5748,-1.6985,-1.8145,-1.8779,-1.9214,-1.9522,-1.9675,-1.953,-1.9332,-1.9095,-1.9636,-1.9871,-1.9406,-2.0734,-2.1483,-2.1052,-2.1647,-2.2012,-2.2012,-2.1609,-2.1102,-2.0467,-2.1306,-2.1446,-2.0731,-2.0534,-2.0434,-2.0434,-1.8985,-1.8131,-1.7906,-1.7612,-1.7162,1.9861,0.0,0.0,0.0,0.0,0.0,0.0,0.0,0.0,0.0,0.0,0.0,0.0,0.0,0.0,0.0,0.0,0.0,0.0,0.0,0.0,0.0,0.0,0.0,0.0,0.0,0.0,0.0,0.0,0.0,0.0,0.0,0.0,0.0,1.2881,1.2881,1.2881,1.1741,1.0751,0.0,0.8766,0.7831,0.7083,0.755,0.7074,0.577,0.4579,0.4048,0.3999,0.4016,0.4019,0.4019,0.4019,0.3643,0.3064,0.2272,0.1638,0.0951,-0.0477,-0.1537,-0.2331,-0.3079,-0.4328,-0.576,-0.6475,-0.7235,-0.7937,-0.8593,-0.9263,-0.9865,-1.0517,-1.1216,-1.1765,-1.1855,-1.2442,-1.3152,-1.3721,-1.4767,-1.5768,-1.6409,-1.7813,-1.893,-1.8968,-1.9636,-2.0039,-1.9639,-1.9132,-1.865,-1.8185,-1.891,-1.9462,-1.9462,-2.0283,-2.0813,-2.0813,-2.0846,-2.0846,-2.0846,-2.0782,-2.0353,-1.9468,-2.0418,-2.0682,-2.0162,-1.9662,-1.9483,-1.9534,-1.7932,-1.687,-1.6378,-1.6355,-1.6051,0.0,0.0,0.0,0.0,0.0,0.0,0.0,0.0,0.0,0.0,0.0,0.0,0.0,0.0,0.0,0.0,0.0,0.0,0.0,0.0,0.0,0.0,0.0,0.0,0.0,0.0,0.0,0.0,0.0,0.0,0.0,0.0,0.0,1.2881,1.2881,1.2881,1.2881,1.1348,1.0573,0.0,0.8625,0.7708,0.767,0.6903,0.5897,0.4741,0.4621,0.4262,0.3849,0.3972,0.4019,0.4019,0.4019,0.3939,0.366,0.2442,0.1934,0.1635,0.0263,-0.1114,-0.2338,-0.3044,-0.4674,-0.6475,-0.7235,-0.799,-0.8593,-0.8752,-0.891,-0.9159,-0.9865,-1.0517,-1.1258,-1.2337,-1.313,-1.3768,-1.4288,-1.5372,-1.6481,-1.7491,-1.8324,-1.9043,-1.9442,-1.9354,-1.9029,-1.8535,-1.8341,-1.8224,-1.8106,-1.8288,-1.843,-1.843,-1.8919,-1.9258,-1.9258,-1.9572,-1.9732,-1.9732,-1.9295,-1.8768,-1.8228,-1.9597,-1.9982,-1.9126,-1.8527,-1.8437,-1.8979,-1.692,-1.6053,-1.6391,-1.5499,-1.5287,0.0,0.0,0.0,0.0,0.0,0.0,0.0,0.0,0.0,0.0,0.0,0.0,0.0,0.0,0.0,0.0,0.0,0.0,0.0,0.0,0.0,0.0,0.0,0.0,0.0,0.0,0.0,0.0,0.0,0.0,0.0,1.3232,1.2881,1.2881,1.2881,1.2881,1.2881,1.1593,1.0758,1.0365,0.8814,0.7589,0.6628,0.6039,0.5265,0.4395,0.4235,0.4005,0.3697,0.3778,0.3809,0.3809,0.3809,0.3849,0.3762,0.2397,0.1958,0.1771,0.0051,-0.1243,-0.2337,-0.3055,-0.4807,-0.6696,-0.7074,-0.7943,-0.8778,-0.8637,-0.8604,-0.8762,-0.9528,-1.0011,-1.0632,-1.2168,-1.3393,-1.4448,-1.5283,-1.6358,-1.7424,-1.8285,-1.8902,-1.9281,-1.9332,-1.8855,-1.8249,-1.7423,-1.7531,-1.7409,-1.6579,-1.6957,-1.7164,-1.6889,-1.7316,-1.7611,-1.7611,-1.7807,-1.7921,-1.7921,-1.7611,-1.7234,-1.6721,-1.7517,-1.782,-1.7611,-1.7006,-1.6883,-1.7222,-1.5799,-1.5139,-1.5151,-1.5129,-1.5141,0.0,0.0,0.0,0.0,0.0,0.0,0.0,0.0,0.0,0.0,0.0,0.0,0.0,0.0,0.0,0.0,0.0,0.0,0.0,0.0,0.0,0.0,0.0,0.0,0.0,0.0,0.0,0.0,0.0,0.0,1.3506,1.2997,1.2774,1.2881,1.2666,1.2676,1.2881,1.1786,1.0848,1.0041,0.9064,0.7419,0.5303,0.5303,0.4913,0.422,0.3796,0.3581,0.3581,0.3581,0.3581,0.3581,0.3581,0.3604,0.3469,0.2252,0.1786,0.1512,-0.0394,-0.1547,-0.2307,-0.3182,-0.4782,-0.6431,-0.6573,-0.7534,-0.8469,-0.8285,-0.8237,-0.8525,-0.9453,-0.9781,-1.0237,-1.1935,-1.3482,-1.4902,-1.6009,-1.7179,-1.8154,-1.8674,-1.9132,-1.9214,-1.8494,-1.8048,-1.7396,-1.6168,-1.6511,-1.6305,-1.488,-1.5419,-1.5792,-1.5384,-1.5564,-1.5745,-1.5856,-1.5856,-1.5856,-1.5856,-1.5852,-1.5684,-1.5227,-1.5118,-1.5274,-1.5695,-1.5392,-1.525,-1.5339,-1.4721,-1.4247,-1.3956,-1.4858,-1.5141,0.0,0.0,0.0,0.0,0.0,0.0,0.0,0.0,0.0,0.0,0.0,0.0,0.0,0.0,0.0,0.0,0.0,0.0,0.0,0.0,0.0,0.0,0.0,0.0,0.0,0.0,0.0,0.0,0.0,0.0,1.3486,1.251,1.2236,1.2881,1.1742,1.1692,1.2881,1.0774,1.0015,1.0642,0.8853,0.7056,0.5303,0.5303,0.4705,0.3707,0.3622,0.3581,0.3581,0.3581,0.3581,0.3581,0.3581,0.3271,0.2742,0.2068,0.1486,0.0862,-0.0473,-0.1389,-0.2273,-0.3613,-0.4707,-0.5606,-0.6367,-0.7039,-0.7491,-0.7455,-0.7684,-0.8255,-0.939,-1.0018,-1.078,-1.2549,-1.3824,-1.4812,-1.546,-1.6931,-1.8131,-1.8185,-1.8263,-1.7873,-1.6467,-1.6427,-1.6131,-1.465,-1.4775,-1.496,-1.4744,-1.4332,-1.4264,-1.4732,-1.3829,-1.3414,-1.3989,-1.4046,-1.4046,-1.4046,-1.4085,-1.4106,-1.4029,-1.3505,-1.3286,-1.3362,-1.3805,-1.4261,-1.4778,-1.3705,-1.3658,-1.456,-1.419,-1.4549,0.0,0.0,0.0,0.0,0.0,0.0,0.0,0.0,0.0,0.0,0.0,0.0,0.0,0.0,0.0,0.0,0.0,0.0,0.0,0.0,0.0,0.0,0.0,0.0,0.0,0.0,0.0,0.0,0.0,1.2959,1.3145,1.228,1.1972,1.2295,1.1325,1.1124,1.1742,1.0268,0.9426,0.9146,0.7948,0.6677,0.5303,0.5303,0.4661,0.3581,0.3581,0.3581,0.3578,0.3214,0.3078,0.3078,0.2724,0.241,0.214,0.1518,0.0893,0.0224,-0.1077,-0.1947,-0.268,-0.3736,-0.4611,-0.5233,-0.5622,-0.6449,-0.7144,-0.6948,-0.7295,-0.7845,-0.8693,-0.9197,-0.9889,-1.1618,-1.2768,-1.3619,-1.4383,-1.6145,-1.7612,-1.7612,-1.7328,-1.6837,-1.5805,-1.5516,-1.5093,-1.4091,-1.4381,-1.4318,-1.3205,-1.3148,-1.2994,-1.2561,-1.2006,-1.1899,-1.2561,-1.2667,-1.2822,-1.3256,-1.3294,-1.3304,-1.3286,-1.3375,-1.3412,-1.342,-1.3324,-1.36,-1.419,-1.3647,-1.3826,-1.4698,-1.4778,-1.5084,0.0,0.0,0.0,0.0,0.0,0.0,0.0,0.0,0.0,0.0,0.0,0.0,0.0,0.0,0.0,0.0,0.0,0.0,0.0,0.0,0.0,0.0,0.0,0.0,0.0,0.0,0.0,0.0,0.0,1.2822,1.2618,1.1931,1.1566,1.1566,1.0712,1.0466,1.0813,0.9914,0.8899,0.7663,0.707,0.6252,0.5303,0.513,0.453,0.3578,0.3442,0.3353,0.3306,0.2721,0.2453,0.2406,0.1962,0.1697,0.1518,0.1073,0.0402,-0.0403,-0.1572,-0.2337,-0.296,-0.3717,-0.43,-0.4788,-0.4788,-0.5591,-0.6476,-0.6338,-0.6787,-0.7404,-0.8034,-0.8532,-0.927,-1.0766,-1.1734,-1.2686,-1.396,-1.546,-1.6583,-1.6738,-1.6353,-1.5724,-1.4987,-1.4665,-1.4193,-1.3273,-1.3627,-1.3453,-1.2003,-1.2092,-1.2043,-1.1375,-1.1023,-1.1065,-1.1765,-1.1814,-1.212,-1.2852,-1.3035,-1.318,-1.3334,-1.3807,-1.4017,-1.405,-1.361,-1.3563,-1.405,-1.405,-1.434,-1.496,-1.5377,-1.5676,0.0,0.0,0.0,0.0,0.0,0.0,0.0,0.0,0.0,0.0,0.0,0.0,0.0,0.0,0.0,0.0,0.0,0.0,0.0,0.0,0.0,0.0,0.0,0.0,0.0,0.0,0.0,0.0,0.0,1.2608,1.1873,1.1216,1.0864,1.0864,0.9562,0.951,1.0762,0.958,0.8326,0.7021,0.652,0.5916,0.526,0.4696,0.4136,0.3578,0.299,0.2763,0.2719,0.2095,0.1828,0.183,0.183,0.1429,0.094,0.0895,0.0134,-0.0939,-0.1566,-0.2192,-0.2837,-0.3565,-0.3849,-0.3876,-0.4024,-0.4397,-0.4916,-0.5416,-0.6099,-0.6867,-0.768,-0.8618,-0.962,-1.0578,-1.1322,-1.2503,-1.4891,-1.5106,-1.4994,-1.5516,-1.5151,-1.445,-1.3405,-1.3567,-1.3283,-1.1602,-1.1677,-1.1904,-1.1814,-1.1266,-1.1375,-1.2666,-1.1584,-1.1065,-1.1765,-1.1814,-1.2101,-1.2773,-1.3412,-1.3996,-1.456,-1.462,-1.4665,-1.4652,-1.4617,-1.4617,-1.4652,-1.4652,-1.4971,-1.5539,-1.5591,-1.5908,0.0,0.0,0.0,0.0,0.0,0.0,0.0,0.0,0.0,0.0,0.0,0.0,0.0,0.0,0.0,0.0,0.0,0.0,0.0,0.0,0.0,0.0,0.0,0.0,0.0,0.0,0.0,0.0,0.0,0.0,1.1814,1.1166,1.0618,1.0167,0.9256,0.8824,0.8958,0.8329,0.7681,0.6979,0.6477,0.5873,0.526,0.4696,0.4092,0.3578,0.2943,0.2719,0.263,0.1652,0.1206,0.1163,0.0806,0.0269,-0.0268,-0.0268,-0.1027,-0.2095,-0.2317,-0.2765,-0.3315,-0.3594,-0.3656,-0.3666,-0.3721,-0.41,-0.4625,-0.5203,-0.5979,-0.6763,-0.7466,-0.8431,-0.9579,-1.0988,-1.1939,-1.2735,-1.3616,-1.4283,-1.4652,-1.4435,-1.4261,-1.3867,-1.3111,-1.2715,-1.2464,-1.2301,-1.1987,-1.1814,-1.1814,-1.1616,-1.1466,-1.1534,-1.1124,-1.1065,-1.1765,-1.219,-1.2725,-1.3416,-1.4349,-1.4998,-1.5217,-1.5605,-1.5776,-1.5772,-1.5443,-1.5107,-1.4698,-1.471,-1.4824,-1.5027,-1.5037,-1.5357,0.0,0.0,0.0,0.0,0.0,0.0,0.0,0.0,0.0,0.0,0.0,0.0,0.0,0.0,0.0,0.0,0.0,0.0,0.0,0.0,0.0,0.0,0.0,0.0,0.0,0.0,0.0,0.0,0.0,0.0,1.1166,1.072,1.0167,0.9465,0.9008,0.8524,0.7888,0.7537,0.7148,0.6725,0.5953,0.5394,0.5,0.4395,0.3921,0.3534,0.2765,0.2406,0.2317,0.1295,0.0761,0.0538,-0.0045,-0.0538,-0.094,-0.1118,-0.183,-0.2719,-0.2719,-0.3078,-0.3581,-0.3581,-0.3581,-0.3581,-0.3581,-0.3965,-0.4517,-0.513,-0.6018,-0.6902,-0.7354,-0.8498,-0.9883,-1.1323,-1.23,-1.2881,-1.2881,-1.3525,-1.3978,-1.36,-1.3505,-1.3372,-1.2978,-1.2501,-1.2236,-1.2501,-1.2129,-1.1814,-1.1814,-1.1814,-1.1805,-1.1805,-1.1616,-1.1832,-1.2686,-1.3143,-1.3757,-1.4607,-1.5564,-1.607,-1.6083,-1.6501,-1.6517,-1.6163,-1.5787,-1.5091,-1.4041,-1.4507,-1.4698,-1.4696,-1.4688,-1.4812,0.0,0.0,0.0,0.0,0.0,0.0,0.0,0.0,0.0,0.0,0.0,0.0,0.0,0.0,0.0,0.0,0.0,0.0,0.0,0.0,0.0,0.0,0.0,0.0,0.0,0.0,0.0,0.0,0.0,1.0517,0.9865,0.9814,0.9458,0.8804,0.8798,0.8517,0.7902,0.7385,0.6782,0.619,0.5,0.4387,0.4391,0.3836,0.3578,0.349,0.2322,0.1784,0.1741,0.1118,0.0538,-0.009,-0.0672,-0.094,-0.1029,-0.1607,-0.223,-0.2719,-0.2719,-0.3123,-0.3581,-0.3581,-0.3581,-0.3626,-0.3622,-0.4008,-0.4517,-0.5173,-0.6174,-0.7168,-0.7451,-0.8951,-1.0649,-1.159,-1.2365,-1.2861,-1.2881,-1.2881,-1.2881,-1.2881,-1.2881,-1.2881,-1.2881,-1.2881,-1.2618,-1.1922,-1.1814,-1.1864,-1.1864,-1.1904,-1.2395,-1.3721,-1.3324,-1.3471,-1.4655,-1.4697,-1.5161,-1.6366,-1.6927,-1.7274,-1.7325,-1.7312,-1.678,-1.5648,-1.555,-1.4637,-1.2782,-1.4036,-1.4618,-1.4638,-1.4642,-1.4356,1.174,0.0,0.0,0.0,0.0,0.0,0.0,0.0,0.0,0.0,0.0,0.0,0.0,0.0,0.0,0.0,0.0,0.0,0.0,0.0,0.0,0.0,0.0,0.0,0.0,0.0,0.0,0.0,1.1166,1.0712,1.0517,0.9614,0.9008,0.8811,0.8604,0.8417,0.825,0.7245,0.6647,0.6455,0.5071,0.4387,0.4347,0.3382,0.2943,0.2898,0.2142,0.1563,0.1118,0.0493,-0.009,-0.0672,-0.0851,-0.1429,-0.2228,-0.2406,-0.281,-0.335,-0.335,-0.3442,-0.3581,-0.3581,-0.3581,-0.3667,-0.4049,-0.426,-0.4604,-0.5653,-0.6325,-0.7015,-0.8312,-0.9684,-1.0849,-1.1505,-1.202,-1.25,-1.2812,-1.2881,-1.2881,-1.2881,-1.2881,-1.2881,-1.2881,-1.2452,-1.2236,-1.2559,-1.256,-1.2686,-1.3178,-1.3975,-1.4631,-1.4982,-1.5215,-1.5475,-1.5837,-1.6244,-1.6604,-1.6982,-1.7896,-1.8271,-1.7882,-1.7449,-1.6896,-1.6201,-1.4449,-1.3337,-1.2782,-1.3162,-1.3065,-1.2651,-1.3614,-1.3728,0.0,0.0,0.0,0.0,0.0,0.0,1.3114,1.281,0.0,0.0,0.0,0.0,0.0,0.0,0.0,0.0,0.0,0.0,0.0,0.0,0.0,0.0,0.0,0.0,0.0,0.0,0.0,1.185,1.1166,1.0661,1.0415,0.9361,0.8804,0.8804,0.8644,0.8497,0.8427,0.7074,0.6383,0.6185,0.475,0.3913,0.3686,0.299,0.2582,0.2277,0.1682,0.1227,0.0851,0.0269,-0.0225,-0.0583,-0.1073,-0.1697,-0.2408,-0.2898,-0.3306,-0.3581,-0.3581,-0.3581,-0.3581,-0.3581,-0.3581,-0.3707,-0.422,-0.4561,-0.4957,-0.5916,-0.6837,-0.7902,-0.9338,-1.0329,-1.1085,-1.1504,-1.1925,-1.2318,-1.2579,-1.3011,-1.3252,-1.2939,-1.2881,-1.2881,-1.2881,-1.2735,-1.2803,-1.3228,-1.3484,-1.382,-1.4424,-1.5071,-1.5731,-1.6384,-1.6355,-1.6579,-1.7281,-1.7444,-1.7565,-1.7557,-1.8411,-1.8559,-1.7784,-1.7196,-1.6504,-1.5721,-1.4039,-1.2925,-1.2394,-1.2391,-1.2361,-1.2289,-1.3314,-1.3594,0.0,0.0,0.0,0.0,0.0,0.0,1.1772,1.168,1.1569,0.0,0.0,0.0,0.0,0.0,0.0,0.0,0.0,0.0,0.0,0.0,0.0,0.0,0.0,0.0,0.0,1.2898,1.2326,1.185,1.1166,1.0517,0.9814,0.9159,0.8804,0.8804,0.8804,0.8684,0.8424,0.6936,0.6055,0.5759,0.428,0.3306,0.2677,0.2638,0.2263,0.1655,0.107,0.0788,0.0761,0.0225,-0.0045,-0.0225,-0.1297,-0.1791,-0.2064,-0.309,-0.3544,-0.3602,-0.3585,-0.3581,-0.3581,-0.3581,-0.3622,-0.3796,-0.4351,-0.4913,-0.5524,-0.6221,-0.7637,-0.9181,-1.0223,-1.0813,-1.1251,-1.1485,-1.1905,-1.2246,-1.2288,-1.3098,-1.3619,-1.3027,-1.2996,-1.3113,-1.3113,-1.3521,-1.3846,-1.3982,-1.4482,-1.507,-1.5688,-1.5893,-1.6552,-1.7932,-1.7304,-1.741,-1.8846,-1.848,-1.8178,-1.8195,-1.8574,-1.8363,-1.7324,-1.6705,-1.5877,-1.4722,-1.4016,-1.3176,-1.2096,-1.1981,-1.2234,-1.2909,-1.3662,-1.3995,0.0,0.0,0.0,0.0,0.0,0.0,1.1648,1.1088,1.0592,0.0,0.0,0.0,0.0,0.0,0.0,0.0,0.0,0.0,0.0,0.0,0.0,0.0,0.0,0.0,0.0,1.2741,1.2326,1.185,1.1166,1.0517,0.9814,0.9159,0.8804,0.8804,0.8804,0.8778,0.8724,0.7022,0.6186,0.6086,0.4381,0.3306,0.2674,0.2203,0.1665,0.1029,0.0452,0.0181,0.018,0.0045,-0.0269,-0.0761,-0.0984,-0.1732,-0.2706,-0.2845,-0.3233,-0.3734,-0.3619,-0.3581,-0.3581,-0.3581,-0.388,-0.4347,-0.4957,-0.5524,-0.6221,-0.728,-0.8353,-0.9288,-0.963,-1.0335,-1.0964,-1.1013,-1.1439,-1.1912,-1.2225,-1.2743,-1.3136,-1.3022,-1.3716,-1.434,-1.434,-1.4103,-1.4183,-1.5058,-1.5598,-1.6282,-1.725,-1.8493,-1.9405,-1.9717,-1.9919,-2.0046,-2.0004,-1.9583,-1.9119,-1.876,-1.8422,-1.7967,-1.7313,-1.6728,-1.5863,-1.4743,-1.3598,-1.3326,-1.3959,-1.3057,-1.2669,-1.2878,-1.4438,-1.5171,0.0,0.0,0.0,1.0658,0.0,0.0,0.0,1.0636,1.0417,0.0,0.0,0.0,0.0,0.0,0.0,0.0,0.0,0.0,0.0,0.0,0.0,0.0,0.0,0.0,0.0,1.37,1.337,1.2861,1.1557,1.0661,1.0312,0.9361,0.8804,0.8804,0.8804,0.8646,0.8262,0.6895,0.6014,0.562,0.4264,0.3306,0.2677,0.2094,0.1486,0.0852,0.0281,0.0,0.0,0.0,-0.018,-0.0494,-0.0779,-0.154,-0.2461,-0.2641,-0.3164,-0.3771,-0.3629,-0.3581,-0.3581,-0.3581,-0.3965,-0.4517,-0.513,-0.6124,-0.7238,-0.807,-0.8973,-0.9714,-0.9867,-1.0385,-1.09,-1.0955,-1.1365,-1.1855,-1.233,-1.3167,-1.3845,-1.3845,-1.4685,-1.5142,-1.4355,-1.4375,-1.472,-1.529,-1.627,-1.7357,-1.8258,-1.9584,-2.0623,-2.1097,-2.1197,-2.1071,-2.0687,-1.9982,-1.9273,-1.8562,-1.7986,-1.7446,-1.6913,-1.6309,-1.5709,-1.5097,-1.4709,-1.4914,-1.5683,-1.5426,-1.5057,-1.4596,-1.6003,-1.6658,0.0,0.0,0.0,0.0,0.0,1.0557,0.0,0.0,0.0,0.9905,0.0,0.0,0.0,0.0,0.0,0.0,0.0,0.0,0.0,0.0,0.0,0.0,0.0,0.0,0.0,1.49,1.4567,1.3873,1.2264,1.1184,1.0821,0.9666,0.8956,0.8804,0.8804,0.8427,0.7723,0.6695,0.5819,0.5086,0.4114,0.3331,0.2679,0.2119,0.1485,0.0854,0.024,0.0,0.0,0.0,-0.009,-0.0225,-0.0697,-0.1369,-0.2038,-0.2537,-0.3152,-0.3771,-0.3629,-0.3667,-0.3751,-0.3751,-0.4264,-0.5034,-0.5599,-0.6839,-0.816,-0.8716,-0.9418,-1.004,-1.0244,-1.0537,-1.0814,-1.095,-1.1394,-1.192,-1.2389,-1.368,-1.4699,-1.4581,-1.5405,-1.5743,-1.4541,-1.4854,-1.5401,-1.5947,-1.712,-1.8335,-1.9437,-2.0487,-2.1404,-2.2218,-2.1874,-2.1474,-2.1133,-2.0075,-1.9075,-1.8166,-1.7501,-1.6969,-1.6522,-1.5942,-1.5684,-1.5857,-1.6176,-1.6648,-1.7267,-1.778,-1.7591,-1.6755,-1.7772,-1.8244,0.0,0.0,0.0,0.0,1.0624,0.0,0.0,0.0,0.9899,0.8948,0.0,0.0,0.0,0.0,0.0,0.0,0.0,0.0,0.0,0.0,0.0,0.0,0.0,0.0,0.0,0.0,1.4979,1.3894,1.3481,1.2563,1.088,1.0115,0.9413,0.8804,0.8804,0.8427,0.7723,0.6695,0.5819,0.5091,0.4222,0.3419,0.2677,0.2199,0.1586,0.0851,0.0272,0.0,0.0,0.0,-0.0314,-0.0806,-0.0855,-0.1336,-0.208,-0.2549,-0.3169,-0.3771,-0.3629,-0.3921,-0.4303,-0.4303,-0.5417,-0.6826,-0.744,-0.8062,-0.8716,-0.9239,-0.9466,-0.9692,-1.0176,-1.0312,-1.0449,-1.0916,-1.1394,-1.192,-1.2389,-1.3727,-1.4637,-1.4099,-1.5128,-1.6216,-1.6631,-1.5901,-1.6166,-1.8707,-1.8672,-1.9167,-2.1456,-2.2177,-2.2628,-2.3022,-2.2463,-2.1854,-2.1479,-1.9869,-1.8669,-1.8153,-1.7132,-1.6547,-1.6522,-1.5942,-1.6068,-1.7102,-1.661,-1.7149,-1.8658,-1.8749,-1.8593,-1.8296,-1.9397,-1.9929,0.0,0.0,0.0,0.0,0.0,0.0,0.0,0.0,1.0226,0.0,0.0,0.0,0.0,0.0,0.0,0.0,0.0,0.0,0.0,0.0,0.0,0.0,0.0,0.0,0.0,0.0,0.0,0.0,0.0,1.2761,1.088,1.0167,0.951,0.8804,0.8374,0.783,0.7074,0.6118,0.5253,0.4458,0.4098,0.3657,0.3223,0.2721,0.2135,0.1386,0.0781,0.0321,0.0,0.0,-0.0359,-0.094,-0.1297,-0.1877,-0.2555,-0.265,-0.3404,-0.428,-0.411,-0.4439,-0.5038,-0.5717,-0.6392,-0.7161,-0.8103,-0.8756,-0.9199,-0.9439,-0.9725,-1.0,-1.0244,-1.0505,-1.084,-1.1356,-1.2099,-1.2862,-1.3659,-1.4506,-1.5128,-1.518,-1.5564,-1.62,-1.7069,-1.6488,-1.6448,-1.8067,-1.8905,-1.9877,-2.1323,-2.2383,-2.297,-2.2926,-2.2424,-2.1721,-2.0831,-1.9561,-1.8333,-1.7166,-1.6089,-1.5605,-1.5954,-1.6022,-1.6464,-1.7277,-1.7362,-1.7856,-1.8825,-1.8842,-1.8729,-1.8542,-1.971,-2.0107,1.0521,0.0,0.0,0.0,0.0,0.0,0.0,0.0,0.0,0.0,0.0,0.0,0.0,0.0,0.0,0.0,0.0,0.0,0.0,0.0,0.0,0.0,0.0,0.0,0.0,0.0,0.0,0.0,1.4698,1.339,1.1174,1.0407,0.9607,0.8533,0.799,0.7235,0.6312,0.5633,0.4904,0.403,0.4039,0.3887,0.3646,0.3136,0.2573,0.201,0.1246,0.0645,0.0224,0.009,-0.0448,-0.1207,-0.1607,-0.2407,-0.3303,-0.321,-0.3763,-0.462,-0.4657,-0.5125,-0.5936,-0.691,-0.7453,-0.7818,-0.8667,-0.939,-0.9882,-0.9882,-1.0257,-1.0675,-1.0675,-1.1014,-1.1552,-1.2052,-1.2971,-1.3964,-1.4843,-1.5564,-1.6115,-1.6326,-1.6601,-1.697,-1.7497,-1.7053,-1.6974,-1.8082,-1.9325,-2.05,-2.1429,-2.2434,-2.2959,-2.2696,-2.209,-2.1302,-2.0218,-1.8912,-1.753,-1.6054,-1.5171,-1.49,-1.5318,-1.5731,-1.6225,-1.682,-1.7183,-1.7626,-1.8092,-1.8092,-1.7932,-1.7636,-1.9113,-1.9432,0.0,0.0,0.0,1.02,0.0,0.0,0.0,0.0,0.9781,0.0,0.0,0.0,0.0,0.0,0.0,0.0,0.0,0.0,0.0,0.0,0.0,0.0,0.0,0.0,0.0,0.0,0.0,1.6467,1.6316,1.4942,1.1846,1.1099,0.9843,0.7771,0.7723,0.7015,0.5542,0.5364,0.4916,0.4187,0.404,0.3938,0.3785,0.3178,0.283,0.2583,0.1432,0.0896,0.0806,0.0224,-0.0716,-0.1784,-0.1786,-0.2846,-0.4351,-0.4351,-0.4355,-0.4487,-0.5087,-0.6021,-0.7036,-0.7648,-0.8553,-0.9439,-0.9478,-1.0115,-1.0847,-1.0847,-1.1191,-1.1567,-1.1567,-1.2022,-1.2562,-1.3051,-1.3998,-1.498,-1.5544,-1.6906,-1.7818,-1.7209,-1.8265,-1.9081,-1.8486,-1.7817,-1.8066,-2.0101,-2.0521,-2.1075,-2.2465,-2.2702,-2.2678,-2.262,-2.1482,-2.0529,-2.0046,-1.7841,-1.5977,-1.4838,-1.4715,-1.4704,-1.4715,-1.4755,-1.499,-1.5538,-1.5556,-1.5868,-1.6378,-1.6378,-1.6028,-1.5472,-1.756,-1.7878,0.0,0.0,1.0732,1.1443,0.0,0.0,0.0,0.0,0.0,0.0,0.0,0.0,0.0,0.0,0.0,0.0,0.0,0.0,0.0,0.0,0.0,0.0,0.0,0.0,0.0,0.0,0.0,1.6513,1.6017,1.4612,0.0,1.114,0.9835,0.7771,0.7235,0.6475,0.5487,0.5,0.4552,0.4197,0.4143,0.3786,0.3175,0.2986,0.2412,0.1474,0.1073,0.0672,0.0269,-0.0359,-0.1073,-0.1873,-0.2622,-0.3548,-0.4387,-0.4387,-0.4913,-0.5653,-0.6252,-0.7168,-0.8126,-0.816,-0.8656,-0.9283,-0.9433,-0.9724,-1.0092,-1.054,-1.1113,-1.1644,-1.2095,-1.3156,-1.4141,-1.4311,-1.5428,-1.6654,-1.7183,-1.7655,-1.8106,-1.8538,-1.869,-1.8827,-1.9076,-1.936,-1.9747,-2.0451,-2.0965,-2.1551,-2.2331,-2.2354,-2.2071,-2.1481,-2.015,-1.8966,-1.8125,-1.5977,-1.4486,-1.4118,-1.3734,-1.3675,-1.408,-1.4105,-1.4381,-1.4942,-1.4989,-1.4851,-1.4587,-1.4587,-1.3982,-1.2933,-1.3205,-1.379,1.1516,1.1338,0.0,1.1832,1.1314,0.0,1.0583,0.0,0.0,0.0,0.0,0.0,0.0,0.0,0.0,0.0,0.0,0.0,0.0,0.6735,0.0,0.0,0.0,0.0,0.0,0.0,1.7665,1.6467,1.6219,1.507,0.0,0.0,1.0069,0.7753,0.6961,0.5982,0.4718,0.4284,0.3862,0.3511,0.3417,0.3108,0.2569,0.2546,0.1916,0.0866,0.0674,0.0225,-0.0457,-0.099,-0.1637,-0.2324,-0.3188,-0.4024,-0.4794,-0.4985,-0.5647,-0.6598,-0.7349,-0.8014,-0.858,-0.8586,-0.8865,-0.9266,-0.9447,-0.96,-0.9883,-1.063,-1.135,-1.2133,-1.2788,-1.4052,-1.5166,-1.5166,-1.6244,-1.7411,-1.7754,-1.8044,-1.8448,-1.912,-1.9262,-1.9466,-1.9954,-2.0677,-2.1111,-2.0853,-2.14,-2.1894,-2.2023,-2.1799,-2.1201,-2.0127,-1.885,-1.7505,-1.6049,-1.4613,-1.3723,-1.3468,-1.3135,-1.3066,-1.3468,-1.3468,-1.3537,-1.3665,-1.3665,-1.333,-1.2677,-1.2672,-1.2095,-1.1032,-1.0298,-1.0517]}]]